[[{"header":{"parameterUnit":"m.s-1","parameterCategory":1,"la1":31.0,"la2":29.5877,"lo1":-88.7671,"lo2":-86.6584,"dy":0.0162,"dx":0.0185,"nx":115,"ny":88,"refTime":"2026-03-26T12:00:00:Z","depth":0,"parameterNumber":2,"parameterNumberName":"U-component_of_WINDS"},"data":[0.0,0.0,0.0,0.0,0.0,0.0,0.0,0.0,0.0,0.0,0.0,0.0,0.0,0.0,0.0,0.0,0.0,0.0,0.0,0.0,0.0,0.0,0.0,0.0,0.0,0.0,0.0,0.0,0.0,0.0,0.0,0.0,0.0,0.0,0.0,0.0,0.0,0.0,0.0,0.0,0.0,0.0,0.0,0.0,0.0,0.0,0.0,0.0,0.0,0.0,0.0,0.0,0.0,0.0,0.0,0.0,0.0,0.0,0.0,0.0,0.0,0.0,0.0,0.0,0.0,0.0,0.0,0.0,0.0,0.0,0.0,0.0,0.0,0.0,0.0,0.0,0.0,0.0,0.0,0.0,0.0,0.0,0.0,0.0,0.0,0.0,0.0,0.0,0.0,0.0,0.0,0.0,0.0,0.0,0.0,0.0,0.0,0.0,0.0,0.0,0.0,0.0,0.0,0.0,0.0,0.0,0.0,0.0,0.0,0.0,0.0,0.0,0.0,0.0,0.0,0.0,0.0,0.0,0.0,0.0,0.0,0.0,0.0,0.0,0.0,0.0,0.0,0.0,0.0,0.0,0.0,0.0,0.0,0.0,0.0,0.0,0.0,0.0,0.0,0.0,0.0,0.0,0.0,0.0,0.0,0.0,0.0,0.0,0.0,0.0,0.0,0.0,0.0,0.0,0.0,0.0,0.0,0.0,0.0,0.0,0.0,0.0,0.0,0.0,0.0,0.0,0.0,0.0,0.0,0.0,0.0,0.0,0.0,0.0,0.0,0.0,0.0,0.0,0.0,0.0,0.0,0.0,0.0,0.0,0.0,0.0,0.0,0.0,0.0,0.0,0.0,0.0,0.0,0.0,0.0,0.0,0.0,0.0,0.0,0.0,0.0,0.0,0.0,0.0,0.0,0.0,0.0,0.0,0.0,0.0,0.0,0.0,0.0,0.0,0.0,0.0,0.0,0.0,0.0,0.0,0.0,0.0,0.0,0.0,0.0,0.0,0.0,0.0,0.0,0.0,0.0,0.0,0.0,0.0,0.0,0.0,0.0,0.0,0.0,0.0,0.0,0.0,0.0,0.0,0.0,0.0,0.0,0.0,0.0,0.0,0.0,0.0,0.0,0.0,0.0,0.0,0.0,0.0,0.0,0.0,0.0,0.0,0.0,0.0,0.0,0.0,0.0,0.0,0.0,0.0,0.0,0.0,0.0,0.0,0.0,0.0,0.0,0.0,0.0,0.0,0.0,0.0,0.0,0.0,0.0,0.0,0.0,0.0,0.0,0.0,0.0,0.0,0.0,0.0,0.0,0.0,0.0,0.0,0.0,0.0,0.0,0.0,0.0,0.0,0.0,0.0,0.0,0.0,0.0,0.0,0.0,0.0,0.0,0.0,0.0,0.0,0.0,0.0,0.0,0.0,0.0,0.0,0.0,0.0,0.0,0.0,0.0,0.0,0.0,0.0,0.0,0.0,0.0,0.0,0.0,0.0,0.0,0.0,0.0,0.0,0.0,0.0,0.0,0.0,0.0,0.0,0.0,0.0,0.0,0.0,0.0,0.0,0.0,0.0,0.0,0.0,0.0,0.0,0.0,0.0,0.0,0.0,0.0,0.0,0.0,0.0,0.0,0.0,0.0,0.0,0.0,0.0,0.0,0.0,0.0,0.0,0.0,0.0,0.0,0.0,0.0,0.0,0.0,0.0,0.0,0.0,0.0,0.0,0.0,0.0,0.0,0.0,0.0,0.0,0.0,0.0,0.0,0.0,0.0,0.0,0.0,0.0,0.0,0.0,0.0,0.0,0.0,0.0,0.0,0.0,0.0,0.0,0.0,0.0,0.0,0.0,0.0,0.0,0.0,0.0,0.0,0.0,0.0,0.0,0.0,0.0,0.0,0.0,0.0,0.0,0.0,0.0,0.0,0.0,0.0,0.0,0.0,0.0,0.0,0.0,0.0,0.0,0.0,0.0,0.0,0.0,0.0,0.0,0.0,0.0,0.0,0.0,0.0,0.0,0.0,0.0,0.0,0.0,0.0,0.0,0.0,0.0,0.0,0.0,0.0,0.0,0.0,0.0,0.0,0.0,0.0,0.0,0.0,0.0,0.0,0.0,0.0,0.0,0.0,0.0,0.0,0.0,0.0,0.0,0.0,0.0,0.0,0.0,0.0,0.0,0.0,0.0,0.0,0.0,0.0,0.0,0.0,0.0,0.0,0.0,0.0,0.0,0.0,0.0,0.0,0.0,0.0,0.0,0.0,0.0,0.0,0.0,0.0,0.0,0.0,0.0,0.0,0.0,0.0,0.0,0.0,0.0,0.0,0.0,0.0,0.0,0.0,0.0,0.0,0.0,0.0,0.0,0.0,0.0,0.0,0.0,0.0,0.0,0.0,0.0,0.0,0.0,0.0,0.0,0.0,0.0,0.0,0.0,0.0,0.0,0.0,0.0,0.0,0.0,0.0,0.0,0.0,0.0,0.0,0.0,0.0,0.0,0.0,0.0,0.0,0.0,0.0,0.0,0.0,0.0,0.0,0.0,0.0,0.0,0.0,0.0,0.0,0.0,0.0,0.0,0.0,0.0,0.0,0.0,0.0,0.0,0.0,0.0,0.0,0.0,0.0,0.0,0.0,0.0,0.0,0.0,0.0,0.0,0.0,0.0,0.0,0.0,0.0,0.0,0.0,0.0,0.0,0.0,0.0,0.0,0.0,0.0,0.0,0.0,0.0,0.0,0.0,0.0,0.0,0.0,0.0,0.0,0.0,0.0,0.0,0.0,0.0,0.0,0.0,0.0,0.0,0.0,0.0,0.0,0.0,0.0,0.0,0.0,0.0,0.0,0.0,0.0,0.0,0.0,0.0,0.0,0.0,0.0,0.0,0.0,0.0,0.0,0.0,0.0,0.0,0.0,0.0,0.0,0.0,0.0,0.0,0.0,0.0,0.0,0.0,0.0,0.0,0.0,0.0,0.0,0.0,0.0,0.0,0.0,0.0,0.0,0.0,0.0,0.0,0.0,0.0,0.0,0.0,0.0,0.0,0.0,0.0,0.0,0.0,0.0,0.0,0.0,0.0,0.0,0.0,0.0,0.0,0.0,0.0,0.0,0.0,0.0,0.0,0.0,0.0,0.0,0.0,0.0,0.0,0.0,0.0,0.0,0.0,0.0,0.0,0.0,0.0,0.0,0.0,0.0,0.0,0.0,0.0,0.0,0.0,0.0,0.0,0.0,0.0,0.0,0.0,0.0,0.0,0.0,0.0,0.0,0.0,0.0,0.0,0.0,0.0,0.0,0.0,0.0,0.0,0.0,0.0,0.0,0.0,0.0,0.0,0.0,0.0,0.0,0.0,0.0,0.0,0.0,0.0,0.0,0.0,0.0,0.0,0.0,0.0,0.0,0.0,0.0,0.0,0.0,0.0,0.0,0.0,0.0,0.0,0.0,0.0,0.0,0.0,0.0,0.0,0.0,0.0,0.0,0.0,0.0,0.0,0.0,0.0,0.0,0.0,0.0,0.0,0.0,0.0,0.0,0.0,0.0,0.0,0.0,0.0,0.0,0.0,0.0,0.0,0.0,0.0,0.0,0.0,0.0,0.0,0.0,0.0,0.0,0.0,0.0,0.0,0.0,0.0,0.0,0.0,0.0,0.0,0.0,0.0,0.0,0.0,0.0,0.0,0.0,0.0,0.0,0.0,0.0,0.0,0.0,0.0,0.0,0.0,0.0,0.0,0.0,0.0,0.0,0.0,0.0,0.0,0.0,0.0,0.0,0.0,0.0,0.0,0.0,0.0,0.0,0.0,0.0,0.0,0.0,0.0,0.0,0.0,0.0,0.0,0.0,0.0,0.0,0.0,0.0,0.0,0.0,0.0,0.0,0.0,0.0,0.0,0.0,0.0,0.0,0.0,0.0,0.0,0.0,0.0,0.0,0.0,0.0,0.0,0.0,0.0,0.0,0.0,0.0,0.0,0.0,0.0,0.0,0.0,0.0,0.0,0.0,0.0,0.0,0.0,0.0,0.0,0.0,0.0,0.0,0.0,0.0,0.0,0.0,0.0,0.0,0.0,0.0,0.0,0.0,0.0,0.0,0.0,0.0,0.0,0.0,0.0,0.0,0.0,0.0,0.0,0.0,0.0,0.0,0.0,0.0,0.0,0.0,0.0,0.0,0.0,0.0,0.0,0.0,0.0,0.0,0.0,0.0,0.0,0.0,0.0,0.0,0.0,0.0,0.0,0.0,0.0,0.0,0.0,0.0,0.0,0.0,0.0,0.0,0.0,0.0,0.4783,0.0,0.0,0.0,0.0,0.0,0.0,0.0,0.0,0.0,0.0,0.0,0.0,0.0,0.0,0.0,0.0,0.0,0.0,0.0,0.0,0.0,0.0,0.0,0.0,0.0,0.0,0.0,0.0,0.0,0.0,0.0,0.0,0.0,0.0,0.0,0.0,0.0,0.0,0.0,0.0,0.0,0.0,0.0,0.0,0.0,0.0,0.0,0.0,0.0,0.0,0.0,0.0,0.0,0.0,0.0,0.0,0.0,0.0,0.0,0.0,0.0,0.0,0.0,0.0,0.0,0.0,0.0,0.0,0.0,0.0,0.0,0.0,0.0,0.0,0.0,0.0,0.0,0.0,0.0,0.0,0.0,0.0,0.0,0.0,0.0,0.0,0.0,0.0,0.0,0.0,0.0,0.0,0.0,0.0,0.0,0.0,0.0,0.0,0.0,0.0,0.0,0.0,0.0,0.0,0.0,0.0,0.0,0.0,0.0,0.0,-0.1696,0.0799,0.283,0.3823,0.3693,0.0,0.0,0.0,0.0,0.0,0.0,0.0,0.0,0.0,0.0,0.0,0.0,0.0,0.0,0.0,0.0,0.0,0.0,0.0,0.0,0.0,0.0,0.0,0.0,0.0,0.0,0.0,0.0,0.0,0.0,0.0,0.0,0.0,0.0,0.0,0.0,0.0,0.0,0.0,0.0,0.0,0.0,0.0,0.0,0.0,0.0,0.0,0.0,0.0,0.0,0.0,0.0,0.0,0.0,0.0,0.0,0.0,0.0,0.0,0.0,0.0,0.0,0.0,0.0,0.0,0.0,0.0,0.0,0.0,0.0,0.0,0.0,0.0,0.0,0.0,0.0,0.0,0.0,0.0,0.0,0.0,0.0,0.0,0.0,0.0,0.0,0.0,0.0,0.0,0.0,0.0,0.0,0.0,0.0,0.0,0.0,0.0,0.0,0.0,0.0,0.0,0.0,0.0,0.0,0.0,0.0,0.0,0.0,0.0,0.0,0.0,0.0,0.0955,0.2104,0.2128,0.0,0.0,0.0,0.0,0.0,0.0,0.0,0.0,0.0,0.0,0.0,0.0,0.0,0.0,0.0,0.0,0.0,0.0,0.0,0.0,0.0,0.0,0.0,0.0,0.0,0.0,0.0,0.0,0.0,0.0,0.0,0.0,0.0,0.0,0.0,0.0,0.0,0.0,0.0,0.0,0.0,0.0,0.0,0.0,0.0,0.0,0.0,0.0,0.0,0.0,0.0,0.0,0.0,0.0,0.0,0.0,0.0,0.0,0.0,0.0,0.0,0.0,0.0,0.0,0.0,0.0,0.0,0.0,0.0,0.0,0.0,0.0,0.0,0.0,0.0,0.0,0.0,0.0,0.0,0.0,0.0,0.0,0.0,0.0,0.0,0.0,0.0,0.0,0.0,0.0,0.0,0.0,0.0,0.0,0.0,0.0,0.0,0.0,0.0,0.0,0.0,0.0,0.0,0.0,0.0,0.0,0.0,0.0,0.0,0.0,-0.5206,-0.488,-0.1546,0.0,0.0356,0.0,0.0,0.0,0.0,0.0,0.0,0.0,0.0,0.0,0.0,0.0,0.0,0.0,0.0,0.0,0.0,0.0,0.0,0.0,0.0,0.0,0.0,0.0,0.0,0.0,0.0,0.0,0.0,0.0,0.0,0.0,0.0,0.0,0.0,0.0,0.0,0.0,0.0,0.0,0.0,0.0,0.0,0.0,0.0,0.0,0.0,0.0,0.0,0.0,0.0,0.0,0.0,0.0,0.0,0.0,0.0,0.0,0.0,0.0,0.0,0.0,0.0,0.0,0.0,0.0,0.0,0.0,0.0,0.0,0.0,0.0,0.0,0.0,0.0,0.0,0.0,0.0,0.0,0.0,0.0,0.0,0.0,0.0,0.0,0.0,0.0,0.0,0.0,0.0,0.0,0.0,0.0,0.0,0.0,0.0,0.0,0.0,0.0,0.0,0.0,0.0,0.0,0.0,0.0,0.0,0.0,0.0,0.0,0.0,0.0,0.0,-0.5396,-0.1872,-0.0,0.0,0.0,0.0,0.0,0.0,0.0,0.0,0.0,0.0,0.0,0.0,0.0,0.0,0.0,0.0,0.0,0.0,0.0,0.0,0.0,0.0,0.0,0.0,0.0,0.0,0.0,0.0,0.0,0.0,0.0,0.0,0.0,0.0,0.0,0.0,0.0,0.0,0.0,0.0,0.0,0.0,0.0,0.0,0.0,0.0,0.0,0.0,0.0,0.0,0.0,0.0,0.0,0.0,0.0,0.0,0.0,0.0,0.0,0.0,0.0,0.0,0.0,0.0,0.0,0.0,0.0,0.0,0.0,0.0,0.0,0.0,0.0,0.0,0.0,0.0,0.0,0.0,0.0,0.0,0.0,0.0,0.0,0.0,0.0,0.0,0.0,0.0,0.0,0.0,0.0,0.0,0.0,0.0,0.0,0.0,0.0,0.0,0.0,0.0,0.0,0.0,0.0,0.0,0.0,0.0,0.0,0.0,0.0,0.0,0.0,-0.4478,0.0,-0.4415,-0.2415,-0.0868,-0.0,0.0,0.0,0.0,0.0,0.0,0.0,0.0,0.0,0.0,0.0,0.0,0.0,0.0,0.0,0.0,0.0,0.0,0.0,0.0,0.0,0.0,0.0,0.0,0.0,0.0,0.0,0.0,0.0,0.0,0.0,0.0,0.0,0.0,0.0,0.0,0.0,0.0,0.0,0.0,0.0,0.0,0.0,0.0,0.0,0.0,0.0,0.0,0.0,0.0,0.0,0.0,0.0,0.0,0.0,0.0,0.0,0.0,0.0,0.0,0.0,0.0,0.0,0.0,0.0,0.0,0.0,0.0,0.0,0.0,0.0,0.0,0.0,0.0,0.0,0.0,0.0,0.0,0.0,0.0,0.0,0.0,0.0,0.0,0.0,0.0,0.0,0.0,0.0,0.0,0.0,0.0,0.0,0.0,0.0,0.0,0.0,0.0,0.0,0.0,0.0,0.0,0.0,0.0,0.0,0.0,0.0,0.0,0.0,0.0,-0.4516,-0.3841,-0.2538,-0.3602,-0.296,0.0,0.0,0.0,0.0,0.0,0.0,0.0,0.0,0.0,0.0,0.0,0.0,0.0,0.0,0.0,0.0,0.0,0.0,0.0,0.0,0.0,0.0,0.0,0.0,0.0,0.0,0.0,0.0,0.0,0.0,0.0,0.0,0.0,0.0,0.0,0.0,0.0,0.0,0.0,0.0,0.0,0.0,0.0,0.0,0.0,0.0,0.0,0.0,0.0,0.0,0.0,0.0,0.0,0.0,0.0,0.0,0.0,0.0,0.0,0.0,0.0,0.0,0.0,0.0,0.0,0.0,0.0,0.0,0.0,0.0,0.0,0.0,0.0,0.0,0.0,0.0,0.0,0.0,0.0,0.0,0.0,0.0,0.0,0.0,0.0,0.0,0.0,0.0,0.0,0.0,0.0,0.0,0.0,0.0,0.0,0.0,0.0,0.0,0.0,0.0,0.0,0.0,0.0,0.0,0.0,0.0,0.0,0.0,0.0,-0.7102,-0.6346,-0.5459,-0.4599,-0.4545,-0.35,0.0,0.0,0.0,0.0,0.0,0.0,0.0,0.0,0.0,0.0,0.0,0.0,0.0,0.0,0.0,0.0,0.0,0.0,0.0,0.0,0.0,0.0,0.0,0.0,0.0,0.0,0.0,0.0,0.0,0.0,0.0,0.0,0.0,0.0,0.0,0.0,0.0,0.0,0.0,0.0,0.0,0.0,0.0,0.0,0.0,0.0,0.0,0.0,0.0,0.0,0.0,0.0,0.0,0.0,0.0,0.0,0.0,0.0,0.0,0.0,0.0,0.0,0.0,0.0,0.0,0.0,0.0,0.0,0.0,0.0,0.0,0.0,0.0,0.0,0.0,0.0,0.0,0.0,0.0,0.0,0.0,0.0,0.0,0.0,0.0,0.0,0.0,0.0,0.0,0.0,0.0,0.0,0.0,0.0,0.0,0.0,0.0,0.0,0.0,0.0,0.0,0.0,0.0,0.0,0.0,0.0,0.0,0.0,0.0,-0.9045,0.0,-0.7299,0.0,-0.5289,-0.3981,0.0,0.0,0.0,0.0,0.0,0.0,0.0,0.0,0.0,0.0,0.0,0.0,0.0,0.0,0.0,0.0,0.0,0.0,0.0,0.0,0.0,0.0,0.0,0.0,0.0,0.0,0.0,0.0,0.0,0.0,0.0,0.0,0.0,0.0,0.0,0.0,0.0,0.0,0.0,0.0,0.0,0.0,0.0,0.0,0.0,0.0,0.0,0.0,0.0,0.0,0.0,0.0,0.0,0.0,0.0,0.0,0.0,0.0,0.0,0.0,0.0,0.0,0.0,0.0,0.0,0.0,0.0,0.0,0.0,0.0,0.0,0.0,0.0,0.0,0.0,0.0,0.0,0.0,0.0,0.0,0.0,0.0,0.0,0.0,0.0,0.0,0.0,0.0,0.0,0.0,0.0,0.0,0.0,0.0,0.0,0.0,0.0,0.0,0.0,0.0,0.0,0.0,0.0,0.0,0.0,0.0,0.0,0.0,-0.9239,-0.9883,-0.9773,-0.9438,-0.8632,-0.6151,-0.4593,0.0,0.0,0.0,0.0,0.0,0.0,0.0,0.0,0.0,0.0,0.0,0.0,0.0,0.0,0.0,0.0,0.0,0.0,0.0,0.0,0.0,0.0,0.0,0.0,0.0,0.0,0.0,0.0,0.0,0.0,0.0,0.0,0.0,0.0,0.0,0.0,0.0,0.0,0.0,0.0,0.0,0.0,0.0,0.0,0.0,0.0,0.0,0.0,0.0,0.0,0.0,0.0,0.0,0.0,0.0,0.0,0.0,0.0,0.0,0.0,0.0,0.0,0.0,0.0,0.0,0.0,0.0,0.0,0.0,0.0,0.0,0.0,0.0,0.0,0.0,0.0,0.0,0.0,0.0,0.0,0.0,0.0,0.0,0.0,0.0,0.0,0.0,0.0,0.0,0.0,0.0,0.0,0.0,0.0,0.0,0.0,0.0,0.0,0.0,0.0,0.0,0.0,0.0,0.0,0.0,0.0,0.0,0.0,0.0,-1.1827,-1.2979,-1.3095,-1.1952,-0.9788,-0.7269,0.0,0.0,0.0,0.0,0.0,0.0,0.0,0.0,0.0,0.0,0.0,0.0,0.0,0.0,0.0,0.0,0.0,0.0,0.0,0.0,0.0,0.0,0.0,0.0,0.0,0.0,0.0,0.0,0.0,0.0,0.0,0.0,0.0,0.0,0.0,0.0,0.0,0.0,0.0,0.0,0.0,0.0,0.0,0.0,0.0,0.0,0.0,0.0,0.0,0.0,0.0,0.0,0.0,0.0,0.0,0.0,0.0,0.0,0.0,0.0,0.0,0.0,0.0,0.0,0.0,0.0,0.0,0.0,0.0,0.0,0.0,0.0,0.0,0.0,0.0,0.0,0.0,0.0,0.0,0.0,0.0,0.0,0.0,0.0,0.0,0.0,0.0,0.0,0.0,0.0,0.0,0.0,0.0,0.0,0.0,0.0,0.0,0.0,0.0,0.0,0.0,0.0,0.0,0.0,0.0,0.0,0.0,0.0,0.0,-1.5974,-1.6669,-1.6406,-1.5045,-1.2801,-0.9931,-0.6465,0.0,0.0,0.0,0.0,0.0,0.0,0.0,0.0,0.0,0.0,0.0,0.0,0.0,0.0,0.0,0.0,0.0,0.0,0.0,0.0,0.0,0.0,0.0,0.0,0.0,0.0,0.0,0.0,0.0,0.0,0.0,0.0,0.0,0.0,0.0,0.0,0.0,0.0,0.0,0.0,0.0,0.0,0.0,0.0,0.0,0.0,0.0,0.0,0.0,0.0,0.0,0.0,0.0,0.0,0.0,0.0,0.0,0.0,0.0,0.0,0.0,0.0,0.0,0.0,0.0,0.0,0.0,0.0,0.0,0.0,0.0,0.0,0.0,0.0,0.0,0.0,0.0,0.0,0.0,0.0,0.0,0.0,0.0,0.0,0.0,0.0,0.0,0.0,0.0,0.0,0.0,0.0,0.0,0.0,0.0,0.0,0.0,0.0,0.0,0.0,0.0,0.0,0.0,0.0,0.0,0.0,0.0,0.0,-2.1734,-2.0625,-1.9311,-1.7841,-1.5147,-1.2368,0.0,0.0,0.0,0.0,0.0,0.0,0.0,0.0,0.0,0.0,0.0,0.0,0.0,0.0,0.0,0.0,0.0,0.0,0.0,0.0,0.0,0.0,0.0,0.0,0.0,0.0,0.0,0.0,0.0,0.0,0.0,0.0,0.0,0.0,0.0,0.0,0.0,0.0,0.0,0.0,0.0,0.0,0.0,0.0,0.0,0.0,0.0,0.0,0.0,0.0,0.0,0.0,0.0,0.0,0.0,0.0,0.0,0.0,0.0,0.0,0.0,0.0,0.0,0.0,0.0,0.0,0.0,0.0,0.0,0.0,0.0,0.0,0.0,0.0,0.0,0.0,0.0,0.0,0.0,0.0,0.0,0.0,0.0,0.0,0.0,0.0,0.0,0.0,0.0,0.0,0.0,0.0,0.0,0.0,0.0,0.0,0.0,0.0,0.0,0.0,0.0,0.0,0.0,0.0,0.0,0.0,0.0,0.0,0.0,-2.2753,-2.2858,-2.2064,-2.0471,-1.7036,-1.376,0.0,0.0,0.0,0.0,0.0,0.0,0.0,0.0,0.0,0.0,0.0,0.0,0.0,0.0,0.0,0.0,0.0,0.0,0.0,0.0,0.0,0.0,0.0,0.0,0.0,0.0,0.0,0.0,0.0,0.0,0.0,0.0,0.0,0.0,0.0,0.0,0.0,0.0,0.0,0.0,0.0,0.0,0.0,0.0,0.0,0.0,0.0,0.0,0.0,0.0,0.0,0.0,0.0,0.0,0.0,0.0,0.0,0.0,0.0,0.0,0.0,0.0,0.0,0.0,0.0,0.0,0.0,0.0,0.0,0.0,0.0,0.0,0.0,0.0,0.0,0.0,0.0,0.0,0.0,0.0,0.0,0.0,0.0,0.0,0.0,0.0,0.0,0.0,0.0,0.0,0.0,0.0,0.0,0.0,0.0,0.0,0.0,0.0,0.0,0.0,0.0,0.0,0.0,0.0,0.0,0.0,0.0,0.0,-2.0717,-2.4061,-2.4088,-2.3536,-2.2455,-1.8908,-1.5402,0.0,0.0,0.0,0.0,0.0,0.0,0.0,0.0,0.0,0.0,0.0,0.0,0.0,0.0,0.0,0.0,0.0,0.0,0.0,0.0,0.0,0.0,0.0,0.0,0.0,0.0,0.0,0.0,0.0,0.0,0.0,0.0,0.0,0.0,0.0,0.0,0.0,0.0,0.0,0.0,0.0,0.0,0.0,0.0,0.0,0.0,0.0,0.0,0.0,0.0,0.0,0.0,0.0,0.0,0.0,0.0,0.0,0.0,0.0,0.0,0.0,0.0,0.0,0.0,0.0,0.0,0.0,0.0,0.0,0.0,0.0,0.0,0.0,0.0,0.0,0.0,0.0,0.0,0.0,0.0,0.0,0.0,0.0,0.0,0.0,0.0,0.0,0.0,0.0,0.0,0.0,0.0,0.0,0.0,0.0,0.0,0.0,0.0,0.0,0.0,0.0,0.0,0.0,0.0,0.0,0.0,0.0,0.0,-2.2133,-2.4838,-2.4422,-2.3981,-2.3572,-2.0517,-1.6902,0.0,0.0,0.0,0.0,0.0,0.0,0.0,0.0,0.0,0.0,0.0,0.0,0.0,0.0,0.0,0.0,0.0,0.0,0.0,0.0,0.0,0.0,0.0,0.0,0.0,0.0,0.0,0.0,0.0,0.0,0.0,0.0,0.0,0.0,0.0,0.0,0.0,0.0,0.0,0.0,0.0,0.0,0.0,0.0,0.0,0.0,0.0,0.0,0.0,0.0,0.0,0.0,0.0,0.0,0.0,0.0,0.0,0.0,0.0,0.0,0.0,0.0,0.0,0.0,0.0,0.0,0.0,0.0,0.0,0.0,0.0,0.0,0.0,0.0,0.0,0.0,0.0,0.0,0.0,0.0,0.0,0.0,0.0,0.0,0.0,0.0,0.0,0.0,0.0,0.0,0.0,0.0,0.0,0.0,0.0,0.0,0.0,0.0,0.0,0.0,0.0,0.0,0.0,0.0,0.0,0.0,0.0,0.0,-2.1522,-2.3091,-2.3181,-2.3208,-2.3218,-2.0502,-1.7183,0.0,0.0,0.0,0.0,0.0,0.0,0.0,0.0,0.0,0.0,0.0,0.0,0.0,0.0,0.0,0.0,0.0,0.0,0.0,0.0,0.0,0.0,0.0,0.0,0.0,0.0,0.0,0.0,0.0,0.0,0.0,0.0,0.0,0.0,0.0,0.0,0.0,0.0,0.0,0.0,0.0,0.0,0.0,0.0,0.0,0.0,0.0,0.0,-0.3915,0.0,0.0,0.0,0.0,0.0,0.0,0.0,0.0,0.0,0.0,0.0,0.0,0.0,0.0,0.0,0.0,0.0,0.0,0.0,0.0,0.0,0.0,0.0,0.0,0.0,0.0,0.0,0.0,0.0,0.0,0.0,0.0,0.0,0.0,0.0,0.0,0.0,0.0,0.0,0.0,0.0,0.0,0.0,0.0,0.0,0.0,0.0,0.0,0.0,0.0,0.0,0.0,0.0,0.0,0.0,0.0,0.0,0.0,0.0,-2.2009,-2.3159,-2.2984,-2.3183,-2.3768,-2.1371,-1.7973,0.0,0.0,0.0,0.0,0.0,0.0,0.0,0.0,0.0,0.0,0.0,0.0,0.0,0.0,0.0,0.0,0.0,0.0,0.0,0.0,0.0,0.0,0.0,0.0,0.0,0.0,0.0,0.0,0.0,0.0,0.0,0.0,0.0,0.0,0.0,0.0,0.0,0.0,0.0,0.0,0.0,0.0,0.0,0.0,0.0,0.0,0.0,0.0,0.0,0.0,0.0,0.0,0.0,0.0,0.0,0.0,0.0,0.0,0.0,0.0,0.0,0.0,0.0,0.0,0.0,0.0,0.0,0.0,0.0,0.0,0.0,0.0,0.0,0.0,0.0,0.0,0.0,0.0,0.0,0.0,0.0,0.0,0.0,0.0,0.0,0.0,0.0,0.0,0.0,0.0,0.0,0.0,0.0,0.0,0.0,0.0,0.0,0.0,0.0,0.0,0.0,0.0,0.0,0.0,0.0,0.0,0.0,-2.1768,-2.299,-2.3783,-2.3294,-2.3608,-2.472,-2.2328,-1.88,-1.4212,0.0,0.0,0.0,0.0,0.0,0.0,0.0,0.0,0.0,0.0,0.0,0.0,0.0,0.0,0.0,0.0,0.0,0.0,0.0,0.0,0.0,0.0,0.0,0.0,0.0,0.0,0.0,0.0,0.0,0.0,0.0,0.0,0.0,0.0,0.0,0.0,0.0,0.0,-1.044,-1.5395,0.0,0.0,0.0,0.0,0.0,0.0,0.0,0.0,-0.8562,0.0,0.0,0.0,0.0,0.0,0.0,0.0,0.0,0.0,0.0,0.0,0.0,0.0,0.0,0.0,0.0,0.0,0.0,0.0,0.0,0.0,0.0,0.0,0.0,0.0,0.0,0.0,0.0,0.0,0.0,0.0,0.0,0.0,0.0,0.0,0.0,0.0,0.0,0.0,0.0,0.0,0.0,0.0,0.0,0.0,0.0,0.0,0.0,0.0,0.0,0.0,0.0,0.0,0.0,0.0,0.0,-2.1053,-2.2931,-2.3796,-2.3575,-2.3889,-2.4295,-2.471,-2.1952,-1.8768,-1.5253,0.0,0.0,0.0,0.0,0.0,0.0,0.0,0.0,0.0,0.0,0.0,0.0,0.0,0.0,0.0,0.0,0.0,0.0,0.0,0.0,0.0,0.0,0.0,0.0,0.0,0.0,0.0,0.0,0.0,0.0,0.0,0.0,0.0,0.0,0.0,0.0,0.0,0.0,0.0,-2.0594,-2.224,0.0,0.0,0.0,0.0,0.0,0.0,0.0,0.0,-1.2868,0.0,0.0,0.0,0.0,0.0,0.0,0.0,0.0,0.0,0.0,0.0,0.0,0.0,0.0,0.0,0.0,0.0,0.0,0.0,0.0,0.0,0.0,0.0,0.0,0.0,0.0,0.0,0.0,0.0,0.0,0.0,0.0,0.0,0.0,0.0,0.0,0.0,0.0,0.0,0.0,0.0,0.0,0.0,0.0,0.0,0.0,0.0,0.0,0.0,0.0,0.0,0.0,0.0,0.0,0.0,-2.2201,-2.332,-2.3777,-2.366,-2.397,-2.4366,-2.473,-2.2159,-1.9042,0.0,0.0,0.0,0.0,0.0,0.0,0.0,0.0,0.0,0.0,0.0,0.0,0.0,0.0,0.0,0.0,0.0,0.0,0.0,0.0,0.0,0.0,0.0,0.0,0.0,0.0,0.0,0.0,0.0,0.0,0.0,0.0,0.0,0.0,0.0,0.0,0.0,0.0,0.0,0.0,-2.2409,-2.3936,-2.1669,0.0,0.0,0.0,0.0,0.0,0.0,-1.7302,-1.5229,0.0,0.0,0.0,0.0,0.0,0.0,0.0,0.0,0.0,0.0,0.0,0.0,0.0,0.0,0.0,0.0,0.0,0.0,0.0,0.0,0.0,0.0,0.0,0.0,0.0,0.0,0.0,0.0,0.0,0.0,0.0,0.0,0.0,0.0,0.0,0.0,0.0,0.0,0.0,0.0,0.0,0.0,0.0,0.0,0.0,0.0,0.0,0.0,0.0,0.0,0.0,0.0,0.0,0.0,0.0,-2.324,-2.3639,-2.3793,-2.3822,-2.4127,-2.4464,-2.4739,-2.2399,-1.9381,0.0,0.0,0.0,0.0,0.0,0.0,0.0,0.0,0.0,0.0,0.0,0.0,0.0,0.0,0.0,0.0,0.0,0.0,0.0,0.0,0.0,0.0,0.0,0.0,0.0,0.0,0.0,0.0,0.0,0.0,0.0,0.0,0.0,0.0,0.0,0.0,0.0,0.0,0.0,0.0,0.0,-2.4737,-2.3175,-2.1567,0.0,0.0,0.0,0.0,-2.1378,-1.9469,0.0,0.0,0.0,0.0,0.0,0.0,0.0,0.0,0.0,0.0,0.0,0.0,0.0,0.0,0.0,0.0,0.0,0.0,0.0,0.0,0.0,0.0,0.0,0.0,0.0,0.0,0.0,0.0,0.0,0.0,0.0,0.0,0.0,0.0,0.0,0.0,0.0,0.0,0.0,0.0,0.0,0.0,0.0,0.0,0.0,0.0,0.0,0.0,0.0,0.0,0.0,0.0,0.0,0.0,0.0,0.0,-2.3692,-2.4447,-2.4491,-2.3887,-2.4798,-2.5152,-2.4788,-2.2396,-1.9627,0.0,0.0,0.0,0.0,0.0,0.0,0.0,0.0,0.0,0.0,0.0,0.0,0.0,0.0,0.0,0.0,0.0,0.0,0.0,0.0,0.0,0.0,0.0,0.0,0.0,0.0,0.0,0.0,0.0,0.0,0.0,0.0,0.0,0.0,0.0,0.0,0.0,0.0,0.0,0.0,0.0,-2.5019,-2.4294,-2.3113,-2.2076,0.0,0.0,-2.0589,-1.9869,-1.978,0.0,0.0,0.0,0.0,0.0,0.0,0.0,0.0,0.0,0.0,0.0,0.0,0.0,0.0,0.0,0.0,0.0,0.0,0.0,0.0,0.0,0.0,0.0,0.0,0.0,0.0,0.0,0.0,0.0,0.0,0.0,0.0,0.0,0.0,0.0,0.0,0.0,0.0,0.0,0.0,0.0,0.0,0.0,0.0,0.0,0.0,0.0,0.0,0.0,0.0,0.0,0.0,0.0,0.0,0.0,-2.3043,-2.399,-2.4216,-2.3979,-2.3331,-2.3771,-2.3836,-2.3455,-2.1722,-1.9427,0.0,0.0,0.0,0.0,0.0,0.0,0.0,0.0,0.0,0.0,0.0,0.0,0.0,0.0,0.0,0.0,0.0,0.0,0.0,0.0,0.0,0.0,0.0,0.0,0.0,0.0,0.0,0.0,0.0,0.0,0.0,0.0,0.0,0.0,0.0,0.0,0.0,0.0,0.0,0.0,0.0,0.0,-2.4853,-2.3856,0.0,0.0,0.0,-2.1108,-2.1052,0.0,0.0,0.0,0.0,0.0,0.0,0.0,0.0,0.0,0.0,0.0,0.0,0.0,0.0,0.0,0.0,0.0,0.0,0.0,0.0,0.0,0.0,0.0,0.0,0.0,0.0,0.0,0.0,0.0,0.0,0.0,0.0,0.0,0.0,0.0,0.0,0.0,0.0,0.0,0.0,0.0,0.0,0.0,0.0,0.0,0.0,0.0,0.0,0.0,0.0,0.0,0.0,0.0,0.0,0.0,0.0,0.0,-2.3877,-2.3822,-2.3409,-2.2614,-2.2804,-2.2744,-2.239,-2.1083,0.0,0.0,0.0,0.0,0.0,0.0,0.0,0.0,0.0,0.0,0.0,0.0,0.0,0.0,0.0,0.0,0.0,0.0,0.0,0.0,0.0,0.0,0.0,0.0,0.0,0.0,0.0,-0.2886,0.0,0.0,0.0,0.0,0.0,0.0,0.0,0.0,0.0,0.0,0.0,0.0,0.0,0.0,-2.4839,-2.4782,-2.4091,-2.3546,0.0,0.0,-2.1419,-2.1901,-2.0334,-1.8835,0.0,0.0,0.0,0.0,0.0,0.0,0.0,0.0,0.0,0.0,0.0,0.0,0.0,0.0,0.0,0.0,0.0,0.0,0.0,0.0,0.0,0.0,0.0,0.0,0.0,0.0,0.0,0.0,0.0,0.0,0.0,0.0,0.0,0.0,0.0,0.0,0.0,0.0,0.0,0.0,0.0,0.0,0.0,0.0,0.0,0.0,0.0,0.0,0.0,0.0,0.0,0.0,0.0,0.0,0.0,-2.303,-2.3525,-2.3103,-2.1762,-2.2473,-2.2753,-2.2381,-2.0609,-1.8608,0.0,0.0,0.0,0.0,0.0,0.0,0.0,0.0,0.0,0.0,0.0,0.0,0.0,0.0,0.0,0.0,0.0,0.0,0.0,0.0,0.0,0.0,0.0,0.0,0.0,0.0,0.0,0.0,0.0,0.0,0.0,0.0,0.0,0.0,0.0,0.0,0.0,0.0,0.0,0.0,0.0,-2.3339,-2.3811,-2.3658,-2.3181,0.0,0.0,-2.1795,-2.1171,-1.9883,-1.8732,-1.8194,0.0,0.0,0.0,0.0,0.0,0.0,0.0,0.0,0.0,0.0,0.0,0.0,0.0,0.0,0.0,0.0,0.0,0.0,0.0,0.0,0.0,0.0,0.0,0.0,0.0,0.0,0.0,0.0,0.0,0.0,0.0,0.0,0.0,0.0,0.0,0.0,0.0,0.0,0.0,0.0,0.0,0.0,0.0,0.0,0.0,0.0,0.0,0.0,0.0,0.0,0.0,0.0,0.0,-2.4101,-2.2933,-2.3136,-2.2465,-2.0939,-2.116,-2.1182,-2.0932,-1.9832,-1.8306,0.0,0.0,0.0,0.0,0.0,0.0,0.0,0.0,0.0,0.0,0.0,0.0,0.0,0.0,0.0,0.0,0.0,0.0,0.0,0.0,0.0,0.0,0.0,0.0,0.0,0.0,0.0,0.0,-1.1755,-1.1716,-1.194,0.0,0.0,0.0,0.0,0.0,0.0,0.0,0.0,0.0,0.0,-2.295,-2.2779,-2.2834,0.0,0.0,-2.1946,-2.1607,-2.1078,-2.034,-1.9399,-1.8084,-1.7558,0.0,0.0,0.0,0.0,0.0,0.0,0.0,0.0,0.0,0.0,0.0,0.0,0.0,0.0,0.0,0.0,0.0,0.0,0.0,0.0,0.0,0.0,0.0,0.0,0.0,0.0,0.0,0.0,0.0,0.0,0.0,0.0,0.0,0.0,0.0,0.0,0.0,0.0,0.0,0.0,0.0,0.0,0.0,0.0,0.0,0.0,0.0,0.0,0.0,0.0,0.0,0.0,-2.3946,-2.2955,-2.268,-2.1847,-2.0451,-2.0351,-2.021,-1.9994,-1.9246,-1.8082,0.0,0.0,0.0,0.0,0.0,0.0,0.0,0.0,0.0,0.0,0.0,0.0,0.0,0.0,0.0,0.0,0.0,0.0,0.0,0.0,0.0,0.0,0.0,0.0,0.0,0.0,0.0,0.0,-1.3078,-1.2658,-1.3933,0.0,0.0,0.0,0.0,0.0,0.0,0.0,0.0,0.0,0.0,-2.2259,-2.2303,-2.2424,-2.2462,-2.2322,-2.2136,-2.1808,-2.1331,-2.07,-1.9927,-1.8843,0.0,0.0,0.0,0.0,0.0,0.0,0.0,0.0,0.0,0.0,0.0,0.0,0.0,0.0,0.0,0.0,0.0,0.0,0.0,0.0,0.0,0.0,0.0,0.0,0.0,0.0,0.0,-1.3684,0.0,0.0,-1.2797,0.0,0.0,0.0,0.0,0.0,0.0,0.0,0.0,0.0,0.0,0.0,0.0,0.0,0.0,0.0,0.0,0.0,0.0,0.0,0.0,0.0,0.0,-2.3458,-2.3078,-2.2214,-2.133,-2.0516,-2.0369,-2.0206,-1.9992,-1.9031,-1.7974,-1.6763,0.0,0.0,0.0,0.0,0.0,0.0,0.0,0.0,0.0,0.0,0.0,0.0,0.0,0.0,0.0,0.0,0.0,0.0,0.0,0.0,0.0,0.0,0.0,0.0,0.0,0.0,-1.5124,-1.4227,-1.3714,0.0,0.0,0.0,0.0,0.0,0.0,0.0,0.0,0.0,0.0,-2.2585,-2.1033,-2.256,-2.2615,-2.2473,-2.2297,-2.2632,-2.2621,-2.1879,-2.0813,-2.0236,0.0,0.0,0.0,0.0,0.0,0.0,0.0,0.0,0.0,0.0,0.0,0.0,0.0,0.0,0.0,0.0,0.0,0.0,0.0,0.0,0.0,0.0,0.0,0.0,0.0,0.0,0.0,-1.4505,-1.4815,0.0,0.0,0.0,0.0,0.0,0.0,0.0,0.0,0.0,0.0,0.0,-2.1531,-2.0864,0.0,0.0,0.0,0.0,0.0,0.0,0.0,0.0,0.0,0.0,0.0,0.0,-2.3407,-2.3017,-2.2196,-2.1362,-2.0537,-2.0409,-2.024,-2.0002,-1.9035,-1.744,-1.5213,0.0,0.0,0.0,0.0,0.0,0.0,0.0,0.0,0.0,0.0,0.0,0.0,0.0,0.0,0.0,0.0,0.0,0.0,0.0,0.0,0.0,0.0,0.0,0.0,0.0,-1.524,0.0,0.0,0.0,0.0,0.0,0.0,0.0,0.0,0.0,0.0,0.0,-2.5164,-2.5581,-2.3648,-2.2348,-2.274,-2.2788,-2.2495,0.0,0.0,0.0,0.0,0.0,0.0,0.0,0.0,0.0,0.0,0.0,0.0,0.0,0.0,-1.9988,-2.04,-2.1234,-2.1953,-2.2262,0.0,0.0,0.0,0.0,0.0,0.0,0.0,0.0,0.0,0.0,0.0,0.0,0.0,0.0,-1.5383,0.0,-1.5368,0.0,0.0,0.0,0.0,0.0,0.0,0.0,0.0,-2.0468,-2.0705,-2.1007,-2.0212,-1.9739,0.0,-1.9061,-1.856,0.0,0.0,0.0,0.0,0.0,0.0,0.0,0.0,-2.2988,-2.2971,-2.1894,-2.1044,-2.0527,-2.0418,-2.0235,-1.9967,-1.8797,-1.709,-1.4793,-1.3507,-1.2113,0.0,0.0,0.0,0.0,0.0,0.0,0.0,0.0,0.0,0.0,0.0,0.0,0.0,0.0,0.0,0.0,0.0,0.0,0.0,0.0,0.0,0.0,0.0,-1.7696,0.0,0.0,0.0,0.0,0.0,0.0,0.0,0.0,0.0,-2.479,-2.5268,-2.5609,-2.5693,-2.4213,-2.3284,-2.3754,0.0,0.0,0.0,0.0,0.0,0.0,0.0,-2.2208,-2.159,-2.0819,-1.9952,-1.9011,-1.8432,-1.8346,-1.9087,0.0,0.0,-2.1234,-2.1893,-2.2319,-2.2319,-2.2319,-2.2552,-2.3363,-2.3908,-2.4149,0.0,0.0,0.0,0.0,0.0,0.0,0.0,0.0,-1.5889,-1.5963,0.0,-1.6074,0.0,0.0,0.0,0.0,0.0,-1.8212,0.0,0.0,-2.0172,-2.025,-1.9908,-1.9536,-1.9214,-1.8839,-1.8534,-1.822,-1.7935,-1.8023,0.0,0.0,0.0,0.0,0.0,0.0,-2.222,-2.2987,-2.1328,-2.0435,-2.0484,-2.0375,-2.0164,-1.9859,-1.8405,-1.6961,-1.5563,-1.4436,-1.2954,-1.101,-1.0532,0.0,0.0,0.0,0.0,0.0,0.0,0.0,0.0,0.0,0.0,0.0,0.0,0.0,0.0,0.0,0.0,0.0,0.0,0.0,0.0,-1.9877,0.0,0.0,0.0,0.0,0.0,0.0,0.0,0.0,0.0,0.0,-2.3456,-2.459,-2.5644,-2.5693,0.0,0.0,0.0,0.0,-2.3444,-2.4764,-2.4853,-2.4563,-2.4128,-2.2964,-2.1599,-2.0187,0.0,0.0,-1.7979,-1.8322,-1.8675,-1.8836,-1.9098,-1.9926,-2.1735,-2.215,-2.2304,-2.2313,-2.2304,-2.2303,-2.2393,-2.3179,-2.3861,-1.5538,0.0,0.0,0.0,0.0,-1.4392,-1.4243,-1.4317,-1.4657,-1.4741,-1.4636,-1.5139,0.0,0.0,0.0,0.0,0.0,0.0,-1.7773,-1.8301,-1.8566,-1.8599,-1.8488,-1.7857,-1.7655,-1.7754,-1.7653,-1.7646,-1.7778,-1.8138,-1.8668,-1.9419,0.0,0.0,0.0,0.0,-2.2361,-2.2627,-2.1201,-2.0414,-2.0419,-2.0347,-2.0056,-1.9547,-1.8521,-1.7282,-1.5829,-1.5044,-1.3684,-1.1625,-1.1223,0.0,0.0,0.0,0.0,0.0,0.0,0.0,0.0,0.0,0.0,0.0,0.0,0.0,0.0,0.0,0.0,0.0,0.0,0.0,-2.1788,-2.1034,-2.0325,0.0,0.0,0.0,0.0,0.0,0.0,0.0,0.0,0.0,-2.3354,-2.3536,-2.4307,0.0,0.0,-2.4723,-2.403,-2.3891,-2.3815,-2.3569,-2.3371,0.0,-2.2816,-2.2147,-2.1072,-1.9307,-1.8884,-1.878,-1.8618,-1.7732,-1.7164,-1.7661,-1.8067,-1.8516,-1.9038,-2.0874,-2.2168,-2.2306,-2.2306,-2.2306,-2.2311,-2.2086,-2.2019,-1.4553,-1.423,-1.433,-1.4544,-1.4807,-1.4042,-1.3738,-1.3779,-1.3581,-1.3643,-1.39,-1.4163,-1.4254,-1.4304,-1.5386,0.0,0.0,0.0,-1.6684,-1.7064,-1.7279,-1.7355,-1.7255,-1.6791,-1.6698,-1.689,-1.6778,-1.6932,-1.7287,-1.7342,-1.8045,-1.9325,0.0,0.0,-2.1932,-2.1545,-2.1617,-2.2046,-2.0889,-2.028,-2.0352,-2.0197,-1.9869,-1.9395,-1.8556,-1.7409,-1.5959,-1.5307,-1.4028,-1.1909,-1.1608,-1.1129,0.0,0.0,0.0,0.0,0.0,0.0,0.0,0.0,0.0,0.0,0.0,-0.9257,0.0,0.0,0.0,0.0,-2.0128,-2.1925,-2.2999,-2.2106,0.0,0.0,0.0,0.0,0.0,0.0,0.0,-2.3082,-2.3744,-2.3988,-2.3231,-2.3124,-2.3506,-2.457,-2.4687,-2.4316,-2.3342,0.0,-2.3228,-2.2969,-2.274,-2.2565,-2.2464,-2.1661,-2.0471,-1.8726,-1.8508,-1.8464,-1.8255,-1.7354,-1.6833,-1.705,-1.7307,-1.7539,-1.7756,-1.9328,-2.0508,-2.0518,-2.0509,-2.0518,-2.0516,-2.0636,-2.1001,-1.361,-1.3257,-1.4265,-1.4693,-1.46,-1.3645,-1.3227,-1.314,-1.2716,-1.2754,-1.3085,-1.3214,-1.361,-1.4305,-1.4649,0.0,-1.5591,-1.5561,-1.5657,-1.5936,-1.6279,-1.6331,-1.6156,-1.6191,-1.6199,-1.6176,-1.5934,-1.6106,-1.6608,-1.6083,-1.6814,-1.8752,-1.9422,-1.9992,-2.0483,-2.0141,-2.0405,-2.1327,-2.0451,-2.0092,-2.0273,-1.9974,-1.966,-1.9378,-1.8556,-1.7418,-1.5943,-1.5264,-1.395,-1.1867,-1.1754,-1.1265,-1.0193,0.0,0.0,0.0,0.0,0.0,0.0,0.0,0.0,0.0,0.0,0.0,0.0,0.0,0.0,0.0,-2.2614,0.0,-2.3708,-2.2976,0.0,0.0,0.0,-2.127,-2.0966,-2.2257,-2.2485,-2.0696,0.0,0.0,-2.2923,-2.3052,-2.3076,-2.2998,-2.293,-2.292,-2.2978,-2.2325,-2.2061,-2.274,-2.261,-2.2441,-2.2328,-2.1244,-1.9862,-1.8553,-1.8229,-1.8065,-1.7542,-1.7337,-1.7167,-1.6934,-1.6807,-1.6933,-1.7535,-1.7796,-1.7805,-1.7955,-1.7914,-1.7872,-1.8054,-1.9261,-2.0335,-1.3439,-1.2696,-1.2946,-1.3094,-1.3053,-1.2818,-1.2505,-1.2176,-1.2059,-1.2053,-1.215,-1.2575,-1.3266,-1.4162,-1.4235,-1.4368,-1.4462,-1.4394,-1.4365,-1.4445,-1.4811,-1.4959,-1.4925,-1.5257,-1.5389,-1.5396,-1.5668,-1.6025,-1.6371,-1.6007,-1.6433,-1.7641,-1.8101,-1.9141,-2.0719,-2.0463,-2.0541,-2.1102,-2.0363,-2.0021,-2.0057,-1.9902,-1.9629,-1.9236,-1.851,-1.7426,-1.5943,-1.4972,-1.3415,-1.1254,-1.1302,-1.0705,-0.9146,-0.8607,0.0,0.0,0.0,0.0,0.0,0.0,0.0,0.0,0.0,-1.1424,-1.2926,0.0,-1.9225,0.0,-2.2445,-2.3371,-2.3508,-2.2379,0.0,0.0,-2.158,-2.1488,-2.1901,-2.1975,-2.2061,-2.2205,-2.2159,-2.1886,-2.1284,-2.2306,-2.2641,-2.1416,-2.1221,-2.1201,-2.1221,-2.1595,-2.1845,-2.1911,-2.1423,-2.0925,-2.0894,-2.0173,-1.9323,-1.8622,-1.8508,-1.833,-1.7777,-1.7471,-1.7256,-1.7175,-1.6952,-1.6707,-1.637,-1.7067,-1.7736,-1.7788,-1.7778,-1.7805,-1.7812,-1.822,-1.8737,-1.2858,-1.2189,-1.2169,-1.206,-1.1827,-1.1856,-1.1689,-1.1436,-1.1212,-1.1255,-1.1484,-1.2011,-1.2552,-1.3082,-1.3281,-1.338,-1.3397,-1.3521,-1.3699,-1.3912,-1.4122,-1.4308,-1.4524,-1.4724,-1.4706,-1.4502,-1.4979,-1.5138,-1.5027,-1.6123,-1.6694,-1.6669,-1.7412,-1.8439,-1.9635,-1.9631,-1.987,-2.0364,-2.0063,-1.9953,-1.9974,-1.9371,-1.9003,-1.8947,-1.7766,-1.6567,-1.5417,-1.448,-1.2883,-1.0589,-1.0632,-1.0142,-0.8806,-0.822,-0.7244,0.0,0.0,0.0,0.0,0.0,0.0,0.0,0.0,0.0,0.0,0.0,-1.9456,-2.0871,-2.1889,-2.263,-2.3059,-2.2154,-2.1498,-2.147,-2.1161,-2.116,-2.1659,-2.1167,-2.1022,-2.1613,-2.1458,-2.1103,-2.0598,-2.1376,-2.166,-2.0723,-2.0596,-2.0596,-2.0625,-2.097,-2.1201,-2.1113,-2.0701,-2.0299,-2.0039,-1.9608,-1.9151,-1.8699,-1.8576,-1.843,-1.7892,-1.7517,-1.7312,-1.7288,-1.7035,-1.6599,-1.5975,-1.6694,-1.7522,-1.7746,-1.7789,-1.78,-1.7784,-1.7794,-1.8049,-1.2105,-1.1606,-1.1608,-1.1239,-1.0709,-1.0718,-1.0743,-1.0791,-1.0346,-1.0462,-1.0948,-1.1462,-1.1684,-1.1737,-1.2186,-1.2401,-1.2425,-1.2832,-1.3273,-1.373,-1.3736,-1.3885,-1.4216,-1.4269,-1.4037,-1.3536,-1.4084,-1.3983,-1.3469,-1.5998,-1.6746,-1.5828,-1.6934,-1.7664,-1.7913,-1.8179,-1.8748,-1.9582,-1.9632,-1.9687,-1.9763,-1.8584,-1.8071,-1.8257,-1.6714,-1.5421,-1.4537,-1.3774,-1.2259,-0.9925,-0.9789,-0.938,-0.8447,-0.7647,-0.7152,0.0,-0.7836,0.0,0.0,0.0,0.0,0.0,0.0,0.0,0.0,-1.7594,-1.9042,-2.0552,-2.1262,-2.1866,-2.2441,-2.1892,-2.1273,-2.0755,-2.0495,-2.0492,-2.0775,-2.0222,-1.992,-2.026,-2.0298,-2.0315,-2.039,-2.049,-2.057,-2.0596,-2.0596,-2.0596,-2.0596,-2.0567,-2.0518,-2.0414,-2.0384,-2.0222,-1.9733,-1.9393,-1.9063,-1.8681,-1.8538,-1.8371,-1.7892,-1.7581,-1.736,-1.7336,-1.7093,-1.6708,-1.6144,-1.6669,-1.7244,-1.7718,-1.7789,-1.7789,-1.7789,-1.7799,-1.7959,-1.1382,-1.05,-1.0502,-0.9977,-0.9158,-0.9164,-0.939,-0.979,-0.9677,-0.9957,-1.0462,-1.0929,-1.1159,-1.1207,-1.1699,-1.1952,-1.192,-1.2029,-1.2312,-1.2789,-1.2755,-1.2761,-1.2833,-1.3129,-1.2993,-1.2557,-1.3193,-1.3594,-1.3693,-1.4272,-1.4823,-1.531,-1.579,-1.6145,-1.6409,0.0,0.0,0.0,-1.9089,-1.8796,-1.8667,-1.7671,-1.6915,-1.6448,-1.5844,0.0,-1.3549,-1.2548,-1.1283,-0.9643,-0.8713,0.0,0.0,0.0,0.0,0.0,0.0,0.0,0.0,0.0,0.0,0.0,-1.5519,-1.5883,-1.675,-1.8762,-2.0458,-2.1437,-2.107,-2.1075,-2.1849,-2.0613,-1.9721,-1.962,-1.9555,-1.9656,-1.9969,-1.9884,-1.993,-2.026,-2.0298,-2.0304,-2.0324,-2.0341,-2.0422,-2.0572,-2.0603,-2.0596,-2.0596,-2.0496,-2.0422,-2.0412,-2.0313,-2.0123,-1.9677,-1.9105,-1.86,-1.8589,-1.8402,-1.8132,-1.7793,-1.7707,-1.7679,-1.7622,-1.7432,-1.7238,-1.734,-1.7266,-1.7178,-1.7693,-1.778,-1.7789,-1.7789,-1.7791,-1.7842,-1.0421,0.0,-0.9468,-0.9172,0.0,-0.8414,-0.8476,-0.872,-0.8994,-0.9239,-0.9518,-0.9748,-0.9856,-0.9884,-1.0659,-1.1002,-1.1035,-1.1542,-1.181,-1.179,-1.1826,-1.1771,-1.1696,-1.1753,-1.1657,-1.1486,-1.1824,-1.2137,-1.2393,-1.284,-1.3542,-1.4446,-1.4975,-1.5429,-1.58,-1.615,-1.6995,-1.8416,-1.7988,-1.7785,-1.7748,-1.6624,-1.5953,-1.5783,-1.474,0.0,0.0,0.0,0.0,0.0,0.0,0.0,0.0,0.0,0.0,-0.8752,-0.9106,-0.9247,-0.9053,-1.1213,-1.352,-1.5609,-1.6483,-1.713,-1.7684,-1.9155,-2.0227,-2.0643,-2.0372,-2.0271,-2.05,-1.9869,-1.9413,-1.9311,-1.9295,-1.9414,-1.9638,-1.9771,-1.9946,-2.0231,-2.0289,-2.0301,-2.0291,-2.0294,-2.037,-2.0562,-2.0596,-2.0576,-2.0586,-2.0482,-2.0384,-2.0315,-1.9792,-1.9477,-1.9324,-1.8161,-1.7448,-1.7602,-1.76,-1.7279,-1.68,-1.6898,-1.6978,-1.6762,-1.6567,-1.6715,-1.7522,-1.7058,-1.6646,-1.7531,-1.7796,-1.7782,-1.7791,-1.7802,-1.7779,-0.9144,-0.8358,-0.8222,-0.8144,-0.802,-0.7634,-0.7443,-0.7489,0.0,0.0,0.0,-0.8683,-0.8683,-0.8756,-0.957,-0.9923,-0.9973,-1.0871,-1.1107,-1.0841,-1.086,-1.0804,-1.0732,-1.0471,-1.0396,-1.0479,-1.0518,-1.0677,-1.0927,-1.1782,-1.2642,-1.35,-1.4205,-1.4768,-1.5241,-1.5645,-1.61,-1.6638,-1.6693,-1.6736,-1.6836,-1.5564,-1.5007,-1.527,-1.3732,-1.2658,-1.2146,-1.1535,-1.0517,-0.909,-0.9128,-0.8526,-0.7055,-0.8326,-0.9419,-0.9988,-0.9732,-0.9672,-0.9893,-1.1839,-1.3891,-1.5842,-1.6893,-1.7787,-1.8538,-1.92,-1.9596,-1.9596,-1.9732,-1.9693,-1.9459,-1.9503,-1.9541,-1.9374,-1.9329,-1.938,-1.9613,-1.9735,-1.9935,-2.0222,-2.0292,-2.0311,-2.032,-2.0294,-2.037,-2.0494,-2.024,-2.0146,-2.0145,-2.0068,-2.008,-1.9949,-1.9238,-1.8723,-1.8713,-1.7318,-1.6169,-1.65,-1.6651,-1.6442,-1.5893,-1.5849,-1.5894,-1.5784,-1.5604,-1.6121,-1.7049,-1.655,-1.6053,-1.6855,-1.7481,-1.7695,-1.7478,-1.7646,-1.7782,-0.734,-0.7033,-0.6521,-0.6012,-0.5603,-0.5648,-0.569,-0.5773,-0.7346,-0.8275,-0.8683,-0.8684,-0.868,-0.8679,-0.8839,-0.8911,-0.8933,-0.9147,-0.9434,-0.9822,-0.9874,-0.9864,-0.9794,-0.9755,-0.9683,-0.959,-0.9804,-1.025,-1.092,-1.1542,-1.2172,-1.2727,-1.3045,-1.3427,-1.3858,-1.3953,-1.4194,-1.4631,-1.5428,-1.5788,-1.5628,-1.4623,-1.3922,-1.3633,-1.3182,-1.2426,-1.1488,-1.1005,-1.0353,-0.9392,-0.9039,-0.8728,-0.8527,-0.9278,-0.9809,-0.9937,-1.0335,-1.0123,-0.9139,-1.185,-1.4486,-1.6419,-1.6838,-1.7394,-1.8494,-1.9209,-1.9596,-1.9596,-1.9744,-1.9847,-1.9877,-1.9716,-1.9605,-1.9532,-1.9394,-1.9419,-1.9735,-1.9788,-1.992,-2.0227,-2.0296,-2.0294,-2.0224,-2.0158,-2.0123,-2.0231,-1.9274,-1.8368,-1.8552,-1.8914,-1.926,-1.9148,-1.8704,-1.8412,-1.8009,-1.6671,-1.5555,-1.5561,-1.5983,-1.6006,-1.5435,-1.5092,-1.5022,-1.5432,-1.5316,-1.5558,-1.5891,-1.614,-1.553,-1.4833,-1.5965,-1.7098,-1.6161,-1.6747,-1.7595,-0.6102,-0.5745,-0.5485,-0.522,-0.5003,-0.5031,-0.5072,-0.5153,-0.5909,-0.6683,-0.7297,-0.7367,-0.7363,-0.7377,-0.7797,-0.7829,-0.7506,-0.8027,-0.837,-0.8625,-0.8645,-0.8746,-0.8853,-0.8649,-0.8847,-0.9366,-0.9298,-0.983,-1.0866,-1.1432,-1.201,-1.261,-1.2982,-1.3312,-1.3577,-1.361,-1.3552,-1.347,-1.4306,-1.4729,-1.4724,-1.409,-1.3584,-1.332,-1.2933,-1.219,-1.1005,-1.054,-0.9902,-0.9002,-0.8979,-0.911,-0.939,-0.9724,-0.9873,-0.9921,-1.0159,-1.0024,-0.9428,-1.2809,-1.5236,-1.6191,-1.6592,-1.7314,-1.8504,-1.9225,-1.9613,-1.9701,-1.9919,-2.005,-2.0009,-1.9905,-1.9778,-1.971,-1.9625,-1.9641,-1.9767,-1.9869,-1.9935,-2.0039,-2.0192,-1.9971,-1.9087,-1.8217,-1.8543,-1.9714,-1.8326,-1.698,-1.7696,-1.7801,-1.7917,-1.8142,-1.7692,-1.6941,-1.6356,-1.5489,-1.4774,-1.4624,-1.4659,-1.4504,-1.4007,-1.3464,-1.316,-1.3193,-1.3532,-1.3999,-1.4324,-1.4561,-1.4241,-1.3957,-1.4266,-1.4952,-1.4664,-1.5003,-1.5896,-0.5159,-0.4904,-0.4548,-0.442,-0.4504,-0.4504,-0.4501,-0.4501,-0.4509,-0.4882,-0.5467,-0.5753,-0.5922,-0.5982,-0.6567,-0.6611,-0.6423,-0.7025,-0.7378,-0.7458,-0.7582,-0.7774,-0.7996,-0.7783,-0.8246,-0.9149,-0.8958,-0.9514,-1.0791,-1.1161,-1.1548,-1.2111,-1.2631,-1.2902,-1.2921,-1.2976,-1.2788,-1.242,-1.29,-1.3282,-1.3537,-1.3243,-1.2961,-1.2748,-1.2287,-1.153,-1.046,-1.0015,-0.9396,-0.8597,-0.8705,-0.9137,-0.984,-0.9728,-0.9729,-0.9868,-0.9887,-0.9982,-1.0346,-1.3111,-1.5084,-1.5558,-1.6471,-1.7418,-1.8306,-1.9091,-1.9611,-1.9805,-2.0098,-2.0233,-2.0097,-2.0022,-1.9963,-1.9858,-1.9813,-1.9821,-1.9847,-1.9944,-2.0003,-1.9944,-2.0132,-1.9561,-1.7624,-1.6182,-1.6493,-1.8141,-1.7173,-1.6421,-1.7057,-1.6692,-1.6617,-1.6793,-1.6473,-1.5763,-1.4709,-1.4269,-1.3944,-1.3583,-1.3586,-1.3275,-1.256,-1.1582,-1.118,-1.1253,-1.1735,-1.2543,-1.3196,-1.3461,-1.3527,-1.353,-1.3718,-1.3549,-1.3582,-1.3585,-1.4288,-0.4403,-0.4675,-0.3414,-0.3052,-0.3231,-0.324,-0.3234,-0.3236,-0.3248,-0.3287,-0.3492,-0.4545,-0.4993,-0.502,-0.5118,-0.5323,-0.5565,-0.5798,-0.6086,-0.6486,-0.6927,-0.7187,-0.7262,-0.7525,-0.8114,-0.8755,-0.878,-0.9432,-1.0721,-1.0433,-1.0433,-1.0703,-1.1108,-1.1212,-1.0982,-1.1122,-1.1144,-1.1076,-1.0953,-1.115,-1.162,-1.1502,-1.1327,-1.1111,-1.0687,-1.0152,-0.9552,-0.9306,-0.8907,-0.8378,-0.7999,-0.8464,-0.9602,-0.9266,-0.92,-0.9843,-0.9912,-1.0245,-1.1012,-1.1728,-1.3024,-1.4698,-1.6474,-1.7575,-1.7796,-1.8739,-1.9467,-1.9686,-2.006,-2.0286,-2.0249,-2.0106,-2.0022,-1.9983,-1.9824,-1.9847,-1.9897,-1.9984,-2.0058,-2.025,-2.0166,-1.9117,-1.6332,-1.551,-1.5588,-1.6233,-1.658,-1.6334,-1.5891,-1.5692,-1.5557,-1.556,-1.5235,-1.5051,-1.47,-1.3841,-1.3059,-1.2511,-1.3157,-1.2907,-1.1738,-1.0359,-0.9478,-1.0553,-1.1104,-1.1719,-1.2572,-1.3407,-1.3454,-1.3225,-1.3255,-1.3454,-1.3412,-1.3456,-1.4229,-0.1789,-0.1927,-0.1344,-0.1151,-0.1278,-0.128,-0.128,-0.1245,-0.1279,-0.1459,-0.1849,-0.2342,-0.3219,-0.4398,-0.4431,-0.4406,-0.4406,-0.461,-0.5024,-0.5634,-0.5877,-0.6368,-0.7061,-0.6993,-0.7457,-0.8242,-0.8043,-0.8577,-0.9643,-0.992,-1.0165,-1.0503,-1.0495,-1.0495,-1.0583,-1.0559,-1.034,-0.9911,-0.9929,-0.9792,-0.9593,-1.0371,-1.0729,-1.0487,-1.0177,-0.968,-0.8974,-0.8591,-0.8104,-0.7534,-0.7512,-0.7647,-0.7936,-0.8781,-0.9638,-1.0399,-1.0606,-1.0765,-1.1003,-1.1807,-1.2551,-1.3259,-1.4464,-1.564,-1.6865,-1.8712,-1.9503,-1.8646,-1.9505,-2.0302,-2.0256,-2.0204,-2.0188,-2.0103,-1.9685,-1.9342,-1.9402,-1.8952,-1.9001,-1.9988,-1.938,-1.7949,-1.5913,-1.5357,-1.5405,-1.5422,-1.5852,-1.582,-1.5399,-1.5255,-1.5187,-1.5079,-1.457,-1.4311,-1.4479,-1.3934,-1.2576,-1.1323,-1.1798,-1.2222,-1.0982,-0.9784,-0.918,-0.9764,-1.0229,-1.0472,-1.0479,-1.2314,-1.3201,-1.2634,-1.3385,-1.4047,-1.4056,-1.4051,-1.4403,0.0827,0.0826,0.0772,0.0721,0.0731,0.0731,0.0731,0.0731,0.0732,0.0499,0.0067,-0.0167,-0.1268,-0.2883,-0.3474,-0.357,-0.3381,-0.3546,-0.4045,-0.4781,-0.4991,-0.5606,-0.6449,-0.6444,-0.6837,-0.7528,-0.7452,-0.7875,-0.8875,-0.9311,-0.9607,-0.9679,-0.949,-0.9498,-0.9632,-0.9569,-0.925,-0.8728,-0.8869,-0.8657,-0.8221,-0.92,-0.9758,-0.9544,-0.943,-0.898,-0.8184,-0.7855,-0.745,-0.687,-0.7047,-0.7018,-0.6712,-0.8183,-0.9535,-1.0516,-1.0855,-1.1051,-1.1138,-1.1932,-1.2415,-1.2514,-1.3065,-1.4157,-1.5896,-1.7693,-1.8277,-1.7767,-1.8335,-1.8944,-1.9571,-1.959,-1.9581,-1.9533,-1.8982,-1.8636,-1.8597,-1.8049,-1.8226,-1.9233,-1.8503,-1.7103,-1.5734,-1.5358,-1.5387,-1.5373,-1.536,-1.5338,-1.5343,-1.5195,-1.5033,-1.4768,-1.4014,-1.3937,-1.4409,-1.339,-1.181,-1.0533,-1.0625,-1.0952,-1.0131,-0.9318,-0.8953,-0.9424,-0.9715,-0.9838,-0.9786,-1.1134,-1.2112,-1.1012,-1.1789,-1.3877,-1.4338,-1.4443,-1.4419,0.2959,0.2872,0.2655,0.2487,0.2555,0.2521,0.2558,0.2418,0.2523,0.2525,0.2245,0.1512,0.0675,-0.0341,-0.1923,-0.2703,-0.2735,-0.2747,-0.3154,-0.3887,-0.4473,-0.4902,-0.513,-0.5734,-0.6314,-0.6868,-0.7033,-0.7585,-0.8431,-0.8509,-0.8214,-0.7603,-0.776,-0.7694,-0.7513,-0.7604,-0.7534,-0.7394,-0.7574,-0.7642,-0.7621,-0.7871,-0.7988,-0.7907,-0.7997,-0.7735,-0.7132,-0.715,-0.7042,-0.6627,-0.6643,-0.6626,-0.6685,-0.7427,-0.8589,-0.987,-1.0285,-1.0842,-1.1577,-1.1794,-1.2115,-1.2751,-1.3172,-1.3955,-1.5138,-1.5327,-1.5901,-1.7345,-1.6447,-1.6429,-1.7597,-1.8036,-1.801,-1.7953,-1.7837,-1.7751,-1.776,-1.758,-1.768,-1.7806,-1.7606,-1.6829,-1.5476,-1.5363,-1.536,-1.534,-1.5344,-1.5321,-1.5173,-1.5106,-1.4695,-1.4032,-1.3686,-1.3893,-1.4605,-1.3094,-1.1004,-0.9848,-0.9566,-0.9563,-0.9269,-0.9033,-0.9042,-0.905,-0.9255,-0.9342,-0.9277,-0.9487,-0.995,-1.0032,-1.0891,-1.2383,-1.3123,-1.4163,-1.4441,0.3153,0.3108,0.3181,0.3212,0.3226,0.345,0.3372,0.3074,0.3076,0.2854,0.2512,0.2152,0.1781,0.134,0.0159,-0.0923,-0.1757,-0.181,-0.2191,-0.289,-0.3276,-0.3918,-0.4704,-0.4721,-0.5101,-0.5806,-0.5913,-0.6355,-0.7086,-0.6914,-0.6555,-0.6127,-0.5879,-0.5797,-0.5959,-0.6104,-0.6209,-0.6307,-0.6452,-0.6521,-0.6574,-0.6398,-0.6276,-0.6314,-0.7042,-0.7223,-0.6731,-0.6788,-0.6664,-0.636,-0.6494,-0.6679,-0.6972,-0.8307,-0.9709,-1.0887,-1.0716,-1.0858,-1.1612,-1.1553,-1.1792,-1.2618,-1.3151,-1.3613,-1.4183,-1.4441,-1.4929,-1.5609,-1.5613,-1.5597,-1.6118,-1.707,-1.7595,-1.7246,-1.7038,-1.6923,-1.6811,-1.6465,-1.6115,-1.6108,-1.6088,-1.5811,-1.5505,-1.5281,-1.5317,-1.5321,-1.5362,-1.5127,-1.4612,-1.4395,-1.4038,-1.3039,-1.2314,-1.2137,-1.3058,-1.2048,-1.0619,-0.9805,-0.9348,-0.9261,-0.9052,-0.9149,-0.9175,-0.9174,-0.9204,-0.9284,-0.9356,-0.9475,-0.9583,-0.9773,-1.0655,-1.1004,-1.1296,-1.2591,-1.3661,0.33,0.3301,0.3389,0.3411,0.3414,0.3689,0.3613,0.3253,0.3242,0.3015,0.2659,0.2525,0.2448,0.2281,0.1751,0.0995,-0.0053,-0.0666,-0.134,-0.1923,-0.2323,-0.3028,-0.3734,-0.3663,-0.3959,-0.4614,-0.4793,-0.5328,-0.6151,-0.5785,-0.5278,-0.4805,-0.4533,-0.4617,-0.4903,-0.5059,-0.5237,-0.5498,-0.5643,-0.574,-0.5728,-0.5572,-0.5376,-0.537,-0.6044,-0.6312,-0.5972,-0.6095,-0.6148,-0.604,-0.6284,-0.6626,-0.7151,-0.8545,-0.9728,-1.0362,-0.9954,-1.0321,-1.1501,-1.1423,-1.1645,-1.2606,-1.3112,-1.3458,-1.3683,-1.4067,-1.4474,-1.4831,-1.5089,-1.5201,-1.542,-1.6289,-1.6793,-1.6414,-1.6208,-1.6095,-1.6067,-1.5594,-1.5324,-1.5303,-1.5316,-1.5241,-1.5207,-1.5255,-1.5267,-1.5284,-1.5336,-1.4973,-1.4221,-1.3887,-1.3364,-1.2203,-1.1411,-1.1058,-1.1231,-1.0539,-1.0078,-0.9394,-0.9263,-0.9135,-0.9056,-0.9191,-0.9309,-0.9296,-0.9339,-0.9429,-0.9521,-0.9645,-0.9687,-0.9698,-0.9886,-1.0246,-1.0685,-1.1212,-1.2121,0.3592,0.3662,0.3432,0.3358,0.333,0.356,0.3399,0.3243,0.3163,0.3129,0.2955,0.2814,0.2673,0.2658,0.252,0.2536,0.2065,0.0598,-0.0384,-0.0842,-0.1612,-0.21,-0.2421,-0.2689,-0.3064,-0.3532,-0.3951,-0.4703,-0.5491,-0.4928,-0.4246,-0.3604,-0.3689,-0.3695,-0.4024,-0.4062,-0.4487,-0.4687,-0.4912,-0.5224,-0.5303,-0.5314,-0.5149,-0.4876,-0.4884,-0.4775,-0.4577,-0.5055,-0.5433,-0.5608,-0.5948,-0.6453,-0.7185,-0.8071,-0.8364,-0.8255,-0.8038,-0.9243,-1.1185,-1.128,-1.1611,-1.2776,-1.3172,-1.3409,-1.3712,-1.3885,-1.4178,-1.4672,-1.4992,-1.517,-1.5211,-1.54,-1.5492,-1.5266,-1.542,-1.542,-1.5326,-1.5294,-1.5265,-1.5219,-1.5195,-1.5201,-1.5193,-1.5212,-1.52,-1.5126,-1.4983,-1.4577,-1.3743,-1.345,-1.285,-1.1511,-1.0615,-1.0276,-0.9737,-0.9196,-0.9097,-0.8979,-0.9125,-0.9147,-0.9064,-0.9132,-0.9382,-0.943,-0.9549,-0.9632,-0.9642,-0.9737,-0.9704,-0.97,-0.9705,-0.9694,-1.0078,-1.049,-1.0508,0.4088,0.4136,0.4278,0.4308,0.4285,0.4357,0.4205,0.3853,0.362,0.3329,0.3005,0.288,0.2789,0.2707,0.2697,0.2703,0.2627,0.2039,0.1411,0.0617,0.0247,-0.033,-0.1005,-0.151,-0.2138,-0.2807,-0.3075,-0.3078,-0.2992,-0.2693,-0.1846,-0.0852,-0.1291,-0.1174,-0.0621,-0.1683,-0.228,-0.1993,-0.3481,-0.4323,-0.4299,-0.4025,-0.3855,-0.3832,-0.3478,-0.3115,-0.2885,-0.4098,-0.4861,-0.503,-0.5722,-0.6478,-0.7282,-0.802,-0.8228,-0.796,-0.7908,-0.8103,-0.9011,-1.0109,-1.1444,-1.2997,-1.3296,-1.3418,-1.3867,-1.3931,-1.415,-1.4632,-1.4897,-1.505,-1.5163,-1.5129,-1.5155,-1.5261,-1.5286,-1.5286,-1.5266,-1.5258,-1.5238,-1.5204,-1.5196,-1.5202,-1.5183,-1.5162,-1.4965,-1.4333,-1.3872,-1.3157,-1.2456,-1.2331,-1.1502,-0.9989,-0.9663,-0.9535,-0.9161,-0.8917,-0.8827,-0.8941,-0.9123,-0.9236,-0.9154,-0.9231,-0.9466,-0.9633,-0.9745,-0.9809,-0.9811,-0.978,-0.9739,-0.9679,-0.9651,-0.9636,-0.9617,-0.9653,-0.9695,0.4686,0.4606,0.4718,0.4692,0.4636,0.4739,0.4575,0.4228,0.4021,0.3737,0.3457,0.3333,0.3291,0.3303,0.3295,0.331,0.3321,0.3389,0.2981,0.2211,0.1841,0.1146,0.0131,-0.0501,-0.1028,-0.1572,-0.1682,-0.1543,-0.118,-0.0798,-0.0037,0.0889,0.0978,0.1225,0.1797,0.0177,-0.0536,-0.0359,-0.1481,-0.2399,-0.2554,-0.2105,-0.1738,-0.1704,-0.1399,-0.1142,-0.1067,-0.2372,-0.352,-0.4424,-0.5624,-0.6709,-0.7395,-0.7883,-0.8081,-0.793,-0.7761,-0.773,-0.8014,-0.9457,-1.1151,-1.2977,-1.3335,-1.3385,-1.38,-1.3915,-1.4297,-1.4532,-1.4677,-1.4851,-1.5021,-1.5046,-1.5103,-1.5271,-1.5287,-1.5292,-1.5293,-1.5256,-1.5243,-1.5247,-1.5253,-1.4976,-1.449,-1.4952,-1.4617,-1.3678,-1.2468,-1.1857,-1.1332,-1.1357,-1.0345,-0.9462,-0.9039,-0.8899,-0.8743,-0.8644,-0.8607,-0.886,-0.9168,-0.9265,-0.9287,-0.9504,-0.9731,-0.9843,-0.9958,-0.9966,-0.9965,-0.9841,-0.9766,-0.9692,-0.9554,-0.9421,-0.9304,-0.8981,-0.8949,0.5389,0.5121,0.4894,0.4706,0.4541,0.4741,0.468,0.4382,0.4275,0.4249,0.4202,0.3982,0.4022,0.4248,0.4134,0.4147,0.428,0.4232,0.4106,0.3705,0.3154,0.2231,0.1128,0.0565,0.0261,0.0175,0.0065,0.0021,0.0059,0.0445,0.1045,0.1767,0.2515,0.3271,0.2976,0.143,0.0683,0.0826,0.0636,0.0067,-0.0631,0.0202,0.0769,0.0984,0.126,0.1297,0.0762,-0.0517,-0.1974,-0.3676,-0.5795,-0.7022,-0.7414,-0.7643,-0.7784,-0.7789,-0.7445,-0.7475,-0.8051,-0.9245,-1.1034,-1.2804,-1.3268,-1.3554,-1.3608,-1.4024,-1.4293,-1.4394,-1.4493,-1.4635,-1.484,-1.4935,-1.508,-1.5255,-1.5259,-1.5234,-1.527,-1.5267,-1.528,-1.5263,-1.5233,-1.4646,-1.3129,-1.4118,-1.3931,-1.2902,-1.1405,-1.0892,-1.0936,-1.0797,-1.0257,-0.9511,-0.8703,-0.829,-0.8146,-0.8256,-0.8323,-0.8982,-0.9265,-0.9376,-0.9497,-0.9737,-0.9904,-1.002,-1.0093,-1.0107,-1.0057,-0.9926,-0.9697,-0.9491,-0.9331,-0.9152,-0.8999,-0.8817,-0.8546,0.5839,0.5676,0.5627,0.5547,0.5428,0.5175,0.4972,0.4835,0.447,0.4477,0.4514,0.4301,0.4393,0.4556,0.4408,0.4392,0.4591,0.462,0.4694,0.4709,0.4388,0.3505,0.2547,0.2136,0.1948,0.1887,0.1478,0.1481,0.1805,0.1693,0.1961,0.2432,0.2791,0.3501,0.4083,0.3339,0.3119,0.3051,0.2237,0.1754,0.1584,0.2188,0.2526,0.2479,0.401,0.398,0.2422,-0.0309,-0.2685,-0.4603,-0.616,-0.703,-0.7132,-0.7318,-0.7449,-0.7453,-0.7627,-0.7452,-0.743,-0.8712,-1.0752,-1.2884,-1.2949,-1.3144,-1.393,-1.3917,-1.4035,-1.4211,-1.4473,-1.4622,-1.4662,-1.4814,-1.5021,-1.5221,-1.5149,-1.5037,-1.5039,-1.5172,-1.5291,-1.5183,-1.4129,-1.3207,-1.2903,-1.2978,-1.3105,-1.21,-1.1104,-1.0316,-1.0605,-1.0601,-1.0222,-0.9192,-0.8382,-0.7904,-0.7643,-0.7787,-0.818,-0.9018,-0.9382,-0.9548,-0.9709,-0.9924,-1.0032,-1.0118,-1.0133,-1.015,-1.0073,-0.9968,-0.9682,-0.9451,-0.9285,-0.9198,-0.9201,-0.9076,-0.863,0.6459,0.6298,0.6224,0.613,0.5982,0.5603,0.5422,0.5379,0.5122,0.5045,0.514,0.5049,0.5064,0.5163,0.5054,0.5069,0.5194,0.5218,0.5283,0.5361,0.5173,0.4387,0.3553,0.334,0.3262,0.2988,0.249,0.2354,0.2481,0.2411,0.2458,0.2672,0.3006,0.3653,0.4365,0.4402,0.4303,0.4289,0.3773,0.3569,0.3903,0.4283,0.457,0.472,0.5985,0.5567,0.3234,0.0691,-0.1942,-0.4464,-0.6181,-0.702,-0.7288,-0.7378,-0.7447,-0.7465,-0.8077,-0.8111,-0.7636,-0.8706,-1.0403,-1.2022,-1.233,-1.2953,-1.3605,-1.3738,-1.3817,-1.4065,-1.4302,-1.4478,-1.4695,-1.4902,-1.512,-1.5245,-1.5061,-1.4897,-1.4826,-1.4864,-1.5042,-1.4789,-1.3852,-1.2503,-1.2261,-1.2426,-1.2195,-1.159,-1.086,-1.053,-1.0513,-1.0432,-1.0172,-0.9273,-0.8472,-0.8019,-0.7921,-0.8076,-0.9074,-0.9834,-1.0321,-1.0339,-1.0217,-1.0362,-1.019,-1.0242,-1.0223,-1.0178,-1.0125,-1.0052,-0.9904,-0.9688,-0.945,-0.9269,-0.9246,-0.9683,-0.9179,0.7105,0.6921,0.6731,0.6527,0.6312,0.607,0.5967,0.5973,0.587,0.5894,0.5907,0.5937,0.5873,0.6009,0.5839,0.593,0.5991,0.5997,0.5999,0.5965,0.5763,0.5179,0.4466,0.4382,0.4147,0.3735,0.3196,0.2958,0.2927,0.2765,0.2699,0.2991,0.3498,0.3857,0.4295,0.4511,0.4707,0.4769,0.4801,0.5117,0.5667,0.5976,0.6281,0.675,0.6934,0.6375,0.4534,0.2546,0.0223,-0.3514,-0.5515,-0.6611,-0.7271,-0.7349,-0.7904,-0.8047,-0.8671,-0.8882,-0.8389,-0.9119,-1.014,-1.1196,-1.1964,-1.2652,-1.3275,-1.3511,-1.3596,-1.3853,-1.3935,-1.4224,-1.4804,-1.5111,-1.523,-1.5257,-1.5076,-1.4861,-1.4715,-1.4513,-1.4558,-1.4925,-1.3884,-1.2806,-1.2125,-1.1975,-1.2185,-1.2018,-1.1295,-1.1116,-1.1,-1.0892,-1.044,-0.9665,-0.8939,-0.8249,-0.8313,-0.8465,-0.9805,-1.0946,-1.1533,-1.1643,-1.1172,-1.1045,-1.0594,-1.0404,-1.0354,-1.0301,-1.0248,-1.0157,-1.0013,-0.9919,-0.9689,-0.9438,-0.9321,-1.0168,-1.0204,0.7326,0.7125,0.7078,0.7044,0.6933,0.6617,0.6452,0.6435,0.6212,0.6247,0.6365,0.6242,0.6342,0.6655,0.6356,0.6317,0.6613,0.6653,0.6686,0.6657,0.6493,0.6267,0.5818,0.5534,0.5097,0.4632,0.4049,0.3804,0.3775,0.3484,0.3467,0.3711,0.4022,0.443,0.4607,0.4694,0.4863,0.499,0.5078,0.5503,0.6296,0.6877,0.7351,0.7804,0.8075,0.8065,0.728,0.5463,0.3794,0.1611,-0.2223,-0.4511,-0.4907,-0.7167,-0.8479,-0.8589,-0.9068,-0.943,-0.9334,-0.9322,-0.9869,-1.1253,-1.1656,-1.2162,-1.338,-1.3237,-1.3298,-1.3482,-1.3453,-1.3882,-1.4703,-1.4999,-1.5167,-1.5244,-1.5103,-1.4881,-1.4728,-1.4375,-1.425,-1.4097,-1.3736,-1.3018,-1.2127,-1.1818,-1.197,-1.2158,-1.2062,-1.1831,-1.1538,-1.125,-1.0536,-0.9723,-0.9195,-0.8523,-0.8361,-0.7663,-0.6824,-0.8117,-0.9197,-0.904,-0.8679,-0.996,-0.8846,-0.9368,-1.0481,-1.0388,-1.0208,-1.0081,-0.99,-0.9904,-0.9929,-0.974,-0.9824,-1.0652,-1.1433,0.7675,0.7516,0.7408,0.7384,0.7332,0.7026,0.6884,0.6786,0.6423,0.6507,0.6724,0.6463,0.6557,0.7014,0.68,0.6827,0.6995,0.7055,0.7028,0.7023,0.6992,0.6959,0.6747,0.6304,0.5812,0.5244,0.4425,0.4173,0.4126,0.4023,0.3887,0.4116,0.4456,0.465,0.4823,0.4881,0.4998,0.5059,0.5127,0.563,0.6765,0.7272,0.7965,0.8474,0.8814,0.8917,0.8563,0.7868,0.7235,0.618,0.3561,0.006,-0.295,-0.6767,-0.896,-0.8966,-0.9112,-0.961,-0.9716,-0.9619,-0.9962,-1.1642,-1.1783,-1.2539,-1.3329,-1.3445,-1.339,-1.3549,-1.3638,-1.3914,-1.4443,-1.4921,-1.5104,-1.5251,-1.5142,-1.4995,-1.4915,-1.4576,-1.4232,-1.4045,-1.3734,-1.3644,-1.3185,-1.2477,-1.2329,-1.2789,-1.201,-1.173,-1.1213,-1.0867,-1.0311,-0.9668,-0.9243,-0.8829,-0.8516,-0.6685,-0.3132,-0.3549,-0.4024,-0.2939,-0.1642,-0.3937,-0.6266,-0.7626,-0.9196,-1.0107,-1.0015,-0.99,-0.9873,-0.995,-0.9988,-0.9967,-1.0283,-1.1021,-1.1932,0.8039,0.7905,0.7708,0.765,0.7597,0.7362,0.7246,0.7171,0.6727,0.6752,0.6995,0.662,0.6821,0.7085,0.7234,0.7269,0.7356,0.7424,0.7489,0.7501,0.7555,0.7409,0.716,0.6812,0.6366,0.5613,0.4752,0.4382,0.4364,0.4256,0.4265,0.4377,0.464,0.4831,0.489,0.4999,0.5087,0.5098,0.5117,0.5902,0.7218,0.7624,0.8178,0.9174,0.9321,0.9268,0.9255,0.9197,0.9462,0.982,1.0128,0.6512,0.0838,-0.4253,-0.8605,-0.7735,-0.7651,-0.8106,-0.9384,-0.9481,-0.9739,-1.1691,-1.2101,-1.2556,-1.3307,-1.3614,-1.3678,-1.3747,-1.3859,-1.398,-1.4064,-1.4355,-1.4824,-1.5027,-1.5014,-1.5012,-1.4997,-1.4783,-1.4548,-1.4457,-1.4136,-1.3988,-1.3914,-1.3493,-1.3414,-1.29,-1.1868,-1.1031,-1.0238,-0.9121,-0.774,-0.8445,-0.806,-0.6257,-0.5682,-0.2205,0.0916,0.0035,-0.0,0.1028,0.2598,-0.0078,-0.3457,-0.6152,-0.7705,-0.8261,-0.9211,-0.975,-0.9788,-0.9961,-0.9762,-0.9452,-1.0168,-1.1303,-1.1748,0.8095,0.8049,0.7919,0.7841,0.7819,0.762,0.7544,0.753,0.7365,0.7099,0.6828,0.7163,0.7163,0.716,0.7402,0.7658,0.7817,0.7861,0.8013,0.7982,0.7933,0.7675,0.7373,0.7073,0.6817,0.6283,0.5427,0.4943,0.4879,0.4737,0.4631,0.4771,0.4889,0.4967,0.5006,0.511,0.5212,0.5287,0.5361,0.6231,0.7413,0.7973,0.847,0.9689,0.9712,0.9591,0.9609,0.9809,0.9962,0.991,1.0168,0.8379,0.5447,0.3369,0.0024,-0.3741,-0.374,-0.4402,-0.7887,-0.8041,-0.875,-1.0261,-1.0803,-1.1671,-1.2313,-1.2627,-1.214,-1.3409,-1.3584,-1.3898,-1.4491,-1.4247,-1.4092,-1.4346,-1.4474,-1.4438,-1.4466,-1.4397,-1.4533,-1.4566,-1.4419,-1.4158,-1.3871,-1.3851,-1.3934,-1.0538,-0.5946,-0.5692,-0.5478,-0.411,-0.2541,-0.4238,-0.6479,-0.4211,-0.2165,0.2481,0.5852,0.3426,0.272,0.2306,0.2959,0.1709,-0.0576,-0.1113,-0.3324,-0.4945,-0.6343,-0.8381,-0.8057,-0.6989,-0.7683,-0.8674,-1.1188,-1.2891,-0.9372,0.829,0.8096,0.8014,0.7958,0.7885,0.7805,0.7797,0.7794,0.7523,0.7462,0.7488,0.7532,0.7539,0.7588,0.7845,0.7934,0.777,0.7763,0.7827,0.7781,0.7482,0.7415,0.7254,0.6961,0.6467,0.6113,0.578,0.5615,0.5509,0.5069,0.4956,0.494,0.4988,0.5004,0.5137,0.5469,0.5603,0.5714,0.6132,0.695,0.8281,0.8679,0.9425,0.9597,0.9742,0.9496,0.9157,0.9498,0.9517,0.9448,0.9934,0.8759,0.738,0.6128,0.4465,0.0158,0.0268,-0.0831,-0.4817,-0.4919,-0.5612,-1.0437,-0.8657,-0.7429,-0.8088,-0.7858,-0.8031,-1.0452,-1.3647,-1.4165,-1.4111,-1.3916,-1.3823,-1.3538,-1.3584,-1.3699,-1.375,-1.3501,-1.3667,-1.4003,-1.3546,-1.3219,-1.3359,-1.3563,-1.4108,-0.9296,-0.1686,-0.0078,-0.0417,0.0308,0.1648,0.013,-0.1741,0.1183,0.3497,0.6999,0.9831,0.7629,0.6388,0.5953,0.6113,0.6162,0.6797,0.7041,0.4083,-0.0319,-0.3866,-0.5932,-0.4948,-0.4207,-0.5688,-0.7793,-1.2383,-1.3661,-0.8118,0.8477,0.8158,0.8129,0.8029,0.7949,0.7941,0.8017,0.8033,0.7692,0.772,0.8072,0.7824,0.7745,0.7931,0.8016,0.7882,0.7339,0.7299,0.731,0.7503,0.721,0.7114,0.699,0.6758,0.6306,0.601,0.6172,0.619,0.5603,0.522,0.5148,0.5256,0.5218,0.513,0.5345,0.583,0.6143,0.6473,0.7068,0.7995,0.8921,0.9676,0.9986,0.9644,0.9577,0.9191,0.8639,0.8965,0.8987,0.9044,0.9279,0.9038,0.7004,0.6656,0.5638,0.3829,0.39,0.1571,-0.015,-0.147,-0.2656,-0.6299,-0.4024,-0.3868,-0.3404,-0.3201,-0.2669,-0.7339,-1.027,-1.357,-1.3823,-1.3607,-1.3134,-1.2678,-1.24,-1.239,-1.2382,-1.2209,-1.1884,-1.2031,-1.2032,-1.0534,-0.8952,-1.2629,-1.3061,-0.7058,0.0483,0.5392,0.5062,0.4085,0.454,0.3881,0.4079,0.7311,0.9701,1.1537,1.3011,1.1861,1.1308,1.1163,1.1727,1.2305,1.2303,1.1189,0.8935,0.4487,0.0456,-0.1664,0.0745,0.0877,-0.274,-0.7235,-1.2328,-0.7565,0.0565,0.8569,0.834,0.8182,0.8081,0.8069,0.809,0.82,0.8345,0.8255,0.7948,0.7773,0.8032,0.8003,0.7764,0.7698,0.7606,0.7332,0.7066,0.7086,0.7418,0.7366,0.7128,0.7227,0.7865,0.6828,0.6223,0.6384,0.593,0.56,0.5343,0.5576,0.5981,0.5689,0.5428,0.6116,0.6298,0.6217,0.6458,0.7183,0.8054,0.8888,0.9587,0.9744,0.9655,0.9383,0.8922,0.829,0.8459,0.8474,0.8214,0.9049,0.8906,0.764,0.6062,0.6218,0.5937,0.559,0.4448,0.3394,0.1696,0.1334,-0.0797,-0.1331,-0.2402,-0.0744,-0.0454,-0.2275,-1.0236,-0.9698,-1.08,-1.3465,-1.2384,-1.1596,-1.0615,-0.9835,-1.0108,-1.0357,-0.9221,-0.9088,-0.816,-0.7556,-0.4337,-0.1841,-0.737,-1.1124,-0.4279,0.2113,0.7067,0.9696,0.8077,0.7222,0.6536,0.5993,0.8872,1.1248,1.3759,1.4514,1.4362,1.4601,1.4668,1.4019,1.3572,1.3758,1.2462,1.0644,0.9724,0.7004,0.6216,0.7773,0.6846,0.4381,-0.3535,-1.2711,-0.3867,0.7879,0.871,0.8563,0.8476,0.8366,0.8288,0.8267,0.8379,0.8542,0.8579,0.8456,0.8318,0.8522,0.85,0.8216,0.8215,0.7741,0.7169,0.6824,0.6613,0.6612,0.6499,0.6286,0.6291,0.6434,0.6094,0.6498,0.6437,0.6704,0.6245,0.6215,0.6445,0.6915,0.6742,0.6661,0.6915,0.6944,0.7288,0.7831,0.8577,0.916,0.9372,0.9358,0.9207,0.8944,0.8505,0.7908,0.7423,0.7409,0.7278,0.6998,0.7577,0.7638,0.6866,0.6033,0.5857,0.5782,0.6093,0.6328,0.6504,0.3675,0.3468,0.4116,0.2366,0.2757,0.4219,0.3187,0.1405,-0.2099,-0.5839,-0.9619,-1.332,-1.2222,-0.8602,-0.6734,-0.6086,-0.6731,-0.682,-0.6083,-0.5223,-0.4116,-0.2576,0.0916,0.3141,-0.0788,-0.4395,-0.1291,0.4511,0.926,1.0788,0.9675,0.9172,0.9065,0.8576,0.8884,1.0916,1.3036,1.3849,1.4001,1.4517,1.4379,1.3634,1.3346,1.3437,1.338,1.2072,1.1639,1.192,1.0854,0.9381,1.0533,1.2008,0.3357,-0.4044,0.2244,1.153,0.8869,0.8744,0.8726,0.8596,0.8471,0.8479,0.8579,0.8744,0.8736,0.8806,0.8877,0.8872,0.8804,0.8618,0.8382,0.7882,0.7106,0.6842,0.6642,0.6136,0.5808,0.5951,0.6196,0.5954,0.59,0.6344,0.6386,0.6927,0.7541,0.7576,0.7491,0.769,0.7414,0.7457,0.7541,0.7747,0.8144,0.8974,0.9556,0.9825,0.9725,0.9079,0.8689,0.8212,0.7607,0.6857,0.6201,0.6307,0.6172,0.5854,0.6016,0.6191,0.5979,0.5674,0.5423,0.5415,0.5742,0.6567,0.6581,0.5265,0.4129,0.4079,0.5035,0.4658,0.6094,0.5498,0.4175,0.2426,0.0221,-0.665,-1.2051,-1.0625,-0.4357,-0.1801,-0.1365,-0.2249,-0.2795,-0.2019,-0.1596,-0.1128,0.1344,0.6174,0.7154,0.4992,0.3575,0.3602,0.7002,1.1437,1.1534,1.0528,1.0163,0.9867,0.9228,0.9279,1.1338,1.2768,1.3303,1.3531,1.405,1.4102,1.337,1.2933,1.2847,1.2738,1.2697,1.3005,1.2972,1.1675,1.0603,1.1913,1.244,1.0079,0.7956,1.2392,1.3219,0.9003,0.8869,0.8756,0.8713,0.8681,0.8673,0.8748,0.8875,0.8869,0.8889,0.8902,0.8885,0.8553,0.8146,0.8136,0.8022,0.7831,0.7189,0.7291,0.7635,0.7836,0.7283,0.7046,0.6693,0.6536,0.6598,0.6802,0.7599,0.8401,0.8542,0.8162,0.7726,0.7992,0.7754,0.7922,0.8471,0.8862,0.9472,0.9795,0.9788,0.9455,0.8868,0.8238,0.8027,0.7407,0.6686,0.604,0.5925,0.5614,0.502,0.5006,0.5189,0.5296,0.516,0.4955,0.5224,0.5318,0.6023,0.5986,0.5362,0.3466,0.21,0.2812,0.5013,0.5471,0.84,0.7281,0.4278,0.3389,-0.0596,-0.5312,-0.5632,0.0839,0.3633,0.355,0.1971,0.1618,0.2143,0.2453,0.2264,0.4822,0.912,1.1051,0.8846,0.7916,0.7768,0.7766,1.1943,1.1505,1.0669,1.0339,0.9919,0.9177,0.9841,1.2123,1.2806,1.215,1.2468,1.3111,1.3265,1.3098,1.2756,1.2308,1.2579,1.2707,1.3384,1.3849,1.2785,1.2345,1.3211,1.2974,1.1601,1.0193,1.1323,1.1372,0.9179,0.9129,0.9011,0.8902,0.8821,0.8821,0.8843,0.89,0.8911,0.8911,0.8905,0.8894,0.8758,0.8544,0.8541,0.8341,0.8031,0.7846,0.7777,0.771,0.776,0.7706,0.7511,0.7645,0.7816,0.7832,0.7935,0.8412,0.9487,0.9216,0.8821,0.8562,0.8777,0.9123,0.9324,0.9197,0.9403,0.9292,0.9505,0.9564,0.8975,0.8143,0.7445,0.7125,0.6297,0.5574,0.5029,0.4958,0.4617,0.4305,0.4171,0.4353,0.4649,0.4584,0.4886,0.5129,0.5141,0.5307,0.5495,0.5053,0.3808,0.3828,0.5167,0.6629,0.5532,0.7691,0.8789,0.7703,0.7035,0.3393,0.6855,0.4092,0.4638,0.7975,0.8431,0.6356,0.5736,0.6059,0.6323,0.6041,0.7868,1.0992,1.2189,1.2688,1.2094,1.1674,1.169,1.1535,1.1242,1.0913,1.0583,1.0277,0.9596,0.9728,1.1862,1.1489,1.0688,1.1331,1.2095,1.2304,1.2382,1.2152,1.1871,1.2239,1.2461,1.2659,1.301,1.3516,1.3904,1.4327,1.4555,1.431,1.2884,1.0837,0.9497,0.934,0.9294,0.9189,0.9099,0.9013,0.8971,0.8949,0.8968,0.9022,0.8867,0.8721,0.8836,0.8836,0.8802,0.9003,0.8962,0.8638,0.8529,0.8292,0.8339,0.8455,0.8224,0.8074,0.8091,0.8369,0.8795,0.8908,0.9206,0.9922,0.9477,0.9321,0.9433,0.9713,0.9805,0.9652,0.9946,0.972,0.9382,0.9289,0.9319,0.8727,0.7807,0.7006,0.658,0.5809,0.515,0.4664,0.4441,0.4065,0.3762,0.3586,0.3586,0.3839,0.4259,0.4888,0.5064,0.5028,0.491,0.503,0.5346,0.5352,0.603,0.7372,0.7728,0.7394,0.8317,0.9978,1.034,0.9549,1.0635,1.5137,1.1103,0.9346,1.2227,1.1027,0.9302,0.9123,0.9269,0.9648,0.9898,1.1555,1.2316,1.2434,1.3038,1.2802,1.2537,1.274,1.2242,1.1545,1.1205,1.0879,1.0581,1.0206,1.0574,1.1167,1.0477,0.9891,0.9989,1.0718,1.1349,1.1457,1.1523,1.1733,1.205,1.2124,1.186,1.2086,1.2596,1.3826,1.5115,1.4377,1.2959,1.173,0.9389,0.7811,0.9421,0.9312,0.9303,0.9294,0.9284,0.9148,0.9088,0.9109,0.9199,0.893,0.8515,0.8878,0.8817,0.8612,0.9071,0.9233,0.9295,0.932,0.9297,0.9333,0.9321,0.9177,0.8845,0.8662,0.8835,0.8773,0.8964,0.9382,0.9997,0.9661,0.9734,0.9889,0.9901,0.9753,0.9103,0.9715,1.0008,0.9924,0.9629,0.9205,0.8638,0.7782,0.7073,0.6495,0.5806,0.5166,0.4859,0.4354,0.4024,0.375,0.3407,0.3438,0.3724,0.4247,0.4788,0.5212,0.4505,0.4524,0.518,0.6677,0.7523,0.8086,0.8834,0.8809,0.9653,1.0834,1.167,1.1553,1.2476,1.3783,1.501,1.4941,1.4629,1.405,1.2764,1.2108,1.1803,1.1505,1.1686,1.1676,1.245,1.3178,1.2942,1.2887,1.2798,1.2894,1.3404,1.3036,1.213,1.1525,1.1183,1.099,1.0685,1.0318,1.0411,0.9609,0.913,0.9127,0.9661,1.0658,1.171,1.2462,1.2491,1.2195,1.1684,1.133,1.1446,1.1678,1.3133,1.4137,1.1516,0.9967,0.9006,0.8093,0.6611,0.9609,0.9559,0.9465,0.9491,0.9525,0.9322,0.9237,0.9237,0.9267,0.9152,0.901,0.9194,0.9168,0.9108,0.9197,0.9465,0.9508,0.9626,0.9691,0.9704,0.9812,0.974,0.9458,0.9353,0.9419,0.9538,0.9576,0.9523,0.9938,0.96,0.9614,0.9775,0.993,0.9817,0.9685,0.9884,0.9888,0.9691,0.9371,0.8976,0.8439,0.7667,0.701,0.6568,0.5894,0.5476,0.5261,0.4682,0.4271,0.3982,0.362,0.3616,0.3796,0.4243,0.4465,0.4959,0.4627,0.4921,0.5911,0.7072,0.7733,0.8406,0.9036,0.9331,0.9676,1.0711,1.158,1.249,1.3592,1.4618,1.5068,1.5215,1.503,1.4706,1.3892,1.3624,1.3331,1.3003,1.2874,1.2713,1.313,1.2712,1.2418,1.2587,1.26,1.2917,1.3387,1.3464,1.2787,1.2023,1.1548,1.1419,1.1115,1.033,0.9755,0.9497,0.9824,1.0283,1.0449,1.0863,1.1929,1.2962,1.2888,1.2427,1.1575,1.0834,1.0985,1.1358,1.2574,1.2602,1.0346,0.9156,0.9035,0.7666,0.5625,0.9707,0.9691,0.9609,0.9617,0.9658,0.9474,0.9403,0.9412,0.9349,0.934,0.9403,0.9386,0.9386,0.9456,0.9549,0.9566,0.9575,0.968,0.9743,0.9756,0.9834,0.9871,0.9919,0.9947,0.9791,0.9905,0.984,0.9793,0.9784,0.927,0.9381,0.9747,0.9816,0.973,0.9737,0.9758,0.9742,0.953,0.9243,0.8881,0.8331,0.7706,0.7131,0.6638,0.6156,0.5791,0.5507,0.5116,0.4626,0.425,0.3859,0.3656,0.3642,0.384,0.3945,0.4309,0.5147,0.5267,0.5823,0.7495,0.8038,0.824,0.9071,0.9576,0.9857,1.0906,1.2185,1.3135,1.3774,1.447,1.5178,1.5362,1.5244,1.491,1.4769,1.4472,1.4013,1.3625,1.3222,1.3134,1.2835,1.2332,1.1969,1.218,1.238,1.2858,1.3343,1.3345,1.3295,1.2543,1.1744,1.1457,1.1244,1.0512,1.0105,0.9974,1.0464,1.1323,1.1274,1.1013,1.1958,1.2921,1.2787,1.2501,1.1422,1.0636,1.0568,1.1067,1.193,1.1493,0.9765,0.9087,0.9159,0.7592,0.5531,0.9706,0.9707,0.9707,0.9707,0.9683,0.9559,0.9585,0.9667,0.9439,0.9474,0.9683,0.955,0.9559,0.9689,0.9752,0.9735,0.9686,0.9752,0.9768,0.9807,0.9857,0.9958,0.9977,0.994,0.9831,0.9722,0.9638,0.9589,0.9582,0.9445,0.956,0.9696,0.9631,0.9561,0.9545,0.9552,0.9526,0.9349,0.912,0.8773,0.8303,0.7884,0.7322,0.6842,0.6442,0.6123,0.5763,0.5324,0.4701,0.4008,0.3132,0.2714,0.2692,0.3118,0.3218,0.3778,0.5044,0.5373,0.5755,0.7651,0.8503,0.8666,0.8664,0.9611,1.0656,1.1389,1.2381,1.3579,1.4383,1.4796,1.5251,1.5274,1.5292,1.5167,1.511,1.4719,1.4204,1.3741,1.3292,1.2972,1.2632,1.2232,1.192,1.1999,1.2257,1.2795,1.3232,1.3439,1.3295,1.2748,1.1966,1.1174,1.0919,1.0597,1.031,1.0121,1.0828,1.1588,1.1077,1.0914,1.1951,1.2769,1.2598,1.2121,1.1048,1.0628,1.1081,1.1,1.0889,1.0144,0.9709,0.8615,0.8556,0.7852,0.6305,0.9747,0.9706,0.9707,0.9707,0.9698,0.9649,0.9675,0.9683,0.9591,0.9641,0.9706,0.9708,0.9762,0.9785,0.9794,0.9822,0.9789,0.9733,0.9716,0.9766,0.9853,0.9925,0.9909,0.9844,0.9696,0.9583,0.9493,0.9385,0.9259,0.9332,0.942,0.9421,0.9376,0.9295,0.9248,0.9249,0.9184,0.9107,0.8902,0.8653,0.8284,0.7844,0.7374,0.7003,0.6675,0.6372,0.6101,0.5779,0.5265,0.4667,0.3718,0.3123,0.2657,0.2834,0.2976,0.3589,0.5002,0.6195,0.6746,0.7515,0.8442,0.8983,0.87,0.9675,1.0894,1.1975,1.2593,1.3721,1.4505,1.4788,1.5013,1.5086,1.5202,1.5254,1.5151,1.4819,1.4304,1.3801,1.3306,1.2646,1.2311,1.1967,1.1698,1.1826,1.2125,1.2697,1.3111,1.332,1.3251,1.27,1.215,1.1359,1.0728,1.0445,1.019,1.0001,1.0959,1.1639,1.1292,1.1349,1.2462,1.2998,1.2555,1.2021,1.1377,1.1549,1.2063,1.1745,1.1172,1.1132,1.0685,0.9139,0.7845,0.7431,0.7322,0.983,0.9773,0.9747,0.9749,0.9741,0.973,0.9754,0.9766,0.9745,0.9741,0.9737,0.9814,1.0027,1.0369,1.0382,1.0364,1.0359,1.0309,1.0143,0.9775,0.9856,0.9919,0.9885,0.9809,0.9696,0.9548,0.9394,0.9254,0.9011,0.9004,0.9093,0.8969,0.9004,0.8919,0.8773,0.862,0.8549,0.8578,0.8546,0.8418,0.8102,0.7709,0.7373,0.7036,0.6749,0.6638,0.6333,0.6083,0.5884,0.5222,0.4216,0.3799,0.3169,0.29,0.3205,0.3904,0.5334,0.6332,0.6931,0.787,0.8798,0.9286,0.9094,0.9987,1.1144,1.2313,1.3043,1.3911,1.4238,1.453,1.4709,1.4893,1.5101,1.5293,1.508,1.4857,1.4355,1.3841,1.3141,1.2384,1.1917,1.1569,1.1495,1.1661,1.1897,1.227,1.2623,1.2934,1.2877,1.2516,1.2117,1.1548,1.0866,1.0327,1.0126,1.0105,1.1059,1.1896,1.2206,1.2451,1.3281,1.2944,1.2253,1.209,1.1999,1.2248,1.2505,1.2098,1.163,1.128,1.0875,1.0093,0.8791,0.795,0.7982,0.9961,0.99,0.9828,0.9814,0.9795,0.9814,0.9835,0.9881,0.985,0.9821,0.9825,0.9878,1.0363,1.087,1.0935,1.1061,1.1006,1.0922,1.0485,0.988,0.9839,0.99,0.9932,0.9892,0.9674,0.9532,0.9294,0.8966,0.8714,0.8618,0.8556,0.8452,0.8497,0.8453,0.8303,0.8048,0.7974,0.8011,0.8172,0.8194,0.784,0.7517,0.7203,0.6883,0.6803,0.6786,0.6265,0.6175,0.635,0.5429,0.4798,0.4512,0.3851,0.3219,0.3611,0.4211,0.5432,0.6639,0.7429,0.842,0.9212,0.9754,0.9982,1.062,1.1629,1.2629,1.3418,1.3672,1.3971,1.4286,1.4497,1.4634,1.4807,1.4998,1.4967,1.47,1.4284,1.3705,1.3017,1.2305,1.182,1.1431,1.089,1.1046,1.1588,1.1849,1.2128,1.2499,1.2589,1.2341,1.1979,1.1613,1.0975,1.0359,1.0083,1.0287,1.1193,1.1938,1.2592,1.3193,1.377,1.2995,1.1847,1.1944,1.2144,1.2487,1.264,1.2256,1.1313,0.9617,0.9535,1.0416,0.9833,0.8556,0.8282,0.9983,0.9974,0.9913,0.9878,0.9897,0.9878,0.99,0.9899,0.9949,0.9918,0.9896,1.0006,1.0504,1.1287,1.1263,1.1468,1.191,1.1553,1.0909,1.0481,1.0226,1.0074,0.9912,0.9885,0.9632,0.9345,0.9028,0.8549,0.7924,0.7872,0.8026,0.7965,0.7982,0.7927,0.7842,0.7563,0.7436,0.7427,0.7522,0.7635,0.7411,0.7111,0.6804,0.6865,0.6969,0.6799,0.6521,0.6722,0.6452,0.5782,0.5331,0.4884,0.437,0.3967,0.3879,0.4244,0.5272,0.6799,0.8263,0.9091,0.9572,1.0284,1.072,1.1296,1.2054,1.2905,1.3405,1.3504,1.3667,1.3973,1.4248,1.4361,1.4517,1.4699,1.4823,1.4497,1.4162,1.3524,1.2862,1.236,1.183,1.1205,1.0608,1.0659,1.1227,1.1569,1.1769,1.2072,1.2384,1.2301,1.1889,1.149,1.0992,1.046,1.0214,1.057,1.1538,1.2415,1.315,1.3742,1.4259,1.3485,1.2624,1.2272,1.2294,1.2822,1.2997,1.2491,1.1234,0.9448,0.8665,0.9731,0.9645,0.8598,0.8475,1.0054,1.0048,0.996,1.0173,1.0406,1.0125,1.016,1.0463,1.0211,1.002,1.0001,1.0111,1.0718,1.1718,1.1778,1.2136,1.2739,1.2383,1.1957,1.1469,1.0839,1.059,1.0339,1.0034,0.9703,0.9384,0.8727,0.8055,0.7184,0.7279,0.7511,0.734,0.7339,0.736,0.7254,0.7014,0.6825,0.6782,0.6783,0.6757,0.684,0.6809,0.6719,0.687,0.689,0.6715,0.6446,0.6578,0.6456,0.5913,0.5352,0.5222,0.5144,0.5463,0.5439,0.5519,0.6169,0.7352,0.9001,0.9749,0.9745,1.0334,1.1169,1.1657,1.1563,1.2366,1.3166,1.3285,1.3067,1.3292,1.3724,1.393,1.4264,1.4524,1.443,1.4177,1.3777,1.3286,1.2846,1.2535,1.1856,1.0981,1.0463,1.0137,1.069,1.125,1.1468,1.1853,1.2115,1.2384,1.1925,1.1605,1.1227,1.0858,1.0627,1.1137,1.1995,1.2861,1.3743,1.4172,1.4535,1.4038,1.3485,1.3087,1.3043,1.3526,1.3505,1.2897,1.2116,1.0692,0.971,0.919,0.8937,0.8815,0.8688,1.0104,1.009,1.0038,1.0421,1.0971,1.0345,1.0445,1.0979,1.0454,1.0123,1.0096,1.0119,1.1156,1.2024,1.2594,1.315,1.3391,1.3142,1.2887,1.2429,1.1644,1.124,1.0854,1.0504,1.004,0.9325,0.855,0.7646,0.6709,0.6939,0.6952,0.6641,0.661,0.6666,0.6433,0.6159,0.5946,0.5936,0.5903,0.58,0.6134,0.6649,0.6657,0.6699,0.673,0.6543,0.6193,0.607,0.6265,0.5855,0.54,0.5365,0.5515,0.6056,0.6529,0.6604,0.7159,0.8199,0.9175,0.9608,0.9741,1.0192,1.1169,1.156,1.1455,1.1901,1.2715,1.2873,1.2659,1.2782,1.3222,1.3593,1.3949,1.4207,1.4042,1.3922,1.3506,1.3144,1.2924,1.2684,1.1902,1.0992,1.0612,1.0224,1.0336,1.0898,1.1403,1.1711,1.2043,1.2276,1.2213,1.2075,1.1917,1.1548,1.1139,1.1796,1.2672,1.3546,1.4374,1.4685,1.4823,1.452,1.4205,1.3866,1.3944,1.4205,1.386,1.3236,1.2422,1.1304,1.0684,0.9752,0.9487,0.9324,0.8934,1.0104,1.0104,1.0096,1.0217,1.0347,1.0174,1.0225,1.0396,1.0339,1.0175,1.026,1.0275,1.0797,1.1717,1.231,1.3026,1.3887,1.3803,1.3638,1.325,1.2529,1.1919,1.1385,1.0998,1.0368,0.9455,0.8417,0.7434,0.6758,0.6698,0.6553,0.624,0.607,0.5961,0.5699,0.5449,0.5244,0.5317,0.5534,0.5592,0.5777,0.6174,0.6377,0.6453,0.6531,0.6694,0.6721,0.6627,0.632,0.5886,0.5495,0.5526,0.5696,0.5983,0.635,0.7255,0.7885,0.8391,0.8972,0.9333,0.9557,1.0039,1.0879,1.1292,1.1363,1.1687,1.2229,1.236,1.2299,1.2533,1.2903,1.3194,1.3518,1.3721,1.37,1.3712,1.3523,1.3329,1.3137,1.2753,1.22,1.1652,1.1381,1.0959,1.0558,1.1207,1.203,1.2347,1.2487,1.251,1.2525,1.252,1.2516,1.2137,1.1719,1.259,1.3452,1.4314,1.4885,1.5,1.5108,1.5177,1.4883,1.4377,1.4399,1.4644,1.4151,1.3502,1.1983,1.0962,1.096,1.0532,1.0168,0.9839,0.9471]},{"header":{"parameterUnit":"m.s-1","parameterCategory":1,"la1":31.0,"la2":29.5877,"lo1":-88.7671,"lo2":-86.6584,"dy":0.0162,"dx":0.0185,"nx":115,"ny":88,"refTime":"2026-03-26T12:00:00:Z","depth":0,"parameterNumber":3,"parameterNumberName":"V-component_of_WINDS"},"data":[0.0,0.0,0.0,0.0,0.0,0.0,0.0,0.0,0.0,0.0,0.0,0.0,0.0,0.0,0.0,0.0,0.0,0.0,0.0,0.0,0.0,0.0,0.0,0.0,0.0,0.0,0.0,0.0,0.0,0.0,0.0,0.0,0.0,0.0,0.0,0.0,0.0,0.0,0.0,0.0,0.0,0.0,0.0,0.0,0.0,0.0,0.0,0.0,0.0,0.0,0.0,0.0,0.0,0.0,0.0,0.0,0.0,0.0,0.0,0.0,0.0,0.0,0.0,0.0,0.0,0.0,0.0,0.0,0.0,0.0,0.0,0.0,0.0,0.0,0.0,0.0,0.0,0.0,0.0,0.0,0.0,0.0,0.0,0.0,0.0,0.0,0.0,0.0,0.0,0.0,0.0,0.0,0.0,0.0,0.0,0.0,0.0,0.0,0.0,0.0,0.0,0.0,0.0,0.0,0.0,0.0,0.0,0.0,0.0,0.0,0.0,0.0,0.0,0.0,0.0,0.0,0.0,0.0,0.0,0.0,0.0,0.0,0.0,0.0,0.0,0.0,0.0,0.0,0.0,0.0,0.0,0.0,0.0,0.0,0.0,0.0,0.0,0.0,0.0,0.0,0.0,0.0,0.0,0.0,0.0,0.0,0.0,0.0,0.0,0.0,0.0,0.0,0.0,0.0,0.0,0.0,0.0,0.0,0.0,0.0,0.0,0.0,0.0,0.0,0.0,0.0,0.0,0.0,0.0,0.0,0.0,0.0,0.0,0.0,0.0,0.0,0.0,0.0,0.0,0.0,0.0,0.0,0.0,0.0,0.0,0.0,0.0,0.0,0.0,0.0,0.0,0.0,0.0,0.0,0.0,0.0,0.0,0.0,0.0,0.0,0.0,0.0,0.0,0.0,0.0,0.0,0.0,0.0,0.0,0.0,0.0,0.0,0.0,0.0,0.0,0.0,0.0,0.0,0.0,0.0,0.0,0.0,0.0,0.0,0.0,0.0,0.0,0.0,0.0,0.0,0.0,0.0,0.0,0.0,0.0,0.0,0.0,0.0,0.0,0.0,0.0,0.0,0.0,0.0,0.0,0.0,0.0,0.0,0.0,0.0,0.0,0.0,0.0,0.0,0.0,0.0,0.0,0.0,0.0,0.0,0.0,0.0,0.0,0.0,0.0,0.0,0.0,0.0,0.0,0.0,0.0,0.0,0.0,0.0,0.0,0.0,0.0,0.0,0.0,0.0,0.0,0.0,0.0,0.0,0.0,0.0,0.0,0.0,0.0,0.0,0.0,0.0,0.0,0.0,0.0,0.0,0.0,0.0,0.0,0.0,0.0,0.0,0.0,0.0,0.0,0.0,0.0,0.0,0.0,0.0,0.0,0.0,0.0,0.0,0.0,0.0,0.0,0.0,0.0,0.0,0.0,0.0,0.0,0.0,0.0,0.0,0.0,0.0,0.0,0.0,0.0,0.0,0.0,0.0,0.0,0.0,0.0,0.0,0.0,0.0,0.0,0.0,0.0,0.0,0.0,0.0,0.0,0.0,0.0,0.0,0.0,0.0,0.0,0.0,0.0,0.0,0.0,0.0,0.0,0.0,0.0,0.0,0.0,0.0,0.0,0.0,0.0,0.0,0.0,0.0,0.0,0.0,0.0,0.0,0.0,0.0,0.0,0.0,0.0,0.0,0.0,0.0,0.0,0.0,0.0,0.0,0.0,0.0,0.0,0.0,0.0,0.0,0.0,0.0,0.0,0.0,0.0,0.0,0.0,0.0,0.0,0.0,0.0,0.0,0.0,0.0,0.0,0.0,0.0,0.0,0.0,0.0,0.0,0.0,0.0,0.0,0.0,0.0,0.0,0.0,0.0,0.0,0.0,0.0,0.0,0.0,0.0,0.0,0.0,0.0,0.0,0.0,0.0,0.0,0.0,0.0,0.0,0.0,0.0,0.0,0.0,0.0,0.0,0.0,0.0,0.0,0.0,0.0,0.0,0.0,0.0,0.0,0.0,0.0,0.0,0.0,0.0,0.0,0.0,0.0,0.0,0.0,0.0,0.0,0.0,0.0,0.0,0.0,0.0,0.0,0.0,0.0,0.0,0.0,0.0,0.0,0.0,0.0,0.0,0.0,0.0,0.0,0.0,0.0,0.0,0.0,0.0,0.0,0.0,0.0,0.0,0.0,0.0,0.0,0.0,0.0,0.0,0.0,0.0,0.0,0.0,0.0,0.0,0.0,0.0,0.0,0.0,0.0,0.0,0.0,0.0,0.0,0.0,0.0,0.0,0.0,0.0,0.0,0.0,0.0,0.0,0.0,0.0,0.0,0.0,0.0,0.0,0.0,0.0,0.0,0.0,0.0,0.0,0.0,0.0,0.0,0.0,0.0,0.0,0.0,0.0,0.0,0.0,0.0,0.0,0.0,0.0,0.0,0.0,0.0,0.0,0.0,0.0,0.0,0.0,0.0,0.0,0.0,0.0,0.0,0.0,0.0,0.0,0.0,0.0,0.0,0.0,0.0,0.0,0.0,0.0,0.0,0.0,0.0,0.0,0.0,0.0,0.0,0.0,0.0,0.0,0.0,0.0,0.0,0.0,0.0,0.0,0.0,0.0,0.0,0.0,0.0,0.0,0.0,0.0,0.0,0.0,0.0,0.0,0.0,0.0,0.0,0.0,0.0,0.0,0.0,0.0,0.0,0.0,0.0,0.0,0.0,0.0,0.0,0.0,0.0,0.0,0.0,0.0,0.0,0.0,0.0,0.0,0.0,0.0,0.0,0.0,0.0,0.0,0.0,0.0,0.0,0.0,0.0,0.0,0.0,0.0,0.0,0.0,0.0,0.0,0.0,0.0,0.0,0.0,0.0,0.0,0.0,0.0,0.0,0.0,0.0,0.0,0.0,0.0,0.0,0.0,0.0,0.0,0.0,0.0,0.0,0.0,0.0,0.0,0.0,0.0,0.0,0.0,0.0,0.0,0.0,0.0,0.0,0.0,0.0,0.0,0.0,0.0,0.0,0.0,0.0,0.0,0.0,0.0,0.0,0.0,0.0,0.0,0.0,0.0,0.0,0.0,0.0,0.0,0.0,0.0,0.0,0.0,0.0,0.0,0.0,0.0,0.0,0.0,0.0,0.0,0.0,0.0,0.0,0.0,0.0,0.0,0.0,0.0,0.0,0.0,0.0,0.0,0.0,0.0,0.0,0.0,0.0,0.0,0.0,0.0,0.0,0.0,0.0,0.0,0.0,0.0,0.0,0.0,0.0,0.0,0.0,0.0,0.0,0.0,0.0,0.0,0.0,0.0,0.0,0.0,0.0,0.0,0.0,0.0,0.0,0.0,0.0,0.0,0.0,0.0,0.0,0.0,0.0,0.0,0.0,0.0,0.0,0.0,0.0,0.0,0.0,0.0,0.0,0.0,0.0,0.0,0.0,0.0,0.0,0.0,0.0,0.0,0.0,0.0,0.0,0.0,0.0,0.0,0.0,0.0,0.0,0.0,0.0,0.0,0.0,0.0,0.0,0.0,0.0,0.0,0.0,0.0,0.0,0.0,0.0,0.0,0.0,0.0,0.0,0.0,0.0,0.0,0.0,0.0,0.0,0.0,0.0,0.0,0.0,0.0,0.0,0.0,0.0,0.0,0.0,0.0,0.0,0.0,0.0,0.0,0.0,0.0,0.0,0.0,0.0,0.0,0.0,0.0,0.0,0.0,0.0,0.0,0.0,0.0,0.0,0.0,0.0,0.0,0.0,0.0,0.0,0.0,0.0,0.0,0.0,0.0,0.0,0.0,0.0,0.0,0.0,0.0,0.0,0.0,0.0,0.0,0.0,0.0,0.0,0.0,0.0,0.0,0.0,0.0,0.0,0.0,0.0,0.0,0.0,0.0,0.0,0.0,0.0,0.0,0.0,0.0,0.0,0.0,0.0,0.0,0.0,0.0,0.0,0.0,0.0,0.0,0.0,0.0,0.0,0.0,0.0,0.0,0.0,0.0,0.0,0.0,0.0,0.0,0.0,0.0,0.0,0.0,0.0,0.0,0.0,0.0,0.0,0.0,0.0,0.0,0.0,0.0,0.0,0.0,0.0,0.0,0.0,0.0,0.0,0.0,0.0,0.0,0.0,0.0,0.0,0.0,0.0,0.0,0.0,0.0,0.0,0.0,0.0,0.0,0.0,0.0,0.0,0.0,0.0,0.0,0.0,0.0,0.0,0.0,0.0,0.0,0.0,0.0,0.0,0.0,0.0,0.0,0.0,0.0,0.0,0.0,0.0,0.0,0.0,-2.7834,0.0,0.0,0.0,0.0,0.0,0.0,0.0,0.0,0.0,0.0,0.0,0.0,0.0,0.0,0.0,0.0,0.0,0.0,0.0,0.0,0.0,0.0,0.0,0.0,0.0,0.0,0.0,0.0,0.0,0.0,0.0,0.0,0.0,0.0,0.0,0.0,0.0,0.0,0.0,0.0,0.0,0.0,0.0,0.0,0.0,0.0,0.0,0.0,0.0,0.0,0.0,0.0,0.0,0.0,0.0,0.0,0.0,0.0,0.0,0.0,0.0,0.0,0.0,0.0,0.0,0.0,0.0,0.0,0.0,0.0,0.0,0.0,0.0,0.0,0.0,0.0,0.0,0.0,0.0,0.0,0.0,0.0,0.0,0.0,0.0,0.0,0.0,0.0,0.0,0.0,0.0,0.0,0.0,0.0,0.0,0.0,0.0,0.0,0.0,0.0,0.0,0.0,0.0,0.0,0.0,0.0,0.0,0.0,0.0,0.0,-2.9864,-3.0497,-2.9395,-2.8554,-2.8049,0.0,0.0,0.0,0.0,0.0,0.0,0.0,0.0,0.0,0.0,0.0,0.0,0.0,0.0,0.0,0.0,0.0,0.0,0.0,0.0,0.0,0.0,0.0,0.0,0.0,0.0,0.0,0.0,0.0,0.0,0.0,0.0,0.0,0.0,0.0,0.0,0.0,0.0,0.0,0.0,0.0,0.0,0.0,0.0,0.0,0.0,0.0,0.0,0.0,0.0,0.0,0.0,0.0,0.0,0.0,0.0,0.0,0.0,0.0,0.0,0.0,0.0,0.0,0.0,0.0,0.0,0.0,0.0,0.0,0.0,0.0,0.0,0.0,0.0,0.0,0.0,0.0,0.0,0.0,0.0,0.0,0.0,0.0,0.0,0.0,0.0,0.0,0.0,0.0,0.0,0.0,0.0,0.0,0.0,0.0,0.0,0.0,0.0,0.0,0.0,0.0,0.0,0.0,0.0,0.0,0.0,0.0,0.0,0.0,0.0,0.0,0.0,-2.9164,-2.8311,-2.7819,0.0,0.0,0.0,0.0,0.0,0.0,0.0,0.0,0.0,0.0,0.0,0.0,0.0,0.0,0.0,0.0,0.0,0.0,0.0,0.0,0.0,0.0,0.0,0.0,0.0,0.0,0.0,0.0,0.0,0.0,0.0,0.0,0.0,0.0,0.0,0.0,0.0,0.0,0.0,0.0,0.0,0.0,0.0,0.0,0.0,0.0,0.0,0.0,0.0,0.0,0.0,0.0,0.0,0.0,0.0,0.0,0.0,0.0,0.0,0.0,0.0,0.0,0.0,0.0,0.0,0.0,0.0,0.0,0.0,0.0,0.0,0.0,0.0,0.0,0.0,0.0,0.0,0.0,0.0,0.0,0.0,0.0,0.0,0.0,0.0,0.0,0.0,0.0,0.0,0.0,0.0,0.0,0.0,0.0,0.0,0.0,0.0,0.0,0.0,0.0,0.0,0.0,0.0,0.0,0.0,0.0,0.0,0.0,0.0,0.0,-2.8791,-2.9561,-2.95,0.0,-2.7175,0.0,0.0,0.0,0.0,0.0,0.0,0.0,0.0,0.0,0.0,0.0,0.0,0.0,0.0,0.0,0.0,0.0,0.0,0.0,0.0,0.0,0.0,0.0,0.0,0.0,0.0,0.0,0.0,0.0,0.0,0.0,0.0,0.0,0.0,0.0,0.0,0.0,0.0,0.0,0.0,0.0,0.0,0.0,0.0,0.0,0.0,0.0,0.0,0.0,0.0,0.0,0.0,0.0,0.0,0.0,0.0,0.0,0.0,0.0,0.0,0.0,0.0,0.0,0.0,0.0,0.0,0.0,0.0,0.0,0.0,0.0,0.0,0.0,0.0,0.0,0.0,0.0,0.0,0.0,0.0,0.0,0.0,0.0,0.0,0.0,0.0,0.0,0.0,0.0,0.0,0.0,0.0,0.0,0.0,0.0,0.0,0.0,0.0,0.0,0.0,0.0,0.0,0.0,0.0,0.0,0.0,0.0,0.0,0.0,0.0,0.0,-2.9471,-2.8562,-2.7471,0.0,0.0,0.0,0.0,0.0,0.0,0.0,0.0,0.0,0.0,0.0,0.0,0.0,0.0,0.0,0.0,0.0,0.0,0.0,0.0,0.0,0.0,0.0,0.0,0.0,0.0,0.0,0.0,0.0,0.0,0.0,0.0,0.0,0.0,0.0,0.0,0.0,0.0,0.0,0.0,0.0,0.0,0.0,0.0,0.0,0.0,0.0,0.0,0.0,0.0,0.0,0.0,0.0,0.0,0.0,0.0,0.0,0.0,0.0,0.0,0.0,0.0,0.0,0.0,0.0,0.0,0.0,0.0,0.0,0.0,0.0,0.0,0.0,0.0,0.0,0.0,0.0,0.0,0.0,0.0,0.0,0.0,0.0,0.0,0.0,0.0,0.0,0.0,0.0,0.0,0.0,0.0,0.0,0.0,0.0,0.0,0.0,0.0,0.0,0.0,0.0,0.0,0.0,0.0,0.0,0.0,0.0,0.0,0.0,0.0,-2.8271,0.0,-2.8686,-2.76,-2.6529,-2.5635,0.0,0.0,0.0,0.0,0.0,0.0,0.0,0.0,0.0,0.0,0.0,0.0,0.0,0.0,0.0,0.0,0.0,0.0,0.0,0.0,0.0,0.0,0.0,0.0,0.0,0.0,0.0,0.0,0.0,0.0,0.0,0.0,0.0,0.0,0.0,0.0,0.0,0.0,0.0,0.0,0.0,0.0,0.0,0.0,0.0,0.0,0.0,0.0,0.0,0.0,0.0,0.0,0.0,0.0,0.0,0.0,0.0,0.0,0.0,0.0,0.0,0.0,0.0,0.0,0.0,0.0,0.0,0.0,0.0,0.0,0.0,0.0,0.0,0.0,0.0,0.0,0.0,0.0,0.0,0.0,0.0,0.0,0.0,0.0,0.0,0.0,0.0,0.0,0.0,0.0,0.0,0.0,0.0,0.0,0.0,0.0,0.0,0.0,0.0,0.0,0.0,0.0,0.0,0.0,0.0,0.0,0.0,0.0,0.0,-2.7354,-2.7773,-2.6971,-2.6908,-2.6495,0.0,0.0,0.0,0.0,0.0,0.0,0.0,0.0,0.0,0.0,0.0,0.0,0.0,0.0,0.0,0.0,0.0,0.0,0.0,0.0,0.0,0.0,0.0,0.0,0.0,0.0,0.0,0.0,0.0,0.0,0.0,0.0,0.0,0.0,0.0,0.0,0.0,0.0,0.0,0.0,0.0,0.0,0.0,0.0,0.0,0.0,0.0,0.0,0.0,0.0,0.0,0.0,0.0,0.0,0.0,0.0,0.0,0.0,0.0,0.0,0.0,0.0,0.0,0.0,0.0,0.0,0.0,0.0,0.0,0.0,0.0,0.0,0.0,0.0,0.0,0.0,0.0,0.0,0.0,0.0,0.0,0.0,0.0,0.0,0.0,0.0,0.0,0.0,0.0,0.0,0.0,0.0,0.0,0.0,0.0,0.0,0.0,0.0,0.0,0.0,0.0,0.0,0.0,0.0,0.0,0.0,0.0,0.0,0.0,-2.6274,-2.6688,-2.6534,-2.5755,-2.5774,-2.572,0.0,0.0,0.0,0.0,0.0,0.0,0.0,0.0,0.0,0.0,0.0,0.0,0.0,0.0,0.0,0.0,0.0,0.0,0.0,0.0,0.0,0.0,0.0,0.0,0.0,0.0,0.0,0.0,0.0,0.0,0.0,0.0,0.0,0.0,0.0,0.0,0.0,0.0,0.0,0.0,0.0,0.0,0.0,0.0,0.0,0.0,0.0,0.0,0.0,0.0,0.0,0.0,0.0,0.0,0.0,0.0,0.0,0.0,0.0,0.0,0.0,0.0,0.0,0.0,0.0,0.0,0.0,0.0,0.0,0.0,0.0,0.0,0.0,0.0,0.0,0.0,0.0,0.0,0.0,0.0,0.0,0.0,0.0,0.0,0.0,0.0,0.0,0.0,0.0,0.0,0.0,0.0,0.0,0.0,0.0,0.0,0.0,0.0,0.0,0.0,0.0,0.0,0.0,0.0,0.0,0.0,0.0,0.0,0.0,-2.6084,0.0,-2.5042,0.0,-2.4883,-2.5136,0.0,0.0,0.0,0.0,0.0,0.0,0.0,0.0,0.0,0.0,0.0,0.0,0.0,0.0,0.0,0.0,0.0,0.0,0.0,0.0,0.0,0.0,0.0,0.0,0.0,0.0,0.0,0.0,0.0,0.0,0.0,0.0,0.0,0.0,0.0,0.0,0.0,0.0,0.0,0.0,0.0,0.0,0.0,0.0,0.0,0.0,0.0,0.0,0.0,0.0,0.0,0.0,0.0,0.0,0.0,0.0,0.0,0.0,0.0,0.0,0.0,0.0,0.0,0.0,0.0,0.0,0.0,0.0,0.0,0.0,0.0,0.0,0.0,0.0,0.0,0.0,0.0,0.0,0.0,0.0,0.0,0.0,0.0,0.0,0.0,0.0,0.0,0.0,0.0,0.0,0.0,0.0,0.0,0.0,0.0,0.0,0.0,0.0,0.0,0.0,0.0,0.0,0.0,0.0,0.0,0.0,0.0,0.0,-2.5912,-2.4929,-2.3741,-2.3213,-2.3556,-2.4221,-2.4783,0.0,0.0,0.0,0.0,0.0,0.0,0.0,0.0,0.0,0.0,0.0,0.0,0.0,0.0,0.0,0.0,0.0,0.0,0.0,0.0,0.0,0.0,0.0,0.0,0.0,0.0,0.0,0.0,0.0,0.0,0.0,0.0,0.0,0.0,0.0,0.0,0.0,0.0,0.0,0.0,0.0,0.0,0.0,0.0,0.0,0.0,0.0,0.0,0.0,0.0,0.0,0.0,0.0,0.0,0.0,0.0,0.0,0.0,0.0,0.0,0.0,0.0,0.0,0.0,0.0,0.0,0.0,0.0,0.0,0.0,0.0,0.0,0.0,0.0,0.0,0.0,0.0,0.0,0.0,0.0,0.0,0.0,0.0,0.0,0.0,0.0,0.0,0.0,0.0,0.0,0.0,0.0,0.0,0.0,0.0,0.0,0.0,0.0,0.0,0.0,0.0,0.0,0.0,0.0,0.0,0.0,0.0,0.0,0.0,-2.1559,-2.0471,-2.0164,-2.0806,-2.2377,-2.3593,0.0,0.0,0.0,0.0,0.0,0.0,0.0,0.0,0.0,0.0,0.0,0.0,0.0,0.0,0.0,0.0,0.0,0.0,0.0,0.0,0.0,0.0,0.0,0.0,0.0,0.0,0.0,0.0,0.0,0.0,0.0,0.0,0.0,0.0,0.0,0.0,0.0,0.0,0.0,0.0,0.0,0.0,0.0,0.0,0.0,0.0,0.0,0.0,0.0,0.0,0.0,0.0,0.0,0.0,0.0,0.0,0.0,0.0,0.0,0.0,0.0,0.0,0.0,0.0,0.0,0.0,0.0,0.0,0.0,0.0,0.0,0.0,0.0,0.0,0.0,0.0,0.0,0.0,0.0,0.0,0.0,0.0,0.0,0.0,0.0,0.0,0.0,0.0,0.0,0.0,0.0,0.0,0.0,0.0,0.0,0.0,0.0,0.0,0.0,0.0,0.0,0.0,0.0,0.0,0.0,0.0,0.0,0.0,0.0,-1.6327,-1.6309,-1.6915,-1.8251,-2.0387,-2.2175,-2.3512,0.0,0.0,0.0,0.0,0.0,0.0,0.0,0.0,0.0,0.0,0.0,0.0,0.0,0.0,0.0,0.0,0.0,0.0,0.0,0.0,0.0,0.0,0.0,0.0,0.0,0.0,0.0,0.0,0.0,0.0,0.0,0.0,0.0,0.0,0.0,0.0,0.0,0.0,0.0,0.0,0.0,0.0,0.0,0.0,0.0,0.0,0.0,0.0,0.0,0.0,0.0,0.0,0.0,0.0,0.0,0.0,0.0,0.0,0.0,0.0,0.0,0.0,0.0,0.0,0.0,0.0,0.0,0.0,0.0,0.0,0.0,0.0,0.0,0.0,0.0,0.0,0.0,0.0,0.0,0.0,0.0,0.0,0.0,0.0,0.0,0.0,0.0,0.0,0.0,0.0,0.0,0.0,0.0,0.0,0.0,0.0,0.0,0.0,0.0,0.0,0.0,0.0,0.0,0.0,0.0,0.0,0.0,0.0,-0.9791,-1.1315,-1.3334,-1.5854,-1.8293,-2.0584,0.0,0.0,0.0,0.0,0.0,0.0,0.0,0.0,0.0,0.0,0.0,0.0,0.0,0.0,0.0,0.0,0.0,0.0,0.0,0.0,0.0,0.0,0.0,0.0,0.0,0.0,0.0,0.0,0.0,0.0,0.0,0.0,0.0,0.0,0.0,0.0,0.0,0.0,0.0,0.0,0.0,0.0,0.0,0.0,0.0,0.0,0.0,0.0,0.0,0.0,0.0,0.0,0.0,0.0,0.0,0.0,0.0,0.0,0.0,0.0,0.0,0.0,0.0,0.0,0.0,0.0,0.0,0.0,0.0,0.0,0.0,0.0,0.0,0.0,0.0,0.0,0.0,0.0,0.0,0.0,0.0,0.0,0.0,0.0,0.0,0.0,0.0,0.0,0.0,0.0,0.0,0.0,0.0,0.0,0.0,0.0,0.0,0.0,0.0,0.0,0.0,0.0,0.0,0.0,0.0,0.0,0.0,0.0,0.0,-0.674,-0.5646,-0.749,-1.2422,-1.6025,-1.9202,0.0,0.0,0.0,0.0,0.0,0.0,0.0,0.0,0.0,0.0,0.0,0.0,0.0,0.0,0.0,0.0,0.0,0.0,0.0,0.0,0.0,0.0,0.0,0.0,0.0,0.0,0.0,0.0,0.0,0.0,0.0,0.0,0.0,0.0,0.0,0.0,0.0,0.0,0.0,0.0,0.0,0.0,0.0,0.0,0.0,0.0,0.0,0.0,0.0,0.0,0.0,0.0,0.0,0.0,0.0,0.0,0.0,0.0,0.0,0.0,0.0,0.0,0.0,0.0,0.0,0.0,0.0,0.0,0.0,0.0,0.0,0.0,0.0,0.0,0.0,0.0,0.0,0.0,0.0,0.0,0.0,0.0,0.0,0.0,0.0,0.0,0.0,0.0,0.0,0.0,0.0,0.0,0.0,0.0,0.0,0.0,0.0,0.0,0.0,0.0,0.0,0.0,0.0,0.0,0.0,0.0,0.0,0.0,-0.7083,-0.365,-0.2213,-0.378,-0.862,-1.3549,-1.764,0.0,0.0,0.0,0.0,0.0,0.0,0.0,0.0,0.0,0.0,0.0,0.0,0.0,0.0,0.0,0.0,0.0,0.0,0.0,0.0,0.0,0.0,0.0,0.0,0.0,0.0,0.0,0.0,0.0,0.0,0.0,0.0,0.0,0.0,0.0,0.0,0.0,0.0,0.0,0.0,0.0,0.0,0.0,0.0,0.0,0.0,0.0,0.0,0.0,0.0,0.0,0.0,0.0,0.0,0.0,0.0,0.0,0.0,0.0,0.0,0.0,0.0,0.0,0.0,0.0,0.0,0.0,0.0,0.0,0.0,0.0,0.0,0.0,0.0,0.0,0.0,0.0,0.0,0.0,0.0,0.0,0.0,0.0,0.0,0.0,0.0,0.0,0.0,0.0,0.0,0.0,0.0,0.0,0.0,0.0,0.0,0.0,0.0,0.0,0.0,0.0,0.0,0.0,0.0,0.0,0.0,0.0,0.0,-0.4654,-0.0867,-0.032,-0.1729,-0.5118,-1.1024,-1.6039,0.0,0.0,0.0,0.0,0.0,0.0,0.0,0.0,0.0,0.0,0.0,0.0,0.0,0.0,0.0,0.0,0.0,0.0,0.0,0.0,0.0,0.0,0.0,0.0,0.0,0.0,0.0,0.0,0.0,0.0,0.0,0.0,0.0,0.0,0.0,0.0,0.0,0.0,0.0,0.0,0.0,0.0,0.0,0.0,0.0,0.0,0.0,0.0,0.0,0.0,0.0,0.0,0.0,0.0,0.0,0.0,0.0,0.0,0.0,0.0,0.0,0.0,0.0,0.0,0.0,0.0,0.0,0.0,0.0,0.0,0.0,0.0,0.0,0.0,0.0,0.0,0.0,0.0,0.0,0.0,0.0,0.0,0.0,0.0,0.0,0.0,0.0,0.0,0.0,0.0,0.0,0.0,0.0,0.0,0.0,0.0,0.0,0.0,0.0,0.0,0.0,0.0,0.0,0.0,0.0,0.0,0.0,0.0,-0.2262,0.1059,0.0759,-0.1064,-0.4408,-0.9779,-1.4676,0.0,0.0,0.0,0.0,0.0,0.0,0.0,0.0,0.0,0.0,0.0,0.0,0.0,0.0,0.0,0.0,0.0,0.0,0.0,0.0,0.0,0.0,0.0,0.0,0.0,0.0,0.0,0.0,0.0,0.0,0.0,0.0,0.0,0.0,0.0,0.0,0.0,0.0,0.0,0.0,0.0,0.0,0.0,0.0,0.0,0.0,0.0,0.0,-2.4721,0.0,0.0,0.0,0.0,0.0,0.0,0.0,0.0,0.0,0.0,0.0,0.0,0.0,0.0,0.0,0.0,0.0,0.0,0.0,0.0,0.0,0.0,0.0,0.0,0.0,0.0,0.0,0.0,0.0,0.0,0.0,0.0,0.0,0.0,0.0,0.0,0.0,0.0,0.0,0.0,0.0,0.0,0.0,0.0,0.0,0.0,0.0,0.0,0.0,0.0,0.0,0.0,0.0,0.0,0.0,0.0,0.0,0.0,0.0,0.0336,0.2741,0.2061,0.0051,-0.3287,-0.8364,-1.3421,0.0,0.0,0.0,0.0,0.0,0.0,0.0,0.0,0.0,0.0,0.0,0.0,0.0,0.0,0.0,0.0,0.0,0.0,0.0,0.0,0.0,0.0,0.0,0.0,0.0,0.0,0.0,0.0,0.0,0.0,0.0,0.0,0.0,0.0,0.0,0.0,0.0,0.0,0.0,0.0,0.0,0.0,0.0,0.0,0.0,0.0,0.0,0.0,0.0,0.0,0.0,0.0,0.0,0.0,0.0,0.0,0.0,0.0,0.0,0.0,0.0,0.0,0.0,0.0,0.0,0.0,0.0,0.0,0.0,0.0,0.0,0.0,0.0,0.0,0.0,0.0,0.0,0.0,0.0,0.0,0.0,0.0,0.0,0.0,0.0,0.0,0.0,0.0,0.0,0.0,0.0,0.0,0.0,0.0,0.0,0.0,0.0,0.0,0.0,0.0,0.0,0.0,0.0,0.0,0.0,0.0,0.0,-0.0903,0.267,0.4194,0.3222,0.1082,-0.2163,-0.7094,-1.2326,-1.7707,0.0,0.0,0.0,0.0,0.0,0.0,0.0,0.0,0.0,0.0,0.0,0.0,0.0,0.0,0.0,0.0,0.0,0.0,0.0,0.0,0.0,0.0,0.0,0.0,0.0,0.0,0.0,0.0,0.0,0.0,0.0,0.0,0.0,0.0,0.0,0.0,0.0,0.0,-2.0162,-1.7866,0.0,0.0,0.0,0.0,0.0,0.0,0.0,0.0,-2.2749,0.0,0.0,0.0,0.0,0.0,0.0,0.0,0.0,0.0,0.0,0.0,0.0,0.0,0.0,0.0,0.0,0.0,0.0,0.0,0.0,0.0,0.0,0.0,0.0,0.0,0.0,0.0,0.0,0.0,0.0,0.0,0.0,0.0,0.0,0.0,0.0,0.0,0.0,0.0,0.0,0.0,0.0,0.0,0.0,0.0,0.0,0.0,0.0,0.0,0.0,0.0,0.0,0.0,0.0,0.0,0.0,-0.2959,0.0901,0.3822,0.5714,0.341,0.0742,-0.2162,-0.6659,-1.1557,-1.6792,0.0,0.0,0.0,0.0,0.0,0.0,0.0,0.0,0.0,0.0,0.0,0.0,0.0,0.0,0.0,0.0,0.0,0.0,0.0,0.0,0.0,0.0,0.0,0.0,0.0,0.0,0.0,0.0,0.0,0.0,0.0,0.0,0.0,0.0,0.0,0.0,0.0,0.0,0.0,-1.51,-1.4237,0.0,0.0,0.0,0.0,0.0,0.0,0.0,0.0,-2.0897,0.0,0.0,0.0,0.0,0.0,0.0,0.0,0.0,0.0,0.0,0.0,0.0,0.0,0.0,0.0,0.0,0.0,0.0,0.0,0.0,0.0,0.0,0.0,0.0,0.0,0.0,0.0,0.0,0.0,0.0,0.0,0.0,0.0,0.0,0.0,0.0,0.0,0.0,0.0,0.0,0.0,0.0,0.0,0.0,0.0,0.0,0.0,0.0,0.0,0.0,0.0,0.0,0.0,0.0,0.0,-0.1261,0.2708,0.5,0.5571,0.3529,0.0957,-0.2164,-0.6881,-1.1726,0.0,0.0,0.0,0.0,0.0,0.0,0.0,0.0,0.0,0.0,0.0,0.0,0.0,0.0,0.0,0.0,0.0,0.0,0.0,0.0,0.0,0.0,0.0,0.0,0.0,0.0,0.0,0.0,0.0,0.0,0.0,0.0,0.0,0.0,0.0,0.0,0.0,0.0,0.0,0.0,-1.255,-1.1289,-1.2011,0.0,0.0,0.0,0.0,0.0,0.0,-1.9048,-1.958,0.0,0.0,0.0,0.0,0.0,0.0,0.0,0.0,0.0,0.0,0.0,0.0,0.0,0.0,0.0,0.0,0.0,0.0,0.0,0.0,0.0,0.0,0.0,0.0,0.0,0.0,0.0,0.0,0.0,0.0,0.0,0.0,0.0,0.0,0.0,0.0,0.0,0.0,0.0,0.0,0.0,0.0,0.0,0.0,0.0,0.0,0.0,0.0,0.0,0.0,0.0,0.0,0.0,0.0,0.0,0.0304,0.4115,0.5767,0.5118,0.3606,0.1175,-0.2164,-0.7224,-1.2052,0.0,0.0,0.0,0.0,0.0,0.0,0.0,0.0,0.0,0.0,0.0,0.0,0.0,0.0,0.0,0.0,0.0,0.0,0.0,0.0,0.0,0.0,0.0,0.0,0.0,0.0,0.0,0.0,0.0,0.0,0.0,0.0,0.0,0.0,0.0,0.0,0.0,0.0,0.0,0.0,0.0,-0.8578,-0.9481,-1.171,0.0,0.0,0.0,0.0,-1.6478,-1.73,0.0,0.0,0.0,0.0,0.0,0.0,0.0,0.0,0.0,0.0,0.0,0.0,0.0,0.0,0.0,0.0,0.0,0.0,0.0,0.0,0.0,0.0,0.0,0.0,0.0,0.0,0.0,0.0,0.0,0.0,0.0,0.0,0.0,0.0,0.0,0.0,0.0,0.0,0.0,0.0,0.0,0.0,0.0,0.0,0.0,0.0,0.0,0.0,0.0,0.0,0.0,0.0,0.0,0.0,0.0,0.0,0.2542,0.4586,0.5486,0.5186,0.332,0.0823,-0.2169,-0.7169,-1.1969,0.0,0.0,0.0,0.0,0.0,0.0,0.0,0.0,0.0,0.0,0.0,0.0,0.0,0.0,0.0,0.0,0.0,0.0,0.0,0.0,0.0,0.0,0.0,0.0,0.0,0.0,0.0,0.0,0.0,0.0,0.0,0.0,0.0,0.0,0.0,0.0,0.0,0.0,0.0,0.0,0.0,-0.688,-0.6966,-0.9163,-1.1309,0.0,0.0,-1.4283,-1.4702,-1.5384,0.0,0.0,0.0,0.0,0.0,0.0,0.0,0.0,0.0,0.0,0.0,0.0,0.0,0.0,0.0,0.0,0.0,0.0,0.0,0.0,0.0,0.0,0.0,0.0,0.0,0.0,0.0,0.0,0.0,0.0,0.0,0.0,0.0,0.0,0.0,0.0,0.0,0.0,0.0,0.0,0.0,0.0,0.0,0.0,0.0,0.0,0.0,0.0,0.0,0.0,0.0,0.0,0.0,0.0,0.0,-0.1409,0.2946,0.4598,0.4988,0.4061,0.2446,0.026,-0.2465,-0.7374,-1.1847,0.0,0.0,0.0,0.0,0.0,0.0,0.0,0.0,0.0,0.0,0.0,0.0,0.0,0.0,0.0,0.0,0.0,0.0,0.0,0.0,0.0,0.0,0.0,0.0,0.0,0.0,0.0,0.0,0.0,0.0,0.0,0.0,0.0,0.0,0.0,0.0,0.0,0.0,0.0,0.0,0.0,0.0,-0.5339,-0.7636,0.0,0.0,0.0,-1.2746,-1.265,0.0,0.0,0.0,0.0,0.0,0.0,0.0,0.0,0.0,0.0,0.0,0.0,0.0,0.0,0.0,0.0,0.0,0.0,0.0,0.0,0.0,0.0,0.0,0.0,0.0,0.0,0.0,0.0,0.0,0.0,0.0,0.0,0.0,0.0,0.0,0.0,0.0,0.0,0.0,0.0,0.0,0.0,0.0,0.0,0.0,0.0,0.0,0.0,0.0,0.0,0.0,0.0,0.0,0.0,0.0,0.0,0.0,0.2985,0.4523,0.455,0.3078,0.1745,-0.0149,-0.2749,-0.7311,0.0,0.0,0.0,0.0,0.0,0.0,0.0,0.0,0.0,0.0,0.0,0.0,0.0,0.0,0.0,0.0,0.0,0.0,0.0,0.0,0.0,0.0,0.0,0.0,0.0,0.0,0.0,-2.2294,0.0,0.0,0.0,0.0,0.0,0.0,0.0,0.0,0.0,0.0,0.0,0.0,0.0,0.0,-0.4101,-0.4091,-0.6343,-0.8107,0.0,0.0,-1.1449,-1.092,-1.283,-1.4849,0.0,0.0,0.0,0.0,0.0,0.0,0.0,0.0,0.0,0.0,0.0,0.0,0.0,0.0,0.0,0.0,0.0,0.0,0.0,0.0,0.0,0.0,0.0,0.0,0.0,0.0,0.0,0.0,0.0,0.0,0.0,0.0,0.0,0.0,0.0,0.0,0.0,0.0,0.0,0.0,0.0,0.0,0.0,0.0,0.0,0.0,0.0,0.0,0.0,0.0,0.0,0.0,0.0,0.0,0.0,0.2828,0.4466,0.4491,0.2962,0.1719,-0.0149,-0.2748,-0.6946,-1.1181,0.0,0.0,0.0,0.0,0.0,0.0,0.0,0.0,0.0,0.0,0.0,0.0,0.0,0.0,0.0,0.0,0.0,0.0,0.0,0.0,0.0,0.0,0.0,0.0,0.0,0.0,0.0,0.0,0.0,0.0,0.0,0.0,0.0,0.0,0.0,0.0,0.0,0.0,0.0,0.0,0.0,-0.3176,-0.3188,-0.5137,-0.6702,0.0,0.0,-1.0221,-0.9872,-1.177,-1.3988,-1.5956,0.0,0.0,0.0,0.0,0.0,0.0,0.0,0.0,0.0,0.0,0.0,0.0,0.0,0.0,0.0,0.0,0.0,0.0,0.0,0.0,0.0,0.0,0.0,0.0,0.0,0.0,0.0,0.0,0.0,0.0,0.0,0.0,0.0,0.0,0.0,0.0,0.0,0.0,0.0,0.0,0.0,0.0,0.0,0.0,0.0,0.0,0.0,0.0,0.0,0.0,0.0,0.0,0.0,-0.021,0.2816,0.3561,0.3357,0.2201,0.0693,-0.111,-0.3175,-0.7071,-1.0676,0.0,0.0,0.0,0.0,0.0,0.0,0.0,0.0,0.0,0.0,0.0,0.0,0.0,0.0,0.0,0.0,0.0,0.0,0.0,0.0,0.0,0.0,0.0,0.0,0.0,0.0,0.0,0.0,-2.0671,-2.0603,-2.0891,0.0,0.0,0.0,0.0,0.0,0.0,0.0,0.0,0.0,0.0,-0.2412,-0.2444,-0.4232,0.0,0.0,-0.7771,-0.9005,-0.9606,-1.1625,-1.3583,-1.5107,-1.6808,0.0,0.0,0.0,0.0,0.0,0.0,0.0,0.0,0.0,0.0,0.0,0.0,0.0,0.0,0.0,0.0,0.0,0.0,0.0,0.0,0.0,0.0,0.0,0.0,0.0,0.0,0.0,0.0,0.0,0.0,0.0,0.0,0.0,0.0,0.0,0.0,0.0,0.0,0.0,0.0,0.0,0.0,0.0,0.0,0.0,0.0,0.0,0.0,0.0,0.0,0.0,0.0,-0.0941,0.2261,0.2634,0.2344,0.152,-0.0044,-0.1724,-0.3526,-0.691,-1.0023,0.0,0.0,0.0,0.0,0.0,0.0,0.0,0.0,0.0,0.0,0.0,0.0,0.0,0.0,0.0,0.0,0.0,0.0,0.0,0.0,0.0,0.0,0.0,0.0,0.0,0.0,0.0,0.0,-2.043,-2.0257,-2.0273,0.0,0.0,0.0,0.0,0.0,0.0,0.0,0.0,0.0,0.0,-0.1947,-0.2,-0.3803,-0.5289,-0.5929,-0.7086,-0.8371,-0.9497,-1.1239,-1.294,-1.4328,0.0,0.0,0.0,0.0,0.0,0.0,0.0,0.0,0.0,0.0,0.0,0.0,0.0,0.0,0.0,0.0,0.0,0.0,0.0,0.0,0.0,0.0,0.0,0.0,0.0,0.0,0.0,-2.148,0.0,0.0,-2.2054,0.0,0.0,0.0,0.0,0.0,0.0,0.0,0.0,0.0,0.0,0.0,0.0,0.0,0.0,0.0,0.0,0.0,0.0,0.0,0.0,0.0,0.0,-0.1898,0.0907,0.1651,0.1679,0.0941,-0.0267,-0.1768,-0.348,-0.6275,-0.9208,-1.2348,0.0,0.0,0.0,0.0,0.0,0.0,0.0,0.0,0.0,0.0,0.0,0.0,0.0,0.0,0.0,0.0,0.0,0.0,0.0,0.0,0.0,0.0,0.0,0.0,0.0,0.0,-1.971,-1.9139,-1.8449,0.0,0.0,0.0,0.0,0.0,0.0,0.0,0.0,0.0,0.0,-0.153,-0.184,-0.1974,-0.3784,-0.524,-0.587,-0.7136,-0.8458,-0.9513,-1.0605,-1.192,0.0,0.0,0.0,0.0,0.0,0.0,0.0,0.0,0.0,0.0,0.0,0.0,0.0,0.0,0.0,0.0,0.0,0.0,0.0,0.0,0.0,0.0,0.0,0.0,0.0,0.0,0.0,-1.9602,-1.9048,0.0,0.0,0.0,0.0,0.0,0.0,0.0,0.0,0.0,0.0,0.0,-1.2058,-1.2413,0.0,0.0,0.0,0.0,0.0,0.0,0.0,0.0,0.0,0.0,0.0,0.0,-0.2151,0.01,0.0969,0.1213,0.0897,-0.0668,-0.2127,-0.3482,-0.6231,-0.9568,-1.3519,0.0,0.0,0.0,0.0,0.0,0.0,0.0,0.0,0.0,0.0,0.0,0.0,0.0,0.0,0.0,0.0,0.0,0.0,0.0,0.0,0.0,0.0,0.0,0.0,0.0,-1.8406,0.0,0.0,0.0,0.0,0.0,0.0,0.0,0.0,0.0,0.0,0.0,-0.1429,-0.0502,-0.0826,-0.1416,-0.1939,-0.295,-0.3966,0.0,0.0,0.0,0.0,0.0,0.0,0.0,0.0,0.0,0.0,0.0,0.0,0.0,0.0,-1.4656,-1.4417,-1.3724,-1.3256,-1.3443,0.0,0.0,0.0,0.0,0.0,0.0,0.0,0.0,0.0,0.0,0.0,0.0,0.0,0.0,-1.8579,0.0,-1.8643,0.0,0.0,0.0,0.0,0.0,0.0,0.0,0.0,-1.4133,-1.3064,-1.1288,-1.1787,-1.2636,0.0,-1.4299,-1.5574,0.0,0.0,0.0,0.0,0.0,0.0,0.0,0.0,-0.3077,-0.0602,-0.0096,0.0138,0.0179,-0.1294,-0.2664,-0.3836,-0.6888,-1.0218,-1.3734,-1.5001,-1.6221,0.0,0.0,0.0,0.0,0.0,0.0,0.0,0.0,0.0,0.0,0.0,0.0,0.0,0.0,0.0,0.0,0.0,0.0,0.0,0.0,0.0,0.0,0.0,-1.6074,0.0,0.0,0.0,0.0,0.0,0.0,0.0,0.0,0.0,-0.3594,-0.1933,-0.0559,-0.0056,-0.0528,-0.1118,-0.1609,0.0,0.0,0.0,0.0,0.0,0.0,0.0,-1.1438,-1.2153,-1.2883,-1.3521,-1.394,-1.4207,-1.4014,-1.2935,0.0,0.0,-1.3269,-1.309,-1.2886,-1.2886,-1.2886,-1.2694,-1.1968,-1.1596,-1.1133,0.0,0.0,0.0,0.0,0.0,0.0,0.0,0.0,-1.8278,-1.8122,0.0,-1.8089,0.0,0.0,0.0,0.0,0.0,-1.7664,0.0,0.0,-1.3994,-1.3088,-1.1436,-1.1855,-1.2478,-1.3191,-1.3715,-1.482,-1.6434,-1.748,0.0,0.0,0.0,0.0,0.0,0.0,-0.4622,-0.1356,-0.1585,-0.1474,-0.0984,-0.2052,-0.3284,-0.4494,-0.8098,-1.0962,-1.2886,-1.4248,-1.5645,-1.7116,-1.7528,0.0,0.0,0.0,0.0,0.0,0.0,0.0,0.0,0.0,0.0,0.0,0.0,0.0,0.0,0.0,0.0,0.0,0.0,0.0,0.0,-1.3854,0.0,0.0,0.0,0.0,0.0,0.0,0.0,0.0,0.0,0.0,-0.2362,-0.0966,0.0,0.0,0.0,0.0,0.0,0.0,-0.3347,-0.42,-0.5567,-0.6985,-0.8367,-0.9453,-1.036,-1.1018,0.0,0.0,-1.2357,-1.3009,-1.3321,-1.3128,-1.2761,-1.2451,-1.2234,-1.2532,-1.2813,-1.2818,-1.2813,-1.2618,-1.1906,-1.1243,-1.0561,-1.6663,0.0,0.0,0.0,0.0,-1.8671,-1.823,-1.7446,-1.7161,-1.6882,-1.6689,-1.7416,0.0,0.0,0.0,0.0,0.0,0.0,-1.6003,-1.4688,-1.3738,-1.2783,-1.1892,-1.1875,-1.2362,-1.3258,-1.3424,-1.4163,-1.5318,-1.5287,-1.5734,-1.6585,0.0,0.0,0.0,0.0,-0.4804,-0.3331,-0.2322,-0.1741,-0.1562,-0.2318,-0.3627,-0.5559,-0.8198,-1.0487,-1.2367,-1.3546,-1.4999,-1.6835,-1.7199,0.0,0.0,0.0,0.0,0.0,0.0,0.0,0.0,0.0,0.0,0.0,0.0,0.0,0.0,0.0,0.0,0.0,0.0,0.0,-1.2516,-1.2452,-1.2455,0.0,0.0,0.0,0.0,0.0,0.0,0.0,0.0,0.0,-0.2197,-0.0925,0.0,0.0,0.0,-0.0432,-0.1049,-0.1461,-0.2084,-0.3155,-0.4226,0.0,-0.6381,-0.7788,-0.889,-0.9469,-1.0307,-1.1007,-1.1353,-1.213,-1.2528,-1.18,-1.2072,-1.2313,-1.1954,-1.193,-1.1974,-1.1985,-1.1985,-1.1861,-1.1429,-1.0653,-0.9919,-1.5538,-1.6959,-1.6927,-1.7257,-1.7725,-1.7892,-1.7584,-1.694,-1.7074,-1.6848,-1.642,-1.7181,-1.7761,-1.8145,-1.8665,0.0,0.0,0.0,-1.6111,-1.5097,-1.4181,-1.3317,-1.2536,-1.2425,-1.2583,-1.296,-1.3168,-1.3711,-1.4569,-1.4043,-1.4226,-1.5031,0.0,0.0,-1.0227,-0.7789,-0.5691,-0.4086,-0.3262,-0.2625,-0.2184,-0.3199,-0.4496,-0.6069,-0.8262,-1.0255,-1.2135,-1.3248,-1.4718,-1.6696,-1.7048,-1.7896,0.0,0.0,0.0,0.0,0.0,0.0,0.0,0.0,0.0,0.0,0.0,-2.0914,0.0,0.0,0.0,0.0,-1.168,-1.1111,-1.1032,-1.0902,0.0,0.0,0.0,0.0,0.0,0.0,0.0,-0.4644,-0.3021,-0.1888,-0.1675,-0.0706,0.0,0.0,0.0,-0.0159,-0.0611,0.0,-0.1421,-0.2414,-0.35,-0.4591,-0.5653,-0.6934,-0.8116,-0.9033,-0.9789,-1.0499,-1.0915,-1.1486,-1.1732,-1.1501,-1.1784,-1.1998,-1.1531,-1.1385,-1.1426,-1.1549,-1.1604,-1.1549,-1.1372,-1.0458,-0.9681,-1.5249,-1.58,-1.5843,-1.6534,-1.7554,-1.7309,-1.7238,-1.728,-1.7583,-1.7555,-1.7286,-1.7298,-1.7498,-1.7745,-1.7691,0.0,-1.6866,-1.6761,-1.6213,-1.5255,-1.4917,-1.4259,-1.3318,-1.3229,-1.3001,-1.2638,-1.3019,-1.3455,-1.3935,-1.3436,-1.3137,-1.3009,-1.2552,-1.1427,-0.966,-0.8758,-0.6877,-0.4001,-0.4254,-0.386,-0.2894,-0.4428,-0.5591,-0.6156,-0.8262,-1.026,-1.2124,-1.3269,-1.4765,-1.6714,-1.7102,-1.7683,-1.8579,0.0,0.0,0.0,0.0,0.0,0.0,0.0,0.0,0.0,0.0,0.0,0.0,0.0,0.0,0.0,-0.9252,0.0,-0.9699,-0.94,0.0,0.0,0.0,-0.8218,-0.6863,-0.6277,-0.5191,-0.3232,0.0,0.0,-0.1101,-0.0453,0.0,0.0,0.0,0.0,0.0,-0.0633,-0.1301,-0.1939,-0.3178,-0.4515,-0.5671,-0.6698,-0.7824,-0.9099,-0.9439,-0.9809,-1.0697,-1.0992,-1.1201,-1.1584,-1.1768,-1.1638,-1.1117,-1.1012,-1.1072,-1.1384,-1.1467,-1.1496,-1.1446,-1.0512,-0.9699,-1.5257,-1.5819,-1.6131,-1.6388,-1.6632,-1.6555,-1.6671,-1.6913,-1.6984,-1.6976,-1.6955,-1.7468,-1.7846,-1.8046,-1.75,-1.7048,-1.671,-1.5778,-1.5473,-1.5558,-1.4241,-1.3828,-1.4164,-1.3498,-1.3318,-1.3562,-1.3323,-1.3093,-1.2848,-1.2394,-1.1939,-1.1511,-1.1038,-1.0447,-0.9662,-0.832,-0.6873,-0.5261,-0.4701,-0.4256,-0.4035,-0.4824,-0.5768,-0.6765,-0.8484,-1.0265,-1.2124,-1.3481,-1.5096,-1.7003,-1.7404,-1.7994,-1.8856,-1.9108,0.0,0.0,0.0,0.0,0.0,0.0,0.0,0.0,0.0,-1.6937,-1.3984,0.0,-1.1212,0.0,-0.8672,-0.8738,-0.9438,-0.9156,0.0,0.0,-0.8994,-0.8141,-0.6384,-0.594,-0.5245,-0.3865,-0.3016,-0.2349,-0.1769,-0.112,-0.0494,0.0,0.0,0.0,0.0,-0.0518,-0.1145,-0.1773,-0.2536,-0.3643,-0.5209,-0.6361,-0.7514,-0.8683,-0.8878,-0.9239,-1.0264,-1.0759,-1.1046,-1.1207,-1.1542,-1.1536,-1.1094,-1.0978,-1.0868,-1.0688,-1.0629,-1.0698,-1.0968,-1.0256,-0.9496,-1.5737,-1.6102,-1.6446,-1.6599,-1.6658,-1.6698,-1.685,-1.7035,-1.7183,-1.7167,-1.7026,-1.7233,-1.7436,-1.752,-1.6999,-1.6672,-1.647,-1.5691,-1.5484,-1.5725,-1.4817,-1.4624,-1.504,-1.4596,-1.4139,-1.3702,-1.3311,-1.2815,-1.2277,-1.1501,-1.1049,-1.0928,-1.0308,-0.9856,-0.9577,-0.8536,-0.7281,-0.5935,-0.5189,-0.4652,-0.4428,-0.5281,-0.6266,-0.7321,-0.8906,-1.0708,-1.2709,-1.3923,-1.5285,-1.6782,-1.7181,-1.7656,-1.8359,-1.8682,-1.8872,0.0,0.0,0.0,0.0,0.0,0.0,0.0,0.0,0.0,0.0,0.0,-0.9913,-0.8327,-0.8184,-0.8349,-0.8679,-0.856,-0.8468,-0.8457,-0.8336,-0.7649,-0.6058,-0.5672,-0.5095,-0.3957,-0.3159,-0.2498,-0.1983,-0.1307,-0.0662,0.0,0.0,0.0,0.0,-0.0503,-0.1111,-0.1708,-0.2313,-0.3306,-0.5043,-0.6042,-0.7113,-0.8374,-0.8712,-0.9039,-1.0123,-1.0682,-1.0976,-1.1014,-1.1436,-1.1623,-1.1134,-1.0997,-1.0843,-1.0453,-1.0322,-1.038,-1.058,-1.0016,-0.9446,-1.6433,-1.6575,-1.6811,-1.7061,-1.7306,-1.7404,-1.7446,-1.7439,-1.7741,-1.7673,-1.7352,-1.6994,-1.6842,-1.6841,-1.6543,-1.6382,-1.634,-1.606,-1.5888,-1.5794,-1.5802,-1.5763,-1.565,-1.5641,-1.4857,-1.3477,-1.3019,-1.2535,-1.1864,-1.0842,-1.0464,-1.0676,-0.9925,-0.9442,-0.9325,-0.8818,-0.7766,-0.6221,-0.5583,-0.5,-0.4608,-0.5682,-0.6712,-0.775,-0.9408,-1.1256,-1.3204,-1.4326,-1.5343,-1.6275,-1.6618,-1.7009,-1.7513,-1.8015,-1.851,0.0,-1.9036,0.0,0.0,0.0,0.0,0.0,0.0,0.0,0.0,-0.9954,-0.8728,-0.7633,-0.7739,-0.7851,-0.7837,-0.7806,-0.7795,-0.776,-0.7561,-0.6956,-0.581,-0.5466,-0.4874,-0.3755,-0.3124,-0.2584,-0.2008,-0.1388,-0.0808,0.0,0.0,0.0,0.0,-0.0628,-0.1255,-0.1741,-0.2503,-0.3748,-0.5057,-0.5975,-0.6986,-0.8366,-0.8793,-0.9159,-1.0123,-1.0616,-1.09,-1.0938,-1.1314,-1.1483,-1.0992,-1.0928,-1.0827,-1.0385,-1.0322,-1.0322,-1.0322,-0.9968,-0.9449,-1.6954,-1.7388,-1.7478,-1.7906,-1.8469,-1.8379,-1.8232,-1.8031,-1.8103,-1.7962,-1.7673,-1.7238,-1.7101,-1.7175,-1.7022,-1.6833,-1.6712,-1.6633,-1.6339,-1.5793,-1.5821,-1.5412,-1.4698,-1.471,-1.4241,-1.3232,-1.2357,-1.1765,-1.1439,-1.0658,-1.014,-0.9847,-0.9348,-0.8903,-0.8451,0.0,0.0,0.0,-0.5384,-0.5124,-0.5441,-0.5784,-0.662,-0.7978,-0.9805,0.0,-1.22,-1.3998,-1.511,-1.5358,-1.5882,0.0,0.0,0.0,0.0,0.0,0.0,0.0,0.0,0.0,0.0,0.0,-1.3851,-1.2298,-1.0982,-0.905,-0.7853,-0.7802,-0.7669,-0.7567,-0.7576,-0.735,-0.7178,-0.7141,-0.7118,-0.6624,-0.5538,-0.5328,-0.4877,-0.3755,-0.3488,-0.3216,-0.2586,-0.2003,-0.1383,-0.0763,-0.0315,0.0,0.0,-0.094,-0.1652,-0.1876,-0.3399,-0.4785,-0.5272,-0.6485,-0.7562,-0.8569,-0.9075,-0.954,-1.0118,-1.0326,-1.0413,-1.0432,-1.084,-1.0982,-1.0522,-1.0737,-1.0786,-1.037,-1.0317,-1.0322,-1.0322,-1.022,-0.9992,-1.7515,0.0,-1.8092,-1.8397,0.0,-1.8788,-1.8706,-1.8594,-1.8441,-1.833,-1.8187,-1.7954,-1.7873,-1.7924,-1.7566,-1.7353,-1.7239,-1.6952,-1.6406,-1.5718,-1.5482,-1.4932,-1.4063,-1.4257,-1.3892,-1.2982,-1.246,-1.1823,-1.1061,-1.0213,-0.9704,-0.9562,-0.8998,-0.8685,-0.8579,-0.7921,-0.6996,-0.5763,-0.5628,-0.5522,-0.5511,-0.6092,-0.6978,-0.8172,-0.9756,0.0,0.0,0.0,0.0,0.0,0.0,0.0,0.0,0.0,0.0,-1.5391,-1.6178,-1.6345,-1.5601,-1.5222,-1.495,-1.4748,-1.2591,-1.0861,-0.9853,-0.7983,-0.6916,-0.7058,-0.6668,-0.6537,-0.681,-0.6696,-0.6732,-0.6933,-0.6975,-0.6638,-0.591,-0.5483,-0.4973,-0.4162,-0.376,-0.3352,-0.2762,-0.2178,-0.1558,-0.0988,0.0,0.0,0.0,-0.1029,-0.1963,-0.2584,-0.349,-0.4542,-0.5042,-0.5857,-0.7049,-0.7883,-0.8536,-0.9043,-0.9553,-0.9658,-0.9655,-0.9678,-0.9856,-0.9895,-0.9763,-0.9849,-0.9953,-0.9768,-0.9814,-0.9958,-0.9963,-1.0123,-1.0162,-1.7754,-1.8234,-1.8467,-1.8619,-1.8779,-1.9013,-1.9141,-1.9134,0.0,0.0,0.0,-1.8622,-1.8622,-1.8566,-1.8094,-1.7902,-1.7808,-1.7147,-1.6467,-1.5774,-1.5296,-1.4601,-1.3736,-1.4216,-1.3858,-1.2712,-1.2591,-1.1963,-1.088,-0.9887,-0.9397,-0.9322,-0.8705,-0.8483,-0.8579,-0.7885,-0.6834,-0.5486,-0.587,-0.5926,-0.5511,-0.6367,-0.7279,-0.8162,-0.9571,-1.0907,-1.2146,-1.3095,-1.3644,-1.3669,-1.3726,-1.3845,-1.4073,-1.4205,-1.4505,-1.5019,-1.5058,-1.5109,-1.5234,-1.4426,-1.3951,-1.4016,-1.161,-0.9708,-0.8793,-0.7179,-0.6179,-0.6179,-0.5658,-0.5508,-0.5996,-0.6149,-0.6349,-0.6813,-0.694,-0.6768,-0.609,-0.5612,-0.5017,-0.4344,-0.3853,-0.3353,-0.2765,-0.2178,-0.1558,-0.0984,-0.0397,-0.0088,-0.0264,-0.1096,-0.2155,-0.3204,-0.3696,-0.4022,-0.4709,-0.5544,-0.6166,-0.7476,-0.8076,-0.8514,-0.8855,-0.9013,-0.8992,-0.9067,-0.9009,-0.9028,-0.9018,-0.908,-0.899,-0.9009,-0.9246,-0.9508,-0.9539,-0.9781,-0.9958,-1.7084,-1.7969,-1.8162,-1.8367,-1.8618,-1.9379,-1.9682,-1.9648,-1.9137,-1.8807,-1.8622,-1.8729,-1.872,-1.8613,-1.8635,-1.8579,-1.8417,-1.7478,-1.6845,-1.6428,-1.5801,-1.4832,-1.373,-1.495,-1.4424,-1.2385,-1.2053,-1.1585,-1.0873,-1.0122,-0.9467,-0.8912,-0.8512,-0.8028,-0.7407,-0.7225,-0.6694,-0.5837,-0.5807,-0.5903,-0.6156,-0.6434,-0.6941,-0.7792,-0.9402,-1.0381,-1.0619,-1.2062,-1.2727,-1.2463,-1.2673,-1.2819,-1.2883,-1.3436,-1.3563,-1.3128,-1.3904,-1.4191,-1.3613,-1.3572,-1.3158,-1.2205,-1.0883,-0.9692,-0.8772,-0.7182,-0.6179,-0.6179,-0.5615,-0.5318,-0.5466,-0.5887,-0.6181,-0.6346,-0.6725,-0.6592,-0.5612,-0.5348,-0.4874,-0.3932,-0.367,-0.3396,-0.2752,-0.2163,-0.1584,-0.0972,-0.0378,-0.016,-0.0688,-0.124,-0.2109,-0.3204,-0.4018,-0.442,-0.4741,-0.6191,-0.7007,-0.7548,-0.8232,-0.869,-0.8733,-0.8801,-0.8805,-0.8955,-0.8843,-0.8892,-0.8899,-0.8993,-0.8921,-0.8913,-0.8987,-0.9091,-0.9097,-0.9188,-0.9405,-1.6994,-1.755,-1.7664,-1.7765,-1.7888,-1.8295,-1.8446,-1.8424,-1.8185,-1.8487,-1.9134,-1.9191,-1.9182,-1.9093,-1.8481,-1.8223,-1.8232,-1.7312,-1.6428,-1.5641,-1.5596,-1.4773,-1.344,-1.4113,-1.3689,-1.2262,-1.2228,-1.1766,-1.0913,-1.0158,-0.9468,-0.8789,-0.8231,-0.7686,-0.7143,-0.7123,-0.672,-0.5927,-0.6036,-0.6139,-0.6099,-0.657,-0.7109,-0.769,-0.8889,-0.9523,-0.9609,-1.0632,-1.1045,-1.0728,-1.1288,-1.1608,-1.1647,-1.228,-1.2524,-1.2197,-1.2658,-1.2889,-1.2741,-1.2588,-1.2173,-1.1337,-1.0118,-0.9206,-0.8727,-0.6855,-0.5717,-0.5696,-0.492,-0.4491,-0.4757,-0.5055,-0.5346,-0.5698,-0.5953,-0.5865,-0.5389,-0.5,-0.4602,-0.4077,-0.3697,-0.3253,-0.2768,-0.2116,-0.15,-0.0947,-0.04,-0.0259,-0.0811,-0.1206,-0.1804,-0.2752,-0.3559,-0.4106,-0.4421,-0.5409,-0.6309,-0.6626,-0.7389,-0.7793,-0.7725,-0.7695,-0.7713,-0.7617,-0.7695,-0.78,-0.794,-0.8155,-0.8263,-0.8304,-0.8529,-0.8633,-0.8681,-0.8837,-0.9224,-1.6743,-1.7104,-1.7121,-1.7245,-1.7415,-1.7415,-1.7406,-1.7406,-1.7434,-1.8063,-1.9066,-1.9114,-1.9072,-1.8972,-1.8041,-1.7681,-1.7647,-1.6856,-1.5912,-1.504,-1.5043,-1.4392,-1.3242,-1.3346,-1.3007,-1.2364,-1.2443,-1.1961,-1.0933,-1.0138,-0.931,-0.848,-0.7778,-0.73,-0.7126,-0.7046,-0.6693,-0.6125,-0.6432,-0.6406,-0.5921,-0.6531,-0.7074,-0.7509,-0.8171,-0.8649,-0.8894,-0.9421,-0.9688,-0.9632,-1.0237,-1.0651,-1.0785,-1.1289,-1.1647,-1.176,-1.1731,-1.1791,-1.2007,-1.1753,-1.1366,-1.0793,-0.9557,-0.8684,-0.8246,-0.6434,-0.5255,-0.5168,-0.4318,-0.3796,-0.418,-0.4347,-0.4609,-0.5043,-0.5216,-0.5265,-0.5087,-0.465,-0.4297,-0.4148,-0.3641,-0.3098,-0.2516,-0.1951,-0.1407,-0.0911,-0.0412,-0.0394,-0.0894,-0.124,-0.1747,-0.2323,-0.3128,-0.3784,-0.4148,-0.4844,-0.5422,-0.5766,-0.6335,-0.6619,-0.6538,-0.652,-0.6553,-0.6563,-0.6606,-0.6881,-0.7091,-0.7195,-0.7383,-0.7538,-0.7722,-0.7822,-0.7881,-0.8203,-0.8756,-1.5743,-1.6438,-1.6596,-1.7093,-1.7646,-1.7694,-1.7665,-1.7675,-1.7742,-1.7735,-1.7756,-1.7576,-1.7556,-1.7507,-1.7418,-1.7275,-1.7126,-1.6149,-1.5551,-1.5187,-1.4125,-1.3588,-1.3514,-1.3437,-1.3112,-1.2562,-1.2366,-1.1752,-1.0768,-1.0031,-0.8911,-0.7529,-0.6807,-0.6804,-0.7098,-0.695,-0.6729,-0.6557,-0.6944,-0.67,-0.5889,-0.6116,-0.6474,-0.6876,-0.7483,-0.8039,-0.8525,-0.8948,-0.9386,-0.981,-0.9922,-1.0222,-1.0711,-1.0849,-1.116,-1.173,-1.1504,-1.1328,-1.1304,-1.1276,-1.0929,-1.0387,-0.9415,-0.843,-0.7462,-0.5908,-0.5034,-0.5045,-0.4264,-0.3668,-0.3707,-0.4091,-0.4393,-0.4476,-0.4897,-0.5087,-0.4593,-0.443,-0.4127,-0.348,-0.3329,-0.29,-0.2005,-0.163,-0.133,-0.0744,-0.0615,-0.0677,-0.1076,-0.158,-0.191,-0.2256,-0.31,-0.3857,-0.4111,-0.4766,-0.5243,-0.544,-0.5619,-0.5848,-0.5981,-0.6041,-0.6097,-0.6154,-0.6314,-0.6496,-0.6684,-0.6684,-0.6453,-0.6848,-0.679,-0.6453,-0.6651,-0.708,-0.7726,-1.5404,-1.5693,-1.5753,-1.5964,-1.6239,-1.6258,-1.6258,-1.6271,-1.6249,-1.6263,-1.6233,-1.6149,-1.6754,-1.7805,-1.698,-1.6734,-1.6886,-1.5562,-1.4908,-1.4773,-1.4277,-1.3893,-1.3565,-1.3015,-1.2472,-1.1992,-1.1487,-1.0735,-0.9856,-0.905,-0.8195,-0.7355,-0.7213,-0.7247,-0.7205,-0.7223,-0.7041,-0.6717,-0.676,-0.6543,-0.617,-0.6512,-0.6968,-0.7343,-0.7704,-0.7909,-0.8116,-0.8479,-0.8653,-0.859,-0.9032,-0.9402,-0.967,-1.0236,-1.0704,-1.0959,-1.084,-1.0765,-1.0719,-1.0129,-0.9806,-0.9811,-0.852,-0.7586,-0.7377,-0.5765,-0.4772,-0.4736,-0.4101,-0.358,-0.3617,-0.379,-0.3924,-0.3953,-0.405,-0.4023,-0.3771,-0.3684,-0.3479,-0.321,-0.3113,-0.2723,-0.1813,-0.1276,-0.0875,-0.0471,-0.0484,-0.0794,-0.0976,-0.1536,-0.2101,-0.249,-0.3397,-0.3868,-0.388,-0.4227,-0.4733,-0.5012,-0.5314,-0.5538,-0.5506,-0.5592,-0.5653,-0.5666,-0.5758,-0.5864,-0.5989,-0.614,-0.6121,-0.6265,-0.6349,-0.6144,-0.6221,-0.6515,-0.7025,-1.4557,-1.4547,-1.4736,-1.5002,-1.5227,-1.5227,-1.5227,-1.5227,-1.5236,-1.5255,-1.5293,-1.5331,-1.6112,-1.7231,-1.6344,-1.6103,-1.6254,-1.5207,-1.4464,-1.4187,-1.4094,-1.3702,-1.3076,-1.2378,-1.1783,-1.1319,-1.0792,-0.9945,-0.8913,-0.8237,-0.7642,-0.7228,-0.7348,-0.7354,-0.7225,-0.7309,-0.7195,-0.6911,-0.6713,-0.6524,-0.6481,-0.6808,-0.7155,-0.739,-0.7535,-0.7636,-0.7733,-0.7958,-0.7954,-0.7731,-0.8288,-0.8705,-0.8907,-0.9539,-0.9961,-1.0155,-1.0167,-1.0215,-1.0251,-0.9534,-0.9145,-0.9176,-0.7967,-0.7213,-0.6912,-0.5621,-0.4642,-0.4306,-0.373,-0.3298,-0.3451,-0.3454,-0.3453,-0.3444,-0.3304,-0.3244,-0.3237,-0.3142,-0.3091,-0.3046,-0.2972,-0.2632,-0.1827,-0.1141,-0.0638,-0.0503,-0.057,-0.0837,-0.1073,-0.1731,-0.2347,-0.2737,-0.3494,-0.3865,-0.3726,-0.3966,-0.4328,-0.4553,-0.4898,-0.4933,-0.5024,-0.5165,-0.5195,-0.5197,-0.5193,-0.5231,-0.5369,-0.5551,-0.5424,-0.5312,-0.5404,-0.5642,-0.5648,-0.5909,-0.612,-1.2817,-1.2957,-1.366,-1.4475,-1.5266,-1.5272,-1.5285,-1.5269,-1.5281,-1.5291,-1.5246,-1.5355,-1.5464,-1.5611,-1.5388,-1.533,-1.5314,-1.5004,-1.4375,-1.3555,-1.3177,-1.2606,-1.1868,-1.1501,-1.116,-1.0781,-1.0475,-0.9664,-0.8321,-0.79,-0.7428,-0.6967,-0.6866,-0.6867,-0.7192,-0.7153,-0.7056,-0.7203,-0.697,-0.6851,-0.6802,-0.6693,-0.6614,-0.6635,-0.668,-0.7026,-0.7516,-0.7404,-0.7453,-0.7863,-0.7952,-0.8256,-0.8792,-0.8696,-0.8933,-0.9531,-0.9633,-0.9719,-0.9888,-0.9766,-0.9508,-0.8929,-0.8351,-0.7577,-0.6426,-0.5428,-0.4597,-0.3925,-0.316,-0.2823,-0.3063,-0.3099,-0.3135,-0.3125,-0.3105,-0.309,-0.3092,-0.31,-0.3038,-0.294,-0.2828,-0.2553,-0.2003,-0.1209,-0.0973,-0.0972,-0.0905,-0.0971,-0.1662,-0.2258,-0.2591,-0.2887,-0.3317,-0.369,-0.405,-0.4034,-0.4114,-0.4411,-0.4511,-0.4308,-0.4521,-0.4727,-0.4732,-0.4736,-0.4767,-0.4811,-0.4829,-0.4653,-0.4326,-0.4258,-0.4483,-0.4692,-0.4972,-0.4911,-0.5149,-1.2529,-1.2581,-1.3377,-1.3911,-1.4259,-1.4798,-1.5057,-1.511,-1.512,-1.4855,-1.462,-1.5072,-1.5336,-1.5313,-1.4579,-1.4081,-1.3814,-1.3985,-1.3643,-1.2903,-1.2669,-1.2332,-1.1865,-1.1469,-1.0939,-1.0314,-0.9697,-0.9034,-0.837,-0.8132,-0.7987,-0.7878,-0.7981,-0.8016,-0.7908,-0.7884,-0.7876,-0.7823,-0.7134,-0.6694,-0.6574,-0.6125,-0.5827,-0.5888,-0.6596,-0.7223,-0.7709,-0.7672,-0.7768,-0.8031,-0.7948,-0.796,-0.8056,-0.8057,-0.8255,-0.8699,-0.8755,-0.8951,-0.9278,-0.9148,-0.8967,-0.8795,-0.8218,-0.7468,-0.6463,-0.5543,-0.4743,-0.4,-0.339,-0.3032,-0.2842,-0.278,-0.2708,-0.2731,-0.2851,-0.2946,-0.2964,-0.2903,-0.2805,-0.2732,-0.2548,-0.2222,-0.2007,-0.1471,-0.1172,-0.1239,-0.094,-0.1091,-0.1665,-0.2055,-0.2381,-0.304,-0.3502,-0.3885,-0.4243,-0.4002,-0.3944,-0.4365,-0.4559,-0.4668,-0.4838,-0.4737,-0.4751,-0.4624,-0.4564,-0.4329,-0.4338,-0.4095,-0.3703,-0.3752,-0.3931,-0.4142,-0.428,-0.4552,-0.4838,-1.1702,-1.2006,-1.2538,-1.2957,-1.3319,-1.4136,-1.4357,-1.4233,-1.4475,-1.4185,-1.3679,-1.3963,-1.4244,-1.4203,-1.3077,-1.2294,-1.2041,-1.2707,-1.2752,-1.2144,-1.1815,-1.1503,-1.1242,-1.0946,-1.052,-0.9895,-0.9208,-0.8738,-0.8544,-0.8537,-0.8528,-0.858,-0.8848,-0.8683,-0.8242,-0.8135,-0.7987,-0.7533,-0.6725,-0.6237,-0.6142,-0.567,-0.5423,-0.5634,-0.6341,-0.6919,-0.7277,-0.72,-0.736,-0.7661,-0.759,-0.7424,-0.7308,-0.7363,-0.7566,-0.7879,-0.7989,-0.8358,-0.8945,-0.8726,-0.8577,-0.8745,-0.8114,-0.7345,-0.6563,-0.5719,-0.4878,-0.4113,-0.3449,-0.292,-0.258,-0.2398,-0.2397,-0.249,-0.2603,-0.2693,-0.2797,-0.2609,-0.2564,-0.263,-0.2494,-0.2278,-0.2171,-0.1806,-0.1605,-0.1539,-0.1173,-0.1178,-0.1652,-0.1952,-0.2266,-0.3128,-0.3625,-0.4025,-0.4368,-0.4312,-0.42,-0.4531,-0.4643,-0.4806,-0.4892,-0.4784,-0.4616,-0.4509,-0.4281,-0.3978,-0.3727,-0.351,-0.3478,-0.3506,-0.3647,-0.3882,-0.4128,-0.4417,-0.4775,-1.0144,-1.0864,-1.1052,-1.1614,-1.2321,-1.317,-1.3142,-1.2768,-1.3431,-1.3289,-1.2547,-1.2069,-1.2311,-1.2244,-1.1024,-1.0076,-1.0383,-1.142,-1.1732,-1.1336,-1.063,-1.0206,-1.0085,-1.0037,-0.9867,-0.9574,-0.9197,-0.9035,-0.9005,-0.8936,-0.8902,-0.9034,-0.8905,-0.8499,-0.7814,-0.764,-0.7146,-0.6541,-0.6012,-0.5651,-0.5563,-0.5361,-0.5332,-0.5609,-0.5769,-0.5922,-0.6186,-0.5918,-0.625,-0.6956,-0.6812,-0.6624,-0.6729,-0.6713,-0.6803,-0.7145,-0.7301,-0.7929,-0.8857,-0.8656,-0.8475,-0.8617,-0.8111,-0.7394,-0.6503,-0.5751,-0.4986,-0.4138,-0.3392,-0.2709,-0.2341,-0.2199,-0.2246,-0.2555,-0.227,-0.227,-0.2427,-0.2252,-0.2179,-0.2479,-0.2509,-0.2646,-0.2577,-0.2206,-0.1934,-0.1891,-0.1509,-0.1339,-0.1779,-0.204,-0.2527,-0.3219,-0.3785,-0.4257,-0.4514,-0.4711,-0.471,-0.4724,-0.4699,-0.4762,-0.4794,-0.4728,-0.4375,-0.4198,-0.3737,-0.3458,-0.3462,-0.3305,-0.346,-0.353,-0.3629,-0.3794,-0.4123,-0.448,-0.4872,-0.9574,-0.9924,-1.0457,-1.053,-1.0539,-1.181,-1.2299,-1.2219,-1.2626,-1.2423,-1.1942,-1.1661,-1.1291,-1.0758,-1.0065,-0.983,-0.9891,-1.0368,-1.0541,-1.047,-1.027,-1.0092,-0.9979,-0.9954,-0.9849,-0.971,-0.9608,-0.9545,-0.9419,-0.8949,-0.8683,-0.865,-0.815,-0.7852,-0.768,-0.7439,-0.7176,-0.7068,-0.6121,-0.5508,-0.5239,-0.4883,-0.4656,-0.4587,-0.4788,-0.4986,-0.5178,-0.5666,-0.6364,-0.7184,-0.685,-0.6709,-0.691,-0.6759,-0.6722,-0.6919,-0.6875,-0.7361,-0.8293,-0.8186,-0.8088,-0.828,-0.8188,-0.7438,-0.6356,-0.6093,-0.5538,-0.4613,-0.4131,-0.3822,-0.3431,-0.3078,-0.257,-0.184,-0.1877,-0.1877,-0.1706,-0.1604,-0.1602,-0.1732,-0.2034,-0.2204,-0.2201,-0.1996,-0.207,-0.2142,-0.1519,-0.1209,-0.1945,-0.1925,-0.2392,-0.3562,-0.4052,-0.4599,-0.5026,-0.52,-0.5122,-0.488,-0.4724,-0.463,-0.4664,-0.4329,-0.4018,-0.3626,-0.319,-0.3022,-0.3046,-0.3178,-0.333,-0.3643,-0.385,-0.4066,-0.4282,-0.4578,-0.4913,-0.9099,-0.9238,-0.9727,-0.9728,-0.9506,-1.0835,-1.1254,-1.1159,-1.1515,-1.1333,-1.088,-1.0735,-1.0359,-0.98,-0.9638,-0.9612,-0.9577,-0.9636,-0.975,-0.9873,-1.0057,-1.0062,-0.997,-0.9978,-0.9986,-0.9925,-0.9917,-0.9742,-0.9438,-0.89,-0.8476,-0.8116,-0.7554,-0.7132,-0.701,-0.6765,-0.6629,-0.6318,-0.5528,-0.5001,-0.4703,-0.4341,-0.4248,-0.444,-0.4648,-0.4898,-0.5184,-0.5656,-0.6098,-0.6498,-0.6329,-0.6394,-0.6746,-0.6527,-0.6485,-0.6714,-0.6806,-0.7146,-0.791,-0.7796,-0.7808,-0.8109,-0.8012,-0.7458,-0.6545,-0.6415,-0.5776,-0.5039,-0.4663,-0.4364,-0.3815,-0.3508,-0.2697,-0.147,-0.1405,-0.1237,-0.0768,-0.0733,-0.0799,-0.0899,-0.1234,-0.1475,-0.1523,-0.1704,-0.1795,-0.1892,-0.1421,-0.1168,-0.1922,-0.1951,-0.2893,-0.3823,-0.4457,-0.5035,-0.5651,-0.5695,-0.5537,-0.5141,-0.4722,-0.4594,-0.4505,-0.3744,-0.3232,-0.273,-0.2276,-0.237,-0.2415,-0.2845,-0.3126,-0.3552,-0.3933,-0.4121,-0.4264,-0.4551,-0.4884,-0.8666,-0.8782,-0.8921,-0.9088,-0.9259,-1.0051,-1.0037,-0.9561,-1.0195,-1.0132,-0.9493,-0.9555,-0.9475,-0.9375,-0.9341,-0.9314,-0.9232,-0.9286,-0.9332,-0.9467,-0.9706,-0.9858,-0.9897,-0.9945,-0.9977,-1.0047,-0.997,-0.957,-0.8965,-0.8484,-0.8215,-0.7359,-0.691,-0.6597,-0.5936,-0.5682,-0.5367,-0.5001,-0.4595,-0.4384,-0.4043,-0.3862,-0.4148,-0.5002,-0.5101,-0.5403,-0.5888,-0.5905,-0.5652,-0.5424,-0.5695,-0.6078,-0.6221,-0.6079,-0.6137,-0.6623,-0.6792,-0.7062,-0.7475,-0.7453,-0.7583,-0.7962,-0.7507,-0.7018,-0.6784,-0.6244,-0.5811,-0.531,-0.4849,-0.4335,-0.3734,-0.3379,-0.2659,-0.1435,-0.0666,-0.0066,0.0633,0.0433,0.0333,0.0166,-0.0233,-0.0607,-0.0631,-0.0956,-0.1219,-0.1214,-0.1174,-0.1434,-0.1978,-0.2418,-0.316,-0.4086,-0.5101,-0.5645,-0.6307,-0.6081,-0.5855,-0.5186,-0.4594,-0.4053,-0.3813,-0.3023,-0.2378,-0.188,-0.1576,-0.1669,-0.2,-0.2452,-0.2919,-0.3361,-0.3676,-0.3956,-0.4292,-0.4614,-0.4984,-0.8417,-0.8375,-0.8502,-0.8542,-0.8561,-0.9055,-0.9157,-0.8998,-0.9423,-0.9387,-0.9054,-0.9276,-0.9211,-0.899,-0.9139,-0.9157,-0.9059,-0.9067,-0.9017,-0.8998,-0.9148,-0.9501,-0.9761,-0.9839,-0.9908,-0.994,-0.9465,-0.897,-0.8582,-0.7407,-0.6569,-0.6095,-0.5362,-0.5023,-0.4975,-0.4791,-0.5041,-0.5365,-0.5054,-0.421,-0.3248,-0.3435,-0.3984,-0.4687,-0.4996,-0.5606,-0.6434,-0.6731,-0.6403,-0.571,-0.6324,-0.6848,-0.7009,-0.6333,-0.6086,-0.6623,-0.6543,-0.6535,-0.6838,-0.6837,-0.6949,-0.7252,-0.6994,-0.6554,-0.6239,-0.6051,-0.5849,-0.5598,-0.509,-0.4645,-0.4483,-0.3797,-0.248,-0.0631,0.0463,0.1349,0.188,0.1997,0.1911,0.1831,0.1081,0.0634,0.0422,-0.0057,-0.0515,-0.0475,-0.0655,-0.1244,-0.1942,-0.257,-0.3174,-0.4991,-0.609,-0.6486,-0.6732,-0.6505,-0.6053,-0.5259,-0.435,-0.3195,-0.2738,-0.2019,-0.1522,-0.1086,-0.0931,-0.0955,-0.1573,-0.2141,-0.2617,-0.3116,-0.3634,-0.4023,-0.4413,-0.475,-0.5186,-0.7976,-0.7918,-0.8112,-0.8171,-0.8196,-0.8506,-0.8634,-0.865,-0.8827,-0.8826,-0.8726,-0.8925,-0.8905,-0.8678,-0.8843,-0.8913,-0.8818,-0.877,-0.8663,-0.858,-0.8695,-0.9095,-0.9504,-0.9633,-0.968,-0.9697,-0.8978,-0.8417,-0.7809,-0.6491,-0.5587,-0.4972,-0.4273,-0.4057,-0.4125,-0.3549,-0.3485,-0.4106,-0.4597,-0.431,-0.2901,-0.2889,-0.3668,-0.446,-0.5022,-0.5715,-0.6896,-0.7341,-0.7062,-0.6376,-0.6208,-0.6433,-0.6947,-0.5895,-0.5663,-0.6461,-0.6254,-0.6112,-0.6212,-0.621,-0.6406,-0.6733,-0.666,-0.6671,-0.6635,-0.6516,-0.637,-0.6079,-0.5526,-0.5163,-0.4704,-0.3647,-0.2091,-0.0532,0.1185,0.2393,0.305,0.3295,0.3438,0.3177,0.2536,0.1897,0.2052,0.1361,0.0879,0.0709,0.064,-0.0598,-0.1901,-0.248,-0.3453,-0.5246,-0.6589,-0.6971,-0.7227,-0.7083,-0.6383,-0.5564,-0.368,-0.253,-0.1664,-0.0998,-0.0556,-0.0223,-0.0201,-0.04,-0.1019,-0.1705,-0.2378,-0.2916,-0.3557,-0.4079,-0.441,-0.4828,-0.5273,-0.7487,-0.7487,-0.7709,-0.7883,-0.8007,-0.824,-0.8327,-0.8335,-0.8383,-0.8379,-0.8358,-0.8479,-0.8465,-0.8309,-0.8417,-0.8508,-0.8477,-0.833,-0.8219,-0.8172,-0.8268,-0.8577,-0.9056,-0.9238,-0.9314,-0.9245,-0.8605,-0.7756,-0.6895,-0.593,-0.4946,-0.4212,-0.3801,-0.3596,-0.3447,-0.2578,-0.1854,-0.2037,-0.3238,-0.3451,-0.2613,-0.2491,-0.3183,-0.4363,-0.5321,-0.605,-0.7151,-0.7778,-0.7848,-0.7326,-0.5914,-0.5747,-0.6101,-0.4659,-0.4726,-0.5428,-0.5418,-0.5258,-0.537,-0.5318,-0.5796,-0.627,-0.6496,-0.6905,-0.717,-0.6996,-0.6631,-0.657,-0.6132,-0.5318,-0.435,-0.2972,-0.1769,-0.0466,0.1352,0.2822,0.3669,0.4265,0.4521,0.4456,0.3494,0.3252,0.342,0.3153,0.2313,0.1316,0.0864,-0.0899,-0.2263,-0.3149,-0.4165,-0.5524,-0.6554,-0.733,-0.7551,-0.7689,-0.6802,-0.5789,-0.3253,-0.1636,-0.0659,0.0,0.0486,0.0728,0.0588,0.0202,-0.0358,-0.109,-0.1969,-0.2313,-0.2664,-0.3505,-0.4297,-0.4768,-0.5227,-0.7423,-0.7251,-0.7202,-0.7262,-0.7435,-0.7782,-0.7932,-0.7946,-0.8096,-0.8032,-0.8002,-0.8172,-0.8045,-0.7724,-0.7884,-0.7977,-0.7951,-0.779,-0.7658,-0.7658,-0.767,-0.7843,-0.8194,-0.8481,-0.8784,-0.8575,-0.7458,-0.6656,-0.6013,-0.4796,-0.375,-0.3537,-0.31,-0.3088,-0.3107,-0.271,-0.1989,0.0,0.0,-0.1462,-0.185,-0.2251,-0.2895,-0.387,-0.5244,-0.6301,-0.7123,-0.87,-0.9631,-0.9255,-0.7815,-0.5571,-0.3886,-0.3323,-0.3361,-0.3558,-0.3572,-0.3386,-0.3421,-0.3981,-0.476,-0.5307,-0.5685,-0.6331,-0.7077,-0.6564,-0.6486,-0.6576,-0.599,-0.4916,-0.3598,-0.2882,-0.1628,-0.01,0.1487,0.2825,0.3366,0.3818,0.412,0.3909,0.3234,0.2678,0.3449,0.2404,0.1896,0.1763,0.0448,-0.14,-0.2637,-0.371,-0.4691,-0.5756,-0.6379,-0.6963,-0.6651,-0.693,-0.6765,-0.5924,-0.3669,-0.121,-0.0227,0.0457,0.0735,0.1026,0.1264,0.0681,-0.0379,-0.086,-0.1835,-0.1813,-0.2088,-0.3235,-0.4272,-0.4743,-0.5826,-0.7033,-0.6917,-0.6848,-0.6916,-0.7112,-0.7469,-0.7612,-0.7504,-0.7356,-0.7387,-0.7533,-0.7669,-0.7576,-0.7359,-0.7292,-0.7321,-0.7404,-0.7211,-0.7183,-0.7336,-0.7433,-0.7398,-0.7141,-0.7252,-0.7406,-0.7558,-0.632,-0.5537,-0.4939,-0.3988,-0.3051,-0.2498,-0.209,-0.1785,-0.1851,-0.1837,-0.1097,0.0,0.0,-0.0406,-0.133,-0.1914,-0.2265,-0.237,-0.3165,-0.358,-0.4339,-0.6092,-0.7266,-0.7204,-0.5617,-0.3417,-0.1298,-0.0369,-0.0293,-0.0824,-0.0717,-0.1053,-0.1517,-0.2045,-0.2739,-0.3924,-0.4289,-0.5226,-0.6004,-0.6056,-0.6315,-0.6572,-0.5859,-0.4454,-0.2385,-0.1634,-0.0626,0.0633,0.1926,0.2745,0.3102,0.3702,0.4216,0.4127,0.368,0.3752,0.3502,0.2595,0.2341,0.2631,0.021,-0.1649,-0.3162,-0.4172,-0.4808,-0.5638,-0.6205,-0.6356,-0.5798,-0.5914,-0.6458,-0.5763,-0.4589,-0.2135,-0.0304,0.0258,0.0728,0.0953,0.1068,-0.0066,-0.1031,-0.1413,-0.2211,-0.2924,-0.3537,-0.3926,-0.4391,-0.511,-0.6614,-0.6568,-0.6546,-0.6583,-0.668,-0.6901,-0.7235,-0.731,-0.7109,-0.6669,-0.6782,-0.6995,-0.7099,-0.7125,-0.6932,-0.6805,-0.6868,-0.686,-0.6656,-0.6597,-0.6934,-0.7076,-0.673,-0.6306,-0.608,-0.5989,-0.6261,-0.5209,-0.4538,-0.4141,-0.3355,-0.2316,-0.1475,-0.0902,-0.0561,-0.0149,0.0076,0.0067,0.0,0.0,-0.0439,-0.124,-0.1517,-0.1424,-0.0904,-0.0305,0.0,-0.0647,-0.1767,-0.3235,-0.4658,-0.1469,0.0814,0.2241,0.3034,0.3697,0.2254,0.2194,0.1741,0.0862,0.0186,-0.0724,-0.2193,-0.2849,-0.3719,-0.5009,-0.5328,-0.5561,-0.5624,-0.501,-0.326,-0.0891,0.0031,0.0939,0.2045,0.2749,0.2918,0.3188,0.403,0.4587,0.4214,0.3987,0.4077,0.4155,0.371,0.3594,0.2949,0.0414,-0.1945,-0.35,-0.4748,-0.5495,-0.5226,-0.5565,-0.5439,-0.4896,-0.7688,-0.7886,-0.5332,-0.4619,-0.2204,0.0,0.0,0.0,0.0,0.0387,-0.0905,-0.2254,-0.3239,-0.398,-0.4566,-0.4119,-0.3581,-0.4264,-0.5452,-0.6955,-0.6468,-0.6289,-0.6499,-0.6638,-0.6678,-0.6891,-0.6974,-0.6931,-0.6779,-0.6591,-0.6367,-0.6709,-0.6478,-0.6335,-0.6665,-0.6657,-0.633,-0.6005,-0.5983,-0.6264,-0.631,-0.5863,-0.5235,-0.5068,-0.5021,-0.4461,-0.3961,-0.3793,-0.3401,-0.2427,-0.1516,-0.0777,-0.0181,0.0369,0.0793,0.104,0.0802,0.0405,0.0082,-0.034,-0.0649,-0.0628,-0.0333,0.0402,0.1193,0.2214,0.3521,0.3306,0.0981,-0.3804,0.0399,0.4269,0.6211,0.6205,0.5459,0.481,0.4497,0.427,0.372,0.2174,0.1016,-0.0246,-0.1711,-0.3155,-0.3912,-0.3891,-0.3974,-0.4004,-0.3199,-0.1461,0.019,0.1309,0.258,0.3577,0.4082,0.4208,0.4388,0.4922,0.5182,0.4628,0.4374,0.4362,0.4709,0.4736,0.4326,0.3072,0.0494,-0.2257,-0.4516,-0.5657,-0.6535,-0.5781,-0.4772,-0.4418,-0.3925,-0.8115,-0.9984,-0.5563,-0.3513,-0.1015,0.0,0.0,0.0,0.0,-0.0549,-0.2359,-0.3662,-0.4839,-0.4889,-0.4848,-0.3936,-0.2944,-0.3771,-0.4756,-0.5715,-0.5968,-0.6212,-0.649,-0.6589,-0.6616,-0.6695,-0.6659,-0.6482,-0.6119,-0.5962,-0.585,-0.5599,-0.5655,-0.5928,-0.6074,-0.6006,-0.5671,-0.536,-0.5455,-0.5705,-0.5436,-0.5073,-0.4252,-0.3998,-0.3622,-0.3251,-0.3025,-0.2939,-0.2868,-0.1684,-0.0796,-0.0129,0.0469,0.0973,0.1353,0.1581,0.1384,0.0943,0.0604,0.0212,-0.0054,0.0227,0.0949,0.1391,0.2384,0.3764,0.4972,0.5184,0.3347,0.1014,0.3542,0.6452,0.7846,0.8319,0.7774,0.7264,0.7212,0.6893,0.625,0.4547,0.3306,0.1583,-0.0302,-0.2008,-0.257,-0.2421,-0.2021,-0.2606,-0.2406,-0.0835,0.1049,0.2454,0.3575,0.4596,0.5351,0.5639,0.5695,0.6332,0.6228,0.58,0.5925,0.6059,0.5913,0.5687,0.5065,0.3178,0.0751,-0.1619,-0.4139,-0.5431,-0.5796,-0.3318,-0.1795,-0.1978,-0.1696,-0.4589,-0.8032,-0.4837,-0.1953,0.0534,0.0,0.0,0.0,0.0,-0.0896,-0.2745,-0.4861,-0.5932,-0.5519,-0.5126,-0.4345,-0.3738,-0.358,-0.4014,-0.4806,-0.5505,-0.6147,-0.6409,-0.6502,-0.6524,-0.6517,-0.6377,-0.6053,-0.5512,-0.5456,-0.5548,-0.4913,-0.5054,-0.5631,-0.5613,-0.5342,-0.5115,-0.4808,-0.4862,-0.5013,-0.4818,-0.4445,-0.3466,-0.2973,-0.2484,-0.2707,-0.2369,-0.1996,-0.2081,-0.1181,-0.0292,0.0275,0.0885,0.122,0.1407,0.1672,0.1675,0.1524,0.1358,0.0911,0.0663,0.1317,0.2054,0.2116,0.3321,0.4458,0.5451,0.5575,0.5059,0.4534,0.6026,0.7926,0.8273,0.9203,0.9668,0.9596,1.003,0.9391,0.8583,0.7305,0.6108,0.4833,0.2714,0.1073,0.0305,0.0843,0.0549,-0.0885,-0.1512,-0.0326,0.1912,0.3774,0.5107,0.6218,0.7195,0.7667,0.7625,0.8005,0.8714,0.8424,0.8078,0.783,0.7713,0.7402,0.6908,0.6244,0.3935,0.362,0.0984,-0.2603,-0.2701,0.0348,0.1763,0.1158,0.0934,0.0605,-0.18,-0.1404,0.0816,0.2861,0.5375,0.0,0.5477,0.3314,0.0097,-0.1824,-0.443,-0.6932,-0.7237,-0.6779,-0.5377,-0.3908,-0.2592,-0.244,-0.3123,-0.5433,-0.5949,-0.6082,-0.6201,-0.6248,-0.6236,-0.6123,-0.5925,-0.5781,-0.5539,-0.5293,-0.5469,-0.5372,-0.5237,-0.5071,-0.4963,-0.4739,-0.4394,-0.4153,-0.4261,-0.4253,-0.3496,-0.2313,-0.3,-0.2368,-0.2173,-0.1998,-0.1912,-0.1514,-0.0715,-0.0012,0.055,0.085,0.1043,0.1286,0.1585,0.1421,0.127,0.138,0.1276,0.117,0.2147,0.2863,0.3395,0.3862,0.4645,0.5697,0.6034,0.5962,0.6023,0.7198,0.8089,0.8338,0.8987,0.976,1.0284,1.0797,1.1221,1.093,1.0133,0.8924,0.8096,0.7361,0.6784,0.6058,0.4607,0.3805,0.3227,0.1148,0.0472,0.2587,0.5676,0.7711,0.8907,0.9581,0.9804,0.9785,0.9802,1.05,1.0491,0.9982,0.9742,0.9581,0.9224,0.8809,0.8133,0.7491,0.7006,0.6118,0.2605,0.0695,0.3698,0.4394,0.3766,0.3492,0.3177,0.292,0.2339,0.3438,0.4943,0.6537,0.8317,0.9063,0.6557,0.3128,-0.0659,-0.3549,-0.5977,-0.8227,-0.7946,-0.5894,-0.3239,-0.0583,-0.0919,-0.1585,-0.5337,-0.5694,-0.5771,-0.5912,-0.6021,-0.6034,-0.5894,-0.5708,-0.5652,-0.5465,-0.5172,-0.5325,-0.5286,-0.5059,-0.5134,-0.4861,-0.4393,-0.402,-0.378,-0.3497,-0.3419,-0.2948,-0.2574,-0.231,-0.1878,-0.1322,-0.0862,-0.0572,-0.0423,-0.0435,-0.0028,0.0895,0.1068,0.125,0.1328,0.1571,0.1599,0.1576,0.1628,0.1801,0.225,0.3086,0.4099,0.5035,0.511,0.5746,0.651,0.673,0.7028,0.7184,0.7915,0.8299,0.8788,0.938,0.9992,1.0762,1.0993,1.1185,1.1322,1.1835,1.0999,1.0186,1.0458,1.2062,1.1361,0.8817,0.661,0.6053,0.2256,0.0,0.0,0.4969,0.7712,0.9662,1.1386,1.137,1.1408,1.1938,1.2158,1.204,1.1742,1.1026,1.0436,1.0018,0.948,0.8901,0.8573,0.8411,0.8697,0.8083,0.6911,0.7178,0.6945,0.6021,0.5866,0.5702,0.5737,0.541,0.5428,0.6667,0.7098,0.8219,0.8768,0.9239,0.704,0.2929,-0.1702,-0.4496,-0.6298,-0.636,-0.6118,-0.2017,0.1696,0.0315,-0.1288,-0.5146,-0.5411,-0.5532,-0.5662,-0.5795,-0.58,-0.5652,-0.5411,-0.5406,-0.5291,-0.5151,-0.5122,-0.5083,-0.4976,-0.5011,-0.4666,-0.398,-0.3851,-0.3587,-0.3143,-0.2817,-0.2696,-0.2363,-0.1835,-0.1067,-0.0208,0.0363,0.0606,0.0511,0.043,0.0655,0.1321,0.1257,0.1348,0.1534,0.1735,0.1843,0.1887,0.1966,0.2246,0.2789,0.3854,0.4891,0.5723,0.6355,0.6857,0.7658,0.7583,0.7656,0.8095,0.8243,0.8599,0.9077,0.968,1.0146,1.0744,1.0971,1.1093,1.1514,1.1895,1.1581,1.136,1.1718,1.4022,1.4016,1.115,0.8655,0.8061,0.2892,0.0,0.0,0.0,0.6614,0.9717,1.2465,1.2435,1.2354,1.2395,1.2329,1.1988,1.1573,1.1082,1.0606,1.0408,1.0026,0.9569,0.9506,0.9554,1.0027,1.0574,0.9944,0.8963,0.8605,0.7581,0.7085,0.726,0.7681,0.7852,0.7828,0.7817,0.7876,0.7771,0.795,0.8391,0.8645,0.5961,0.0964,-0.1693,-0.423,-0.5273,-0.4869,0.0882,0.3689,0.2213,0.0288,-0.4888,-0.5146,-0.5392,-0.5498,-0.553,-0.5525,-0.5387,-0.5175,-0.5146,-0.5132,-0.5088,-0.5078,-0.4913,-0.4679,-0.4579,-0.4401,-0.4055,-0.3702,-0.3381,-0.3182,-0.3047,-0.2633,-0.2137,-0.1438,-0.0687,0.0216,0.1001,0.1494,0.1614,0.1315,0.1402,0.1502,0.1409,0.135,0.1468,0.1762,0.1985,0.2122,0.2329,0.26,0.3256,0.4206,0.5299,0.5647,0.6439,0.7265,0.7872,0.7934,0.8169,0.8739,0.8803,0.9126,0.9603,1.0019,1.0447,1.0892,1.115,1.1209,1.1438,1.2044,1.2497,1.2718,1.323,1.3961,1.3977,1.4771,1.2868,0.892,0.3899,0.0,0.0,0.1069,0.482,0.8717,1.1434,1.2443,1.2287,1.2156,1.2058,1.1786,1.1225,1.0446,0.9734,0.9322,0.956,0.9136,0.938,0.9458,1.009,1.053,1.0072,0.9537,0.9587,0.8861,0.7798,0.7886,0.8234,0.8252,0.8153,0.8089,0.8026,0.7817,0.7178,0.6794,0.6721,0.5272,0.4102,0.14,-0.1461,-0.4646,-0.3751,0.1168,0.4379,0.4038,0.2704,-0.4527,-0.4626,-0.4893,-0.5088,-0.5248,-0.5248,-0.5209,-0.5112,-0.5093,-0.5093,-0.5064,-0.5083,-0.5006,-0.4809,-0.4613,-0.4365,-0.4092,-0.3784,-0.3422,-0.3076,-0.2805,-0.2448,-0.1803,-0.1108,-0.0307,0.0393,0.1275,0.1807,0.1758,0.1771,0.1655,0.1548,0.1567,0.1629,0.1728,0.1767,0.1934,0.2209,0.2636,0.3084,0.409,0.5212,0.6275,0.6821,0.7605,0.8303,0.8711,0.8763,0.9013,0.9231,0.9314,0.9778,1.032,1.0605,1.0973,1.1453,1.1683,1.1511,1.1455,1.2124,1.2958,1.3572,1.355,1.3369,1.3522,1.3947,1.1986,0.8518,0.5301,0.2235,0.0,0.0,0.2363,0.6902,0.9828,1.1349,1.1892,1.1577,1.1233,1.0731,1.0025,0.9264,0.8574,0.7928,0.8351,0.8718,0.9052,0.9466,1.0034,1.0447,1.0043,0.9967,1.0024,0.9814,0.8777,0.8737,0.885,0.8734,0.8588,0.8338,0.808,0.684,0.6213,0.5642,0.5003,0.4083,0.3516,0.3433,0.1584,-0.1285,-0.1562,0.0437,0.2974,0.5315,0.4787,-0.4232,-0.4309,-0.4507,-0.4686,-0.4868,-0.4947,-0.4986,-0.4971,-0.4873,-0.479,-0.4711,-0.4847,-0.4847,-0.4705,-0.4637,-0.4347,-0.4051,-0.382,-0.3584,-0.3264,-0.2891,-0.2495,-0.1883,-0.1011,0.0018,0.0634,0.1311,0.1873,0.1929,0.1757,0.1686,0.1727,0.1822,0.1862,0.1724,0.1799,0.1889,0.2166,0.2818,0.3601,0.4616,0.5883,0.6915,0.7569,0.8295,0.8787,0.9055,0.9156,0.935,0.9612,0.9919,1.0488,1.1072,1.1544,1.1801,1.2151,1.2367,1.2077,1.207,1.2222,1.292,1.3232,1.3097,1.2925,1.2871,1.2565,1.0937,0.9516,0.638,0.0,0.0,0.0,0.0,0.5033,0.7866,0.9507,1.0222,1.0249,0.9947,0.9558,0.8987,0.8664,0.8546,0.8068,0.8077,0.8377,0.8353,0.8935,0.9774,1.0089,1.0056,1.013,1.0385,1.0123,0.975,0.9685,0.9635,0.9647,0.9358,0.863,0.7985,0.672,0.5502,0.4899,0.4175,0.3206,0.3267,0.3791,0.3319,0.2259,0.286,0.3839,0.4621,0.6947,0.6911,-0.4048,-0.4293,-0.4289,-0.4309,-0.4354,-0.4611,-0.4706,-0.4666,-0.4486,-0.4212,-0.4038,-0.4451,-0.442,-0.4085,-0.4254,-0.4159,-0.397,-0.386,-0.3709,-0.3397,-0.3074,-0.285,-0.2062,-0.1006,0.0231,0.1292,0.1885,0.2166,0.2193,0.1987,0.187,0.1945,0.2082,0.2073,0.1687,0.1757,0.1945,0.2291,0.3105,0.3907,0.4862,0.6107,0.7042,0.7706,0.8369,0.8858,0.9284,0.9284,0.9537,1.0098,1.0486,1.0988,1.1461,1.2512,1.2722,1.2354,1.2991,1.3046,1.2821,1.2298,1.2398,1.2692,1.2675,1.2237,1.1302,1.0834,1.0883,0.978,0.5686,0.1692,0.0,0.0,0.0,0.2699,0.5616,0.7603,0.8342,0.8988,0.8686,0.8878,0.8677,0.8395,0.8526,0.8449,0.8192,0.8096,0.7856,0.8345,0.9265,0.9843,0.9938,1.0338,1.0639,1.0685,1.0457,1.0441,1.0411,1.0453,0.9961,0.9023,0.8048,0.6908,0.5725,0.4499,0.36,0.2877,0.3609,0.4512,0.4748,0.5356,0.7057,0.8035,0.8398,0.8093,0.7774,-0.3689,-0.379,-0.3969,-0.3931,-0.3848,-0.4248,-0.443,-0.4406,-0.4321,-0.4219,-0.4154,-0.4361,-0.4348,-0.4151,-0.3999,-0.3969,-0.389,-0.3671,-0.3527,-0.346,-0.3141,-0.2587,-0.186,-0.088,0.0288,0.1319,0.2057,0.253,0.2524,0.2305,0.233,0.2414,0.2476,0.2448,0.237,0.2419,0.2603,0.3102,0.3762,0.4475,0.5402,0.6405,0.7227,0.7759,0.8379,0.9025,0.9589,0.9494,0.9942,1.0793,1.131,1.1557,1.2319,1.3458,1.3541,1.3534,1.4135,1.3994,1.3595,1.3162,1.2933,1.2822,1.2495,1.1943,1.118,1.0571,1.0519,0.9758,0.6087,0.2578,0.0,0.0,0.0755,0.1708,0.3918,0.5643,0.6683,0.732,0.7621,0.8216,0.8325,0.8414,0.8535,0.8651,0.8459,0.815,0.7925,0.7773,0.8424,0.9436,0.9906,1.0464,1.0828,1.1077,1.1123,1.0973,1.0628,1.0419,0.9829,0.8915,0.7933,0.6928,0.5504,0.4038,0.3319,0.2726,0.3385,0.4474,0.7186,0.8783,0.9481,0.9648,0.9194,0.8551,0.7923,-0.3509,-0.3527,-0.3689,-0.3668,-0.3587,-0.3973,-0.4113,-0.4068,-0.4187,-0.4207,-0.4064,-0.4105,-0.4081,-0.3941,-0.3762,-0.372,-0.3723,-0.3499,-0.3379,-0.3312,-0.3007,-0.2347,-0.1549,-0.0521,0.0921,0.1858,0.2591,0.3041,0.2968,0.2746,0.2712,0.2818,0.2931,0.3045,0.3023,0.3053,0.3072,0.3539,0.4091,0.4722,0.5619,0.6495,0.7163,0.7841,0.8552,0.9313,0.9833,1.0205,1.0576,1.1599,1.2146,1.2341,1.336,1.3964,1.4107,1.4317,1.4141,1.4087,1.3972,1.3521,1.3182,1.2872,1.2542,1.1773,1.0757,0.9691,0.8731,0.7737,0.6277,0.3877,0.1195,0.0536,0.0766,0.1732,0.2837,0.4632,0.5876,0.6572,0.7329,0.7892,0.8617,0.8675,0.8696,0.8688,0.8709,0.835,0.8017,0.7861,0.7792,0.8783,0.9811,1.0407,1.0906,1.1174,1.1322,1.1373,1.0978,1.0467,0.9671,0.8839,0.7765,0.6691,0.5134,0.3733,0.3141,0.2751,0.2931,0.4332,0.724,0.9224,1.0201,1.0136,0.9779,0.9333,0.8808,-0.3485,-0.3509,-0.3509,-0.3509,-0.3548,-0.379,-0.3751,-0.359,-0.4031,-0.3973,-0.3548,-0.3786,-0.3765,-0.3503,-0.3263,-0.3281,-0.3454,-0.3263,-0.3245,-0.3092,-0.2896,-0.2139,-0.1115,0.0152,0.1601,0.2834,0.3556,0.3633,0.3511,0.3345,0.3222,0.3244,0.3434,0.3622,0.3664,0.3619,0.3633,0.3993,0.4424,0.5039,0.5814,0.6356,0.701,0.7768,0.8706,0.9565,1.0238,1.0855,1.1635,1.2426,1.3047,1.3489,1.4011,1.4513,1.4221,1.3859,1.3492,1.3816,1.3979,1.3523,1.2969,1.2434,1.1763,1.0912,0.9937,0.8819,0.7737,0.6441,0.5023,0.3416,0.167,0.1437,0.1237,0.203,0.2766,0.4151,0.5452,0.6371,0.718,0.7988,0.8928,0.926,0.9313,0.9291,0.8865,0.8429,0.8069,0.7759,0.7831,0.8518,0.9476,1.0284,1.0777,1.1215,1.14,1.149,1.1115,1.0525,0.9629,0.8759,0.765,0.6366,0.4868,0.3677,0.3064,0.2823,0.2943,0.4726,0.7519,0.9093,1.0186,1.1176,1.1,1.0808,1.0441,-0.3309,-0.3485,-0.3509,-0.3509,-0.3506,-0.3584,-0.3569,-0.3548,-0.3682,-0.3605,-0.3485,-0.339,-0.3385,-0.3465,-0.3229,-0.3144,-0.3181,-0.3257,-0.3369,-0.322,-0.2942,-0.2246,-0.1107,0.043,0.2194,0.3393,0.4029,0.4228,0.4268,0.4058,0.3926,0.3999,0.4053,0.426,0.4337,0.4313,0.4405,0.454,0.4909,0.5355,0.5909,0.6466,0.6998,0.7676,0.8898,0.9812,1.0674,1.1282,1.2182,1.3555,1.3522,1.3801,1.4693,1.4929,1.4791,1.4393,1.4027,1.3832,1.3605,1.3083,1.2516,1.1866,1.0986,1.0151,0.9304,0.8385,0.7053,0.5789,0.4783,0.3619,0.2647,0.2255,0.2069,0.245,0.3117,0.3971,0.5242,0.6217,0.7112,0.853,0.9446,0.9647,0.9729,0.9449,0.9013,0.8524,0.8153,0.7885,0.7923,0.8607,0.9239,1.0049,1.0775,1.125,1.1417,1.1505,1.1055,1.0526,0.9559,0.8436,0.7087,0.5787,0.4508,0.3532,0.281,0.272,0.2924,0.5046,0.729,0.8736,0.9877,1.1235,1.2197,1.1777,1.1604,-0.3052,-0.3199,-0.3309,-0.3333,-0.3354,-0.3327,-0.3287,-0.322,-0.3284,-0.3354,-0.3305,-0.3071,-0.3042,-0.3195,-0.3149,-0.3144,-0.3192,-0.335,-0.3418,-0.3223,-0.3131,-0.2358,-0.1148,0.0321,0.1863,0.3195,0.4207,0.4639,0.4791,0.4762,0.4633,0.4744,0.4762,0.4919,0.5116,0.5334,0.5446,0.5438,0.5523,0.5786,0.6189,0.6672,0.7027,0.7712,0.9038,1.0221,1.1138,1.1685,1.3062,1.4249,1.4008,1.4178,1.4751,1.4747,1.4763,1.4321,1.3716,1.3501,1.3314,1.2781,1.2221,1.1518,1.0508,0.99,0.9065,0.815,0.7045,0.5941,0.5253,0.4512,0.3736,0.3064,0.297,0.2904,0.3447,0.3981,0.5013,0.6054,0.7473,0.9039,0.9693,0.9881,0.9818,0.9528,0.9295,0.9079,0.8839,0.852,0.8483,0.8805,0.9298,0.9906,1.0678,1.1319,1.1395,1.1322,1.0773,1.0115,0.9198,0.8009,0.6586,0.5395,0.4249,0.3325,0.2496,0.2687,0.3089,0.4644,0.6613,0.8083,0.9579,1.0871,1.1827,1.2012,1.2002,-0.2669,-0.2745,-0.2958,-0.3071,-0.3065,-0.3071,-0.2936,-0.274,-0.2918,-0.3049,-0.3004,-0.2786,-0.2753,-0.2938,-0.3033,-0.3435,-0.3576,-0.3734,-0.3534,-0.3186,-0.334,-0.2745,-0.1529,-0.0043,0.1532,0.2756,0.3897,0.4894,0.5159,0.5281,0.5399,0.5489,0.5545,0.5648,0.5814,0.6147,0.6258,0.6259,0.6242,0.6373,0.6579,0.6888,0.7298,0.8094,0.9494,1.0914,1.1722,1.2732,1.3934,1.4328,1.4552,1.453,1.4497,1.437,1.4348,1.4102,1.353,1.3243,1.3065,1.2602,1.206,1.137,1.0519,0.986,0.9004,0.8201,0.7172,0.6742,0.6147,0.5484,0.4745,0.4127,0.3864,0.3705,0.3871,0.4459,0.5269,0.6427,0.7821,0.9147,0.9657,0.9893,1.0244,0.9989,0.9723,0.9638,0.9348,0.8998,0.8938,0.9049,0.9444,0.9875,1.0552,1.1157,1.1198,1.0984,1.0392,0.9667,0.8695,0.7579,0.6167,0.5086,0.4079,0.3228,0.2471,0.2912,0.3535,0.5014,0.6401,0.7893,0.9329,1.0507,1.1262,1.183,1.2106,-0.2466,-0.2696,-0.2772,-0.2786,-0.2791,-0.2786,-0.2745,-0.2676,-0.2481,-0.2565,-0.2721,-0.2495,-0.2473,-0.2684,-0.2939,-0.3506,-0.4423,-0.4148,-0.389,-0.3635,-0.3596,-0.3056,-0.1927,-0.0388,0.1204,0.2902,0.4186,0.5188,0.5757,0.604,0.6159,0.6223,0.6264,0.6334,0.6407,0.675,0.6874,0.6956,0.7295,0.712,0.7002,0.7428,0.7931,0.8826,1.0093,1.1204,1.2072,1.2982,1.3758,1.4221,1.4354,1.4492,1.4635,1.4425,1.4227,1.399,1.3646,1.3272,1.2846,1.2455,1.1927,1.1174,1.0352,0.969,0.896,0.8261,0.7778,0.7524,0.7077,0.6405,0.5793,0.5227,0.4717,0.4494,0.4355,0.4992,0.5614,0.6928,0.8273,0.8939,0.9537,1.0001,1.0425,1.0429,1.0153,0.9837,0.9488,0.918,0.9039,0.9102,0.9542,0.9988,1.0477,1.0927,1.0905,1.0478,0.9768,0.8896,0.7902,0.6777,0.5689,0.4447,0.3294,0.2974,0.2613,0.3108,0.3881,0.511,0.6519,0.8034,0.9252,1.0527,1.1193,1.1726,1.1936,-0.2114,-0.232,-0.2437,-0.2513,-0.2546,-0.2501,-0.2439,-0.2344,-0.2124,-0.213,-0.2263,-0.2126,-0.2132,-0.2358,-0.2638,-0.3451,-0.4574,-0.4692,-0.4059,-0.3699,-0.3522,-0.3137,-0.2033,-0.0548,0.0913,0.2669,0.4616,0.5826,0.6412,0.6699,0.6793,0.6935,0.6964,0.6984,0.7066,0.7264,0.7415,0.7599,0.8229,0.8124,0.7731,0.8371,0.8876,0.9722,1.0558,1.1572,1.2123,1.2979,1.3766,1.4188,1.4409,1.4446,1.4526,1.442,1.4262,1.4011,1.3694,1.3332,1.2796,1.2311,1.1874,1.118,1.0461,0.9869,0.9963,0.9276,0.8267,0.7943,0.7621,0.6993,0.6546,0.6021,0.5404,0.5001,0.5181,0.5656,0.6571,0.771,0.8705,0.936,0.9905,1.0375,1.0694,1.0776,1.0551,1.0445,1.0013,0.9555,0.9381,0.9039,0.9528,0.9824,1.0153,1.0349,1.0307,0.9724,0.8957,0.8037,0.7078,0.6052,0.4969,0.3598,0.253,0.2633,0.2891,0.3435,0.429,0.5508,0.6925,0.8505,0.9583,1.0618,1.1135,1.154,1.1477,-0.1804,-0.1825,-0.2042,-0.2215,-0.2307,-0.2199,-0.2101,-0.1961,-0.1843,-0.1808,-0.1848,-0.183,-0.1792,-0.1931,-0.2249,-0.3036,-0.3714,-0.427,-0.3909,-0.3564,-0.3394,-0.3064,-0.1938,-0.0275,0.1322,0.303,0.4937,0.6028,0.6797,0.7092,0.739,0.7606,0.7672,0.7702,0.7909,0.81,0.8222,0.8361,0.8669,0.8762,0.9138,0.9674,0.9869,1.0414,1.12,1.1927,1.2353,1.2944,1.3908,1.4223,1.4443,1.4446,1.4368,1.4266,1.4163,1.3923,1.3536,1.3186,1.2804,1.2409,1.2029,1.152,1.0786,1.0454,1.0497,0.9898,0.8862,0.84,0.8065,0.7794,0.7329,0.6814,0.6174,0.574,0.6033,0.6235,0.7257,0.8174,0.8799,0.9472,0.9987,1.0477,1.0752,1.0869,1.0844,1.0756,1.0495,1.0136,0.9709,0.9251,0.9204,0.9224,0.9269,0.9435,0.9513,0.9011,0.819,0.7203,0.625,0.5309,0.432,0.3219,0.2665,0.2821,0.3155,0.3773,0.4772,0.5997,0.7464,0.8912,1.0007,1.0878,1.1059,1.1311,1.0935,-0.1804,-0.1804,-0.1848,-0.1894,-0.1941,-0.1909,-0.1849,-0.1833,-0.1823,-0.1794,-0.1763,-0.1789,-0.1807,-0.1803,-0.2226,-0.2739,-0.3142,-0.3763,-0.3846,-0.3488,-0.3386,-0.3055,-0.1778,0.0625,0.2322,0.3917,0.5362,0.6378,0.6968,0.7439,0.781,0.7951,0.8203,0.8319,0.8489,0.8721,0.9038,0.921,0.9536,0.9784,0.971,1.0075,1.0306,1.0955,1.1844,1.2589,1.3191,1.3587,1.3948,1.421,1.4408,1.4396,1.4277,1.4095,1.3934,1.3717,1.332,1.2983,1.2637,1.2385,1.2014,1.1498,1.0831,1.053,1.0366,0.9894,0.9215,0.9022,0.8773,0.8695,0.83,0.7733,0.715,0.6841,0.6905,0.6837,0.7266,0.7695,0.813,0.8806,0.9446,0.9995,1.052,1.0583,1.0558,1.0405,1.0139,0.9734,0.9114,0.8965,0.8893,0.8645,0.8442,0.8341,0.8359,0.8137,0.7418,0.641,0.5418,0.4443,0.3627,0.3088,0.2758,0.2958,0.3523,0.4165,0.5291,0.6512,0.7745,0.9117,1.0355,1.1196,1.1292,1.1219,1.0943]}]]